[[{"header":{"parameterUnit":"m.s-1","parameterCategory":1,"la1":30.6,"la2":29.2853,"lo1":-89.7004,"lo2":-87.6739,"dy":0.0162,"dx":0.0183,"nx":112,"ny":82,"refTime":"2023-03-28T06:00:00:Z","depth":0,"parameterNumber":2,"parameterNumberName":"U-component_of_WINDS"},"data":[0.0,0.0,0.0,0.0,0.0,0.0,0.0,0.0,0.0,0.0,0.0,0.0,0.0,0.0,0.0,0.0,0.0,0.0,0.0,0.0,0.0,0.0,0.0,0.0,0.0,0.0,0.0,0.0,0.0,0.0,0.0,0.0,0.0,0.0,0.0,0.0,0.0,0.0,0.0,0.0,0.0,0.0,0.0,0.0,0.0,0.0,0.0,0.0,0.0,0.0,0.0,0.0,0.0,0.0,0.0,0.0,0.0,0.0,0.0,0.0,0.0,0.0,0.0,0.0,0.0,0.0,0.0,0.0,0.0,0.0,0.0,0.0,0.0,0.0,0.0,0.0,0.0,0.0,0.0,0.0,0.0,0.0,0.0,0.0,0.0,0.0,0.0,0.0,0.0,0.0,1.0262,1.0404,1.3285,1.499,1.4553,1.4857,1.3767,1.0751,0.0,0.0,0.0,0.0,0.0,0.0,0.0,0.0,0.0,0.0,0.0,0.0,0.0,0.0,0.0,0.0,0.0,0.0,0.0,0.0,0.0,0.0,0.0,0.0,0.0,0.0,0.0,0.0,0.0,0.0,0.0,0.0,0.0,0.0,0.0,0.0,0.0,0.0,0.0,0.0,0.0,0.0,0.0,0.0,0.0,0.0,0.0,0.0,0.0,0.0,0.0,0.0,0.0,0.0,0.0,0.0,0.0,0.0,0.0,0.0,0.0,0.0,0.0,0.0,0.0,0.0,0.0,0.0,0.0,0.0,0.0,0.0,0.0,0.0,0.0,0.0,0.0,0.0,0.0,0.0,0.0,0.0,0.0,0.0,0.0,0.0,0.0,0.0,0.0,0.0,0.0,0.0,0.0,0.0,0.0,0.0,0.0,0.0,0.0,0.0,0.0,0.0,0.0,0.0,0.8919,1.16,1.2741,1.3278,1.3205,1.2591,1.1539,0.995,0.0,0.0,0.0,0.0,0.0,0.0,0.0,0.0,0.0,0.0,0.0,0.0,0.0,0.0,0.0,0.0,0.0,0.0,0.0,0.0,0.0,0.0,0.0,0.0,0.0,0.0,0.0,0.0,0.0,0.0,0.0,0.0,0.0,0.0,0.0,0.0,0.0,0.0,0.0,0.0,0.0,0.0,0.0,0.0,0.0,0.0,0.0,0.0,0.0,0.0,0.0,0.0,0.0,0.0,0.0,0.0,0.0,0.0,0.0,0.0,0.0,0.0,0.0,0.0,0.0,0.0,0.0,0.0,0.0,0.0,0.0,0.0,0.0,0.0,0.0,0.0,0.0,0.0,0.0,0.0,0.0,0.0,0.0,0.0,0.0,0.0,0.0,0.0,0.0,0.0,0.0,0.0,0.0,0.0,0.0,0.0,0.0,0.0,0.0,0.0,0.0,0.0,0.0,0.8659,0.9902,1.2763,1.3251,1.3394,1.3394,1.2818,1.1834,1.0345,1.0016,0.0,0.0,0.0,0.0,0.0,0.0,0.0,0.0,0.0,0.0,0.0,0.0,0.0,0.0,0.0,0.0,0.0,0.0,0.0,0.0,0.0,0.0,0.0,0.0,0.0,0.0,0.0,0.0,0.0,0.0,0.0,0.0,0.0,0.0,0.0,0.0,0.0,0.0,0.0,0.0,0.0,0.0,0.0,0.0,0.0,0.0,0.0,0.0,0.0,0.0,0.0,0.0,0.0,0.0,0.0,0.0,0.0,0.0,0.0,0.0,0.0,0.0,0.0,0.0,0.0,0.0,0.0,0.0,0.0,0.0,0.0,0.0,0.0,0.0,0.0,0.0,0.0,0.0,0.0,0.0,0.0,0.0,0.0,0.0,0.0,0.0,0.0,0.0,0.0,0.0,0.0,0.0,0.0,0.0,0.0,0.0,0.0,0.0,0.0,0.0,0.0,0.0,1.0323,1.1184,1.3349,1.3588,1.3547,1.3423,1.2776,1.1796,1.0422,0.9239,0.0,0.0,0.0,0.0,0.0,0.0,0.0,0.0,0.0,0.0,0.0,0.0,0.0,0.0,0.0,0.0,0.0,0.0,0.0,0.0,0.0,0.0,0.0,0.0,0.0,0.0,0.0,0.0,0.0,0.0,0.0,0.0,0.0,0.0,0.0,0.0,0.0,0.0,0.0,0.0,0.0,0.0,0.0,0.0,0.0,0.0,0.0,0.0,0.0,0.0,0.0,0.0,0.0,0.0,0.0,0.0,0.0,0.0,0.0,0.0,0.0,0.0,0.0,0.0,0.0,0.0,0.0,0.0,0.0,0.0,0.0,0.0,0.0,0.0,0.0,0.0,0.0,0.0,0.0,0.0,0.0,0.0,0.0,0.0,0.0,0.0,0.0,0.0,0.0,0.0,0.0,0.0,0.0,0.0,0.0,0.0,0.0,0.0,0.0,0.0,0.0,0.0,1.0419,1.1796,1.2854,1.2956,1.2799,1.2351,1.0934,0.9806,0.9258,0.7734,0.0,0.0,0.0,0.0,0.0,0.0,0.0,0.0,0.0,0.0,0.0,0.0,0.0,0.0,0.0,0.0,0.0,0.0,0.0,0.0,0.0,0.0,0.0,0.0,0.0,0.0,0.0,0.0,0.0,0.0,0.0,0.0,0.0,0.0,0.0,0.0,0.0,0.0,0.0,0.0,0.0,0.0,0.0,0.0,0.0,0.0,0.0,0.0,0.0,0.0,0.0,0.0,0.0,0.0,0.0,0.0,0.0,0.0,0.0,0.0,0.0,0.0,0.0,0.0,0.0,0.0,0.0,0.0,0.0,0.0,0.0,0.0,0.0,0.0,0.0,0.0,0.0,0.0,0.0,0.0,0.0,0.0,0.0,0.0,0.0,0.0,0.0,0.0,0.0,0.0,0.0,0.0,0.0,0.0,0.0,0.0,0.0,0.0,0.0,0.0,0.0,0.0,1.0262,1.1499,0.0,1.2637,1.2391,1.2223,1.1145,1.0083,0.916,0.0,0.0,0.0,0.0,0.0,0.0,0.0,0.0,0.0,0.0,0.0,0.0,0.0,0.0,0.0,0.0,0.0,0.0,0.0,0.0,0.0,0.0,0.0,0.0,0.0,0.0,0.0,0.0,0.0,0.0,0.0,0.0,0.0,0.0,0.0,0.0,0.0,0.0,0.0,0.0,0.0,0.0,0.0,0.0,0.0,0.0,0.0,0.0,0.0,0.0,0.0,0.0,0.0,0.0,0.0,0.0,0.0,0.0,0.0,0.0,0.0,0.0,0.0,0.0,0.0,0.0,0.0,0.0,0.0,0.0,0.0,0.0,0.0,0.0,0.0,0.0,0.0,0.0,0.0,0.0,0.0,0.0,0.0,0.0,0.0,0.0,0.0,0.0,0.0,0.0,0.0,0.0,0.0,0.0,0.0,0.0,0.0,0.0,0.0,0.0,0.0,0.0,0.9375,1.0261,1.1203,0.0,1.2187,1.1942,1.1794,1.0899,1.0021,0.9208,0.0,0.0,0.0,0.0,0.0,0.0,0.0,0.0,0.0,0.0,0.0,0.0,0.0,0.0,0.0,0.0,0.0,0.0,0.0,0.0,0.0,0.0,0.0,0.0,0.0,0.0,0.0,0.0,0.0,0.0,0.0,0.0,0.0,0.0,0.0,0.0,0.0,0.0,0.0,0.0,0.0,0.0,0.0,0.0,0.0,0.0,0.0,0.0,0.0,0.0,0.0,0.0,0.0,0.0,0.0,0.0,0.0,0.0,0.0,0.0,0.0,0.0,0.0,0.0,0.0,0.0,0.0,0.0,0.0,0.0,0.0,0.0,0.0,0.0,0.0,0.0,0.0,0.0,0.0,0.0,0.0,0.0,0.0,0.0,0.0,0.0,0.0,0.0,0.0,0.0,0.0,0.0,0.0,0.0,0.0,0.0,0.0,0.0,0.0,0.0,0.0,0.0,0.9777,1.0466,1.1074,1.1567,1.1606,1.1419,1.0957,0.9856,0.9242,0.0,0.0,0.0,0.0,0.0,0.0,0.0,0.0,0.0,0.0,0.0,0.0,0.0,0.0,0.0,0.0,0.0,0.0,0.0,0.0,0.0,0.0,0.0,0.0,0.0,0.0,0.0,0.0,0.0,0.0,0.0,0.0,0.0,0.0,0.0,0.0,0.0,0.0,0.0,0.0,0.0,0.0,0.0,0.0,0.0,0.0,0.0,0.0,0.0,0.0,0.0,0.0,0.0,0.0,0.0,0.0,0.0,0.0,0.0,0.0,0.0,0.0,0.0,0.0,0.0,0.0,0.0,0.0,0.0,0.0,0.0,0.0,0.0,0.0,0.0,0.0,0.0,0.0,0.0,0.0,0.0,0.0,0.0,0.0,0.0,0.0,0.0,0.0,0.0,0.0,0.0,0.0,0.0,0.0,0.0,0.0,0.0,0.0,0.0,0.0,0.0,0.0,0.0,0.9253,1.0222,1.1181,1.1942,1.1465,1.1182,1.1369,1.0518,0.9658,0.8932,0.0,0.0,0.0,0.0,0.0,0.0,0.0,0.0,0.0,0.0,0.0,0.0,0.0,0.0,0.0,0.0,0.0,0.0,0.0,0.0,0.0,0.0,0.0,0.0,0.0,0.0,0.0,0.0,0.0,0.0,0.0,0.0,0.0,0.0,0.0,0.0,0.0,0.0,0.0,0.0,0.0,0.0,0.0,0.0,0.0,0.0,0.0,0.0,0.0,0.0,0.0,0.0,0.0,0.0,0.0,0.0,0.0,0.0,0.0,0.0,0.0,0.0,0.0,0.0,0.0,0.0,0.0,0.0,0.0,0.0,0.0,0.0,0.0,0.0,0.0,0.0,0.0,0.0,0.0,0.0,0.0,0.0,0.0,0.0,0.0,0.0,0.0,0.0,0.0,0.0,0.0,0.0,0.0,0.0,0.0,0.0,0.0,0.0,0.0,0.0,0.0,0.0,0.9234,1.0064,1.0908,1.1599,1.1064,1.0772,1.1066,1.0606,1.0003,0.9348,0.0,0.0,0.0,0.0,0.0,0.0,0.0,0.0,0.0,0.0,0.0,0.0,0.0,0.0,0.0,0.0,0.0,0.0,0.0,0.0,0.0,0.0,0.0,0.0,0.0,0.0,0.0,0.0,0.0,0.0,0.0,0.0,0.0,0.0,0.0,0.0,0.0,0.0,0.0,0.0,0.0,0.0,0.0,0.0,0.0,0.0,0.0,0.0,0.0,0.0,0.0,0.0,0.0,0.0,0.0,0.0,0.0,0.0,0.0,0.0,0.0,0.0,0.0,0.0,0.0,0.0,0.0,0.0,0.0,0.0,0.0,0.0,0.0,0.0,0.0,0.0,0.0,0.0,0.0,0.0,0.0,0.0,0.0,0.0,0.0,0.0,0.0,0.0,0.0,0.0,0.0,0.0,0.0,0.0,0.0,0.0,0.0,0.0,0.0,0.0,0.0,0.0,0.9497,1.0024,1.0518,1.0918,1.0576,1.0312,1.0342,1.0352,1.0309,1.0154,0.0,0.0,0.0,0.0,0.0,0.0,0.0,0.0,0.0,0.0,0.0,0.0,0.0,0.0,0.0,0.0,0.0,0.0,0.0,0.0,0.0,0.0,0.0,0.0,0.0,0.0,0.0,0.0,0.0,0.0,0.0,0.0,0.0,0.0,0.0,0.0,0.0,0.0,0.0,0.0,0.0,0.0,0.0,0.0,0.0,0.0,0.0,0.0,0.0,0.0,0.0,0.0,0.0,0.0,0.0,0.0,0.0,0.0,0.0,0.0,1.0761,0.0,0.0,0.0,0.0,0.0,0.0,0.0,0.0,0.0,0.0,0.0,0.0,0.0,0.0,0.0,0.0,0.0,0.0,0.0,0.0,0.0,0.0,0.0,0.0,0.0,0.0,0.0,0.0,0.0,0.0,0.0,0.0,0.0,0.0,0.0,0.0,0.0,0.0,0.0,0.0,0.0,0.9165,1.0086,1.0948,1.1389,1.0762,1.043,1.0742,1.0771,1.0469,0.9768,0.9905,0.0,0.0,0.0,0.0,0.0,0.0,0.0,0.0,0.0,0.0,0.0,0.0,0.0,0.0,0.0,0.0,0.0,0.0,0.0,0.0,0.0,0.0,0.0,0.0,0.0,0.0,0.0,0.0,0.0,0.0,0.0,0.0,0.0,0.0,0.0,0.0,0.0,0.0,0.0,0.0,0.0,0.0,0.0,0.0,0.0,0.0,0.0,0.0,0.0,0.0,0.0,0.0,0.0,0.0,0.0,0.0,0.0,0.0,0.0,0.0,1.1019,0.0,0.0,0.0,0.0,0.0,0.0,0.0,0.0,0.0,0.0,0.0,0.0,0.0,0.0,0.0,0.0,0.0,0.0,0.0,0.0,0.0,0.0,0.0,0.0,0.0,0.0,0.0,0.0,0.0,0.0,0.0,0.0,0.0,0.0,0.0,0.0,0.0,0.0,0.0,0.0,0.9862,1.0694,1.1397,1.1847,1.1124,1.0762,1.1202,1.085,1.0605,1.0566,1.0195,0.0,0.0,0.0,0.0,0.0,0.0,0.0,0.0,0.0,0.0,0.0,0.0,0.0,0.0,0.0,0.0,0.0,0.0,0.0,0.0,0.0,0.0,0.0,0.0,0.0,0.0,0.0,0.0,0.0,0.0,0.0,0.0,0.0,0.0,0.0,0.0,0.0,0.0,0.0,0.0,0.0,0.0,0.0,0.0,0.0,0.0,0.0,0.0,0.0,0.0,0.0,0.0,0.0,1.3052,1.3105,1.306,1.306,1.2773,1.226,1.2015,1.2693,1.3801,0.0,0.0,0.0,0.0,0.0,0.0,0.0,0.0,0.0,0.0,0.0,0.0,0.0,0.0,0.0,0.0,0.0,0.0,0.0,0.0,0.0,0.0,0.0,0.0,0.0,1.2968,1.2731,0.0,0.0,0.0,0.0,0.0,0.0,0.0,0.0,0.0,0.0,0.0,0.0,1.0752,1.1378,1.1828,1.2153,1.1482,1.1182,1.1567,1.0997,1.087,1.1439,1.0576,0.9991,0.0,0.0,0.0,0.0,0.0,0.0,0.0,0.0,0.0,0.0,0.0,0.0,0.0,0.0,0.0,0.0,0.0,0.0,0.0,0.0,0.0,0.0,0.0,0.0,0.0,0.0,0.0,0.0,0.0,0.0,0.0,0.0,1.1035,1.2283,0.0,0.0,0.0,0.0,0.0,0.0,0.0,0.0,0.0,0.0,0.0,0.0,0.0,0.0,1.2827,1.3301,1.415,1.534,1.5818,1.6031,1.6022,1.6022,1.5793,1.5331,1.3873,0.0,1.3241,1.3483,0.0,0.0,0.0,0.0,0.0,0.0,0.0,0.0,0.0,0.0,0.0,0.0,0.0,0.0,0.0,0.0,0.0,0.0,0.0,0.0,0.0,0.0,1.2842,1.2903,1.2911,1.2879,0.0,1.2006,1.1375,1.1224,0.0,0.0,0.0,0.0,0.0,0.0,0.0,0.0,1.0869,1.1599,1.2145,1.2192,1.1788,1.1536,1.1595,1.1816,1.1688,1.1025,1.1541,1.1521,1.0771,1.0675,0.0,0.0,0.0,0.0,0.0,0.0,0.0,0.0,0.0,0.0,0.0,0.0,0.0,0.0,0.0,0.0,0.0,0.0,0.0,0.0,0.0,0.0,0.0,0.0,0.0,0.0,0.0,0.0,0.0,1.0735,1.1827,1.2804,1.2626,1.2322,0.0,0.0,0.0,0.0,0.0,0.0,0.0,0.0,0.0,1.2998,1.3281,1.3925,1.4959,1.5477,1.5868,1.6134,1.6721,1.683,1.6487,1.6487,1.6245,1.5775,1.4705,1.4235,1.4167,1.3611,1.3557,1.3759,0.0,0.0,0.0,0.0,0.0,1.1756,1.1702,0.0,0.0,0.0,0.0,0.0,0.0,0.0,0.0,0.0,0.0,0.0,0.0,0.0,0.0,1.2905,1.3079,1.3176,1.2942,1.2554,1.2064,0.0,1.094,1.0301,0.9344,0.0,0.0,0.0,0.0,0.0,1.1945,1.2363,1.2598,1.2598,1.2207,1.2043,1.2308,1.2043,1.1906,1.2023,1.2125,1.2028,1.1638,1.184,1.1544,0.0,0.0,0.0,0.0,0.0,0.0,0.0,0.0,0.0,0.0,0.0,0.0,0.0,0.0,0.0,0.0,0.0,0.0,0.0,0.0,0.0,0.0,0.0,0.0,0.0,0.0,0.0,0.0,1.1381,1.2486,1.3236,1.2944,1.2664,0.0,0.0,0.0,0.0,0.0,0.0,1.2508,1.2668,1.3306,1.4542,1.4919,1.5542,1.6464,1.6814,1.6876,1.6664,1.7107,1.7078,1.6664,1.6664,1.6404,1.5926,1.5475,1.5322,1.5252,1.3997,1.3586,1.3762,1.3619,1.3092,1.2377,1.2377,1.2538,1.269,1.233,1.2966,1.3904,1.3379,0.0,1.3809,1.3809,0.0,0.0,0.0,0.0,1.2477,1.2258,0.0,1.3094,1.2936,1.3281,1.3542,1.3137,1.3125,1.2912,0.0,1.1555,1.1098,1.0131,0.0,0.0,0.0,0.0,1.1758,1.2766,1.2915,1.2915,1.2915,1.2598,1.2508,1.2864,1.232,1.2152,1.2688,1.252,1.232,1.2192,1.2656,1.237,1.1276,0.0,0.0,0.0,0.0,0.0,0.0,0.0,0.0,0.0,0.0,0.0,0.0,0.0,0.0,0.0,0.0,0.0,0.0,0.0,0.0,0.0,0.0,0.0,0.0,0.0,0.0,0.0,0.0,0.0,1.3017,1.4306,0.0,0.0,0.0,0.0,1.2056,1.253,1.3175,1.3952,1.4476,1.4935,1.5326,1.5365,1.5615,1.6132,1.6152,1.6554,1.735,1.7383,1.7383,1.735,1.735,1.7099,1.6656,1.6625,1.6402,1.5994,1.5287,1.5335,1.58,1.5286,1.5076,1.5019,1.5019,1.4898,1.4775,1.487,1.4833,1.4667,1.4181,1.3802,1.3514,1.3514,1.3231,0.0,0.0,1.281,1.3253,1.2398,1.3113,1.3848,1.3079,1.3503,1.3958,1.3574,1.3776,1.3796,0.0,1.2798,1.2524,1.1637,0.0,1.2445,1.1674,1.2269,1.2825,1.2883,1.2915,1.2915,1.2915,1.2883,1.2864,1.2915,1.2856,1.2656,1.2262,1.2637,1.2656,1.2223,1.2656,1.2876,1.279,1.1804,0.0,0.0,0.0,0.0,0.0,0.0,0.0,0.0,0.0,0.0,0.0,0.0,0.0,0.0,0.0,0.0,0.0,0.0,0.0,0.0,0.0,0.0,0.0,0.0,0.0,0.0,0.0,0.0,1.2867,1.3886,0.0,1.4183,1.3886,1.3847,1.4215,1.4667,1.5327,1.6168,1.6394,1.6686,1.707,1.7311,1.7542,1.7715,1.8025,1.8318,1.8631,1.832,1.8166,1.8166,1.791,1.7559,1.7148,1.7148,1.6894,1.648,1.6237,1.5934,1.5593,1.5403,1.5328,1.5328,1.5328,1.5459,1.5675,1.5733,1.5687,1.5517,1.4799,1.4453,1.4349,1.4349,1.4232,1.4095,1.3926,1.3874,1.3821,1.3497,1.3977,1.44,1.3815,1.4108,1.442,1.3977,1.3997,1.4016,1.3737,1.3464,1.3196,1.2883,1.2864,1.2798,1.2484,1.27,1.2915,1.2915,1.2915,1.2915,1.2915,1.2915,1.2915,1.2915,1.2915,1.2825,1.2656,1.2805,1.2825,1.2656,1.2805,1.2915,1.2915,1.2516,1.183,0.0,0.0,0.0,0.0,0.0,0.0,0.0,0.0,0.0,0.0,0.0,0.0,0.0,0.0,0.0,0.0,0.0,0.0,0.0,0.0,0.0,0.0,0.0,0.0,0.0,0.0,1.3046,1.3671,1.4615,1.5352,1.564,1.541,1.5513,1.6215,1.6578,1.7125,1.7986,1.8044,1.824,1.8615,1.8908,1.8968,1.883,1.9141,1.9315,1.9296,1.8966,1.883,1.883,1.8557,1.8281,1.8044,1.8044,1.7773,1.735,1.7522,1.7152,1.6449,1.602,1.5844,1.5844,1.5844,1.6133,1.6535,1.6535,1.6422,1.6207,1.5625,1.5346,1.5249,1.5391,1.5346,1.5244,1.5244,1.5,1.4713,1.442,1.4668,1.4774,1.3893,1.4363,1.4812,1.4091,1.4248,1.4543,1.4543,1.4088,1.3561,1.3132,1.2852,1.2531,1.2093,1.2023,1.2023,1.2023,1.2289,1.2465,1.2465,1.2719,1.2915,1.2915,1.2621,1.2582,1.2883,1.2621,1.2602,1.2895,1.2621,1.2465,1.2465,1.2286,1.194,1.1415,0.0,0.0,0.0,0.0,0.0,0.0,0.0,0.0,0.0,0.0,0.0,0.0,0.0,0.0,0.0,0.0,0.0,0.0,0.0,0.0,0.0,0.0,0.0,1.2164,1.4094,1.5454,1.5493,1.668,1.7497,1.7497,1.7497,1.7673,1.8069,1.8088,1.8477,1.9335,1.9393,1.9551,1.9942,1.9962,1.9785,1.9375,1.9374,1.9374,1.9374,1.9316,1.9315,1.9315,1.9315,1.9315,1.9315,1.9315,1.9043,1.8656,1.9121,1.9005,1.8481,1.7252,1.6765,1.6765,1.6765,1.7035,1.7419,1.7419,1.7109,1.6726,1.6726,1.6465,1.6222,1.6605,1.6445,1.6124,1.6124,1.6124,1.5909,1.5025,1.5089,1.4951,1.3299,1.4171,1.5047,1.3892,1.4557,1.5396,1.5386,1.4704,1.373,1.2496,1.227,1.1833,1.0596,1.043,0.0,1.04,1.1145,1.1634,1.1595,1.2387,1.2903,1.2856,1.2124,1.2007,1.2856,1.2104,1.2026,1.2876,1.2085,1.1645,1.1645,1.1105,1.1539,1.2959,0.0,0.0,0.0,0.0,0.0,0.0,0.0,0.0,0.0,0.0,0.0,0.0,0.0,0.0,0.0,0.0,0.0,0.0,0.0,0.0,0.0,0.0,1.4525,1.4141,1.5396,1.6703,1.7603,1.8906,1.9725,1.9725,1.9725,1.9882,2.0293,2.0332,2.0566,2.1133,2.1192,2.125,2.1348,2.1348,2.1289,2.1192,2.0859,2.0684,2.0664,2.0039,1.9746,1.9727,1.9434,1.9315,1.9315,1.9315,1.9237,1.9121,1.9256,1.9005,1.8598,1.8576,1.8381,1.8071,1.8071,1.7971,1.7832,1.7832,1.7559,1.7207,1.7207,1.7145,1.7067,1.7168,1.7125,1.7028,1.7028,1.6594,1.5905,1.5102,1.4702,1.4321,1.3456,1.3905,1.4594,1.4793,1.5129,1.5346,1.5079,1.5049,1.483,1.4199,1.3802,1.3471,1.3113,0.0,0.0,1.2656,1.2832,1.2629,1.1693,1.2629,1.2961,1.2046,1.257,1.2961,1.2903,1.268,1.2661,1.2895,1.2661,1.2543,1.2543,1.2012,1.1943,0.0,0.0,0.0,0.0,0.0,0.0,0.0,0.0,0.0,0.0,0.0,0.0,0.0,0.0,0.0,0.0,0.0,0.0,0.0,0.0,0.0,0.0,1.4518,1.5702,1.6349,1.753,1.8674,1.9572,2.0547,2.1211,2.1387,2.1407,2.1484,2.1737,2.1757,2.1854,2.2129,2.1688,2.1646,2.2148,2.1667,2.1551,2.1894,2.1641,2.1484,2.1484,2.0781,2.0449,2.043,2.0038,1.9843,0.0,1.9843,1.9745,1.957,1.9765,1.957,0.0,0.0,0.0,0.0,0.0,1.8205,1.7991,1.7991,1.7852,1.7637,1.7637,1.7637,1.7637,1.7637,1.7519,1.7295,1.6739,1.6192,1.5542,1.4533,1.4179,1.3898,1.3252,1.3587,1.4092,1.4179,1.4519,1.471,1.4517,0.0,0.0,1.4831,1.425,1.3678,1.3132,1.3047,1.2969,0.0,1.2852,1.2664,1.1925,1.2688,1.2942,1.2222,1.2504,0.0,0.0,0.0,1.2359,1.2359,1.2359,0.0,0.0,0.0,1.1747,0.0,0.0,0.0,0.0,1.1813,1.1327,0.0,0.0,0.0,0.0,0.0,0.0,0.0,0.0,0.0,0.0,0.0,0.0,0.0,0.0,0.0,0.0,1.4205,1.5817,1.8364,1.9732,2.0698,2.1268,2.1634,2.1979,2.2326,2.2257,2.2152,2.2152,2.2152,2.2152,2.2152,0.0,0.0,0.0,0.0,2.0979,2.1803,2.1641,2.1539,2.156,2.1181,2.1009,2.099,2.0605,2.0489,2.0586,2.0469,2.0236,2.0019,2.0429,2.0332,1.9825,1.9046,1.8498,1.8127,1.8105,1.803,0.0,0.0,0.0,0.0,1.7991,1.794,1.7854,1.7854,1.7516,1.6916,1.5767,1.533,1.4931,1.3719,1.3575,1.3568,1.2792,1.3199,1.3584,1.2955,1.3398,1.3884,1.3849,1.4641,1.5165,1.4715,1.4175,1.3379,1.2202,1.2026,0.0,1.1979,1.2266,1.2437,1.2301,0.0,0.0,1.2825,1.2191,1.2113,1.2844,1.2171,1.1763,1.1763,1.1763,1.151,1.1041,1.1082,1.1491,1.2252,1.2293,1.2746,1.3548,1.2234,1.189,0.0,0.0,0.0,0.0,0.0,0.0,0.0,0.0,0.0,0.0,0.0,0.0,0.0,0.0,0.0,1.4575,1.6034,1.7436,1.8614,1.9326,2.0346,2.2053,2.176,2.1453,2.1526,2.0659,2.0075,2.0075,2.0075,2.0075,2.0075,1.9873,0.0,2.1504,2.035,2.0271,2.1416,2.0083,1.9424,1.9468,0.0,0.0,1.9738,1.9437,1.9785,2.0547,1.9687,1.9748,2.0468,2.0566,2.0332,1.9883,1.9708,1.9414,1.9004,1.8635,1.8283,1.7991,1.7991,1.7991,1.7991,1.7991,1.7493,1.6871,1.6871,1.6296,0.0,1.5323,1.4966,1.4444,1.3561,1.3119,1.2773,1.219,1.2495,1.3034,1.3421,1.3726,1.3798,1.3489,1.4447,1.5077,1.4342,1.4989,1.54,1.4766,1.4668,1.4551,1.4213,1.4252,1.3906,1.2871,1.3425,1.3451,1.2418,1.2832,1.3079,1.2903,1.2739,1.2661,1.2661,1.2661,1.2598,1.2511,1.2803,1.3067,1.3224,1.3553,1.3809,1.3958,1.338,1.3318,0.0,0.0,0.0,0.0,0.0,0.0,0.0,0.0,0.0,0.0,0.0,1.089,0.0,0.0,1.3842,1.4719,1.578,1.6921,1.8084,1.8462,1.9203,2.0806,2.0641,2.0387,2.0387,1.9844,1.9497,1.9497,1.9497,1.9497,1.9497,1.8925,1.9154,2.0364,1.9222,1.9177,2.0387,1.9586,1.9171,1.9193,1.9128,1.9093,1.9093,1.8758,1.8813,1.9205,1.9205,1.9417,1.9844,2.0391,2.0449,2.0253,2.0253,1.9727,1.8908,1.8676,1.8361,1.7991,1.7991,1.7991,1.7923,1.744,1.6974,1.6506,1.6035,1.5408,1.4769,1.4349,1.4028,1.361,1.2804,1.2554,1.2437,1.2159,1.2293,1.2586,1.2936,1.3038,1.3041,1.2828,1.3717,1.4305,1.3702,1.4545,1.5467,1.598,1.6059,1.5918,1.5503,1.5249,1.4785,1.3939,1.3991,1.3763,1.2925,1.3066,1.3118,1.2903,1.2915,1.2981,1.3184,1.3203,1.3281,1.3496,1.3698,1.3802,1.3802,1.3997,1.4211,1.4453,1.4238,1.4127,0.0,0.0,0.0,0.0,0.0,0.0,0.0,0.0,0.9682,0.9937,1.0962,1.1926,1.227,1.3173,1.406,1.4581,1.5137,1.59,1.7165,1.7326,1.7684,1.8672,1.8993,1.9154,1.9154,1.8925,1.8787,1.8787,1.8787,1.8787,1.8787,1.7855,1.7878,1.9108,1.7971,1.7925,1.9131,1.8902,1.8787,1.8787,1.8556,1.8463,1.8447,1.8049,1.7873,1.7915,1.8745,1.8967,1.8825,1.9627,1.9962,1.9962,1.9962,1.926,1.8276,1.8708,1.8557,1.8091,1.7902,1.7793,1.7579,1.6628,1.6193,1.5895,1.5137,1.4518,1.3946,1.3279,1.3029,1.2799,1.2141,1.2149,1.2305,1.2305,1.2305,1.2305,1.2305,1.2345,1.2371,1.2318,1.3104,1.368,1.3374,1.4045,1.5036,1.6252,1.6434,1.6378,1.6215,1.5835,1.541,1.5092,1.4557,1.4055,1.3659,1.332,1.3098,1.302,1.302,1.3145,1.3496,1.3503,1.3698,1.4081,1.4192,1.4244,1.4244,1.4309,1.4557,1.4916,1.4916,1.4713,0.7745,0.7734,0.8205,0.9232,0.9271,0.9537,0.0,0.0,1.1472,1.2526,1.3067,1.346,1.3788,1.4397,1.4946,1.5244,1.5565,1.5815,1.5984,1.6008,1.6055,1.6197,1.7217,1.7893,1.7893,1.6866,1.6221,1.6221,1.6221,1.6221,1.6221,1.6079,1.6598,1.787,1.6669,1.6622,1.7893,1.6772,1.6221,1.6207,1.6891,1.7206,1.7191,1.6921,1.7265,1.8148,1.8027,1.7967,1.7921,1.7731,1.7658,1.7658,1.7658,1.7352,1.7143,1.9052,1.924,1.8397,1.7582,1.7059,1.6611,1.5649,1.4746,1.4009,1.39,1.3252,1.2545,1.2435,1.2398,1.2361,1.227,1.2278,1.2305,1.2305,1.2305,1.2305,1.2305,1.2524,1.265,1.2358,1.3307,1.4134,1.4085,1.4654,1.5204,1.5413,1.545,1.5739,1.6534,1.6285,1.6007,1.5948,1.521,1.4531,1.4075,1.3997,1.3802,1.3457,1.3425,1.3457,1.3503,1.3503,1.3698,1.4081,1.4512,1.4707,1.4707,1.5078,1.5278,1.5337,1.5337,1.5298,0.8022,0.8475,0.9232,1.0408,1.0728,1.1129,1.2518,1.2906,1.312,1.3614,1.4229,1.4674,1.483,1.519,1.5565,0.0,1.5835,1.5861,1.6059,1.5915,1.5808,1.5808,1.6268,1.6598,1.6598,1.6103,1.5808,1.5808,1.5808,1.5808,1.5808,1.5808,1.6032,1.6574,1.6079,1.6055,1.6598,1.6069,1.5808,1.5808,1.6131,1.6295,1.6295,1.6192,1.664,1.7477,1.7017,1.7276,1.7989,1.7483,1.7405,1.7569,1.7376,1.7195,1.713,1.7796,1.7643,1.7036,1.6647,1.6397,1.6114,1.5168,1.4569,1.4088,1.3388,1.3001,1.2759,1.2398,1.2559,1.2746,1.2398,1.2425,1.2596,1.2596,1.2596,1.2631,1.2799,1.2933,1.2986,1.2852,1.3248,1.3635,1.3635,1.3854,1.4175,1.4591,1.5463,1.63,1.7015,1.6969,1.6672,1.6144,1.5772,1.5268,1.457,1.4512,1.4322,1.388,1.3841,1.3971,1.4252,1.4271,1.4453,1.4835,1.5059,1.5156,1.5156,1.5332,1.5396,1.5396,1.5396,1.5396,0.8255,0.907,0.999,1.1425,1.2163,1.2711,1.3507,1.4082,1.4469,1.4549,1.507,1.5511,1.5511,1.5661,1.5875,1.6112,1.6046,1.6005,1.6126,1.6032,1.5901,1.5821,1.5808,1.5808,1.5808,1.5808,1.5808,1.5808,1.5808,1.5808,1.5808,1.5808,1.5808,1.5808,1.5808,1.5808,1.5808,1.5808,1.5808,1.5808,1.5808,1.5808,1.5808,1.5808,1.608,1.6535,1.6095,1.6439,1.7286,1.6853,1.6812,1.6978,1.6656,1.6516,1.6485,1.6126,1.6063,1.6165,1.5896,1.5717,1.5461,1.4511,1.4214,1.4054,1.3184,1.3046,1.312,1.2679,1.2866,1.3106,1.2665,1.2738,1.2918,1.2918,1.2918,1.2952,1.316,1.3247,1.3287,1.3207,1.326,1.3313,1.3313,1.3247,1.3494,1.4334,1.561,1.6668,1.7113,1.7309,1.7106,1.6344,1.6265,1.6011,1.5371,1.5312,1.5078,1.4504,1.4596,1.4707,1.4799,1.4916,1.5098,1.5396,1.5396,1.5396,1.5396,1.5396,1.5396,1.5396,1.5396,1.5396,0.0,0.0,1.0028,1.2202,1.3414,1.4196,1.4821,1.516,1.5431,1.5688,1.5768,1.5795,1.5795,1.5795,1.5808,1.5821,1.6072,1.6166,1.5861,1.6086,1.6152,1.5835,1.5808,1.5808,0.0,1.5808,1.5808,1.5808,1.5808,1.5808,1.5808,1.5808,1.5808,1.5808,1.5808,1.5808,1.5808,1.5808,1.5808,1.5808,1.5808,1.5808,1.5808,1.5808,1.5671,1.5437,1.5424,1.5308,1.5098,1.5071,1.5071,1.5057,1.4725,1.4596,1.4556,1.4281,1.5242,1.654,1.5627,1.5013,1.4491,1.3555,1.3253,1.3253,1.32,1.318,1.3213,1.3186,1.32,1.3213,1.3186,1.3186,1.32,1.32,1.32,1.318,1.3213,1.3407,1.3507,1.3247,1.342,1.3586,1.3586,1.338,1.3631,1.4883,1.5728,1.6302,1.6596,1.708,1.7207,1.6726,1.6687,1.6668,1.6648,1.6648,1.6293,1.5415,1.5777,1.5674,1.4838,1.5176,1.5376,1.5396,1.5396,1.5396,1.5396,1.5396,1.5396,1.5396,1.5396,1.5396,0.0,0.0,0.9801,1.2087,1.3009,1.3743,1.5196,1.5595,1.5635,1.5541,1.4686,1.4084,1.4581,1.348,1.3077,1.4969,1.5034,1.5126,1.6016,1.623,1.619,1.5848,1.5808,0.0,0.0,0.0,0.0,1.5808,1.6005,1.6032,1.5821,1.6019,1.6032,1.5808,1.5808,1.5808,1.5808,1.5808,1.5808,1.5808,1.5808,1.5808,1.5808,1.5808,1.5755,1.5648,1.5484,1.5444,1.5511,1.5146,1.5093,1.524,1.4946,1.4839,1.4825,1.4732,1.5069,1.5462,1.4748,1.4393,1.4227,1.3891,1.3788,1.3761,1.354,1.362,1.3707,1.33,1.3494,1.3707,1.3287,1.3494,1.3788,1.3788,1.3935,1.4114,1.4357,1.4295,1.4167,1.4074,1.398,1.3935,1.3935,1.3854,1.4097,1.4966,1.6029,1.7008,1.7806,1.7842,1.7637,1.7207,1.7405,1.7327,1.6746,1.6976,1.6914,1.6297,1.641,1.625,1.5694,1.5777,1.5718,1.5396,1.5396,1.5547,1.5855,1.5855,1.5855,1.5855,1.5855,1.5698,0.0,0.8292,0.9601,1.1693,1.2413,1.2913,1.4124,1.4782,1.4918,1.4091,1.3429,1.2968,1.2875,1.1647,1.1481,1.3957,1.4126,1.4454,1.5914,1.623,1.619,1.5848,1.5808,1.5808,0.0,0.0,0.0,1.5808,1.6112,1.6139,1.5821,1.6112,1.6163,1.5821,1.5808,1.5808,1.5808,1.5808,1.5808,1.5808,1.5808,1.5808,1.5808,1.5808,1.5741,1.5648,1.5591,1.5605,1.5635,1.5391,1.5378,1.5524,1.5253,1.5146,1.5133,1.5048,1.5008,1.4941,1.4416,1.4242,1.4229,1.4122,1.4103,1.4055,1.3834,1.3935,1.4049,1.3761,1.3948,1.4175,1.3908,1.4143,1.4424,1.4424,1.4536,1.4736,1.4946,1.4839,1.4683,1.4683,1.4442,1.4242,1.4242,1.4162,1.4392,1.5183,1.6225,1.7184,1.7925,1.802,1.791,1.7637,1.7852,1.7776,1.7213,1.7441,1.7422,1.6976,1.7093,1.6898,1.6344,1.6476,1.6344,1.5868,1.5864,1.6,1.6324,1.6324,1.6324,1.6324,1.6324,1.6152,0.7686,0.8598,0.9424,1.1011,1.161,1.1818,1.1881,1.2852,1.3296,1.1601,1.204,1.2251,0.0,0.0,1.0888,1.2822,1.3434,1.417,1.5528,1.6002,1.6071,0.0,0.0,0.0,0.0,0.0,0.0,1.5848,0.0,1.6166,1.5861,1.6152,1.6203,1.5835,1.5848,1.5835,1.5808,1.5808,1.5808,1.5808,1.5808,1.5808,1.5808,1.5808,1.5648,1.5431,1.5688,1.5648,1.5444,1.5688,1.5808,1.5781,1.5524,1.5418,1.5391,1.5133,1.5026,1.4986,1.4669,1.4541,1.4474,1.4202,1.4129,1.4129,1.4095,1.4116,1.4162,1.4421,1.4514,1.4603,1.4919,1.5022,1.5035,1.5035,1.5013,1.5026,1.5026,1.5013,1.5035,1.5035,1.4736,1.4501,1.4501,1.4282,1.4447,1.5462,1.6224,1.6776,1.7025,1.764,1.8066,1.7991,1.8027,1.801,1.7991,1.7991,1.7832,1.7458,1.7793,1.762,1.6765,1.7168,1.7168,1.6707,1.6707,1.6707,1.6746,1.6746,1.6746,1.6746,1.6746,1.6726,0.7475,0.793,0.8492,1.0019,1.0425,1.0718,1.157,1.1863,1.1714,1.0805,0.9706,0.8954,0.0,0.0,0.0,1.18,1.3063,0.0,1.4436,1.4787,0.0,1.3405,0.0,1.4834,1.4834,1.5817,0.0,0.0,1.6553,1.6567,1.6486,1.6792,1.6737,1.6203,1.6366,1.6248,1.5808,1.5808,1.5808,1.5808,1.5808,1.5808,1.5808,1.5808,1.5768,1.5701,1.5768,1.5768,1.5701,1.5781,1.5808,1.5795,1.5728,1.5688,1.5688,1.5608,1.5605,1.5565,1.5271,1.503,1.4825,1.4509,1.4402,1.4362,1.4148,1.4242,1.4407,1.4474,1.4683,1.4892,1.4995,1.5146,1.5307,1.5307,1.5444,1.5605,1.5605,1.5444,1.5307,1.5307,1.487,1.4501,1.4501,1.4282,1.4187,1.4468,1.5756,1.6915,1.7453,1.8372,1.8711,1.8069,1.8264,1.8342,1.803,1.7991,1.7969,1.7852,1.7932,1.7773,1.7246,1.7341,1.7168,1.6707,1.6707,1.6879,1.7227,1.7227,1.7227,1.7227,1.7227,1.7035,0.7563,0.7848,0.8191,0.8941,0.9085,0.9163,0.9589,0.9964,0.9875,0.8557,0.787,0.7441,0.7234,0.6856,0.0,0.0,0.0,0.0,1.2983,1.3339,1.3189,0.0,1.3057,0.0,1.358,1.4913,1.5834,0.0,1.6558,1.6872,1.6714,1.7006,1.6991,1.6473,1.6524,1.6353,1.6032,1.6019,1.6019,1.6019,1.5861,1.5808,1.5808,1.5808,1.5808,1.5808,0.0,1.5808,1.5808,1.5808,1.5808,1.5808,1.5808,1.5808,1.5808,1.5808,1.5808,1.5781,1.5621,1.5484,1.5271,1.4856,1.471,1.4683,1.4544,1.4611,1.4736,1.487,1.503,1.52,1.5311,1.5471,1.5591,1.5591,1.5688,1.5808,1.5808,1.5675,1.5551,1.5418,1.5124,1.4794,1.4541,1.4389,1.4242,1.4129,1.5321,1.6333,1.6542,1.8155,1.9102,1.8613,1.8771,1.881,1.8594,1.8574,1.8479,1.8283,1.8264,1.8069,1.7676,1.7656,1.7539,1.7288,1.7252,1.7405,1.7656,1.7656,1.7656,1.7656,1.7656,1.7519,0.7776,0.8038,0.8208,0.8047,0.7885,0.7641,0.7173,0.7817,0.795,0.5951,0.6393,0.6781,0.5576,0.5529,0.6376,0.854,0.0,0.9781,1.1453,1.1825,1.1897,1.175,1.2019,1.2232,1.2232,1.3564,1.4513,1.4757,1.5966,1.6652,1.6531,1.6805,1.6818,1.6543,1.6401,1.6351,1.6351,1.631,1.6284,1.623,1.5952,1.5808,1.5808,1.5808,1.5808,1.5808,0.0,0.0,1.5808,1.5808,1.5808,1.5808,1.5808,1.5808,1.5808,1.5808,1.5808,1.5808,1.5808,1.5808,1.5715,1.5227,1.5039,1.5062,1.5022,1.5013,1.5093,1.5324,1.5431,1.5511,1.5741,1.5808,1.5808,1.5808,1.5808,1.5808,1.5808,1.5808,1.5728,1.5498,1.5418,1.5231,1.4701,1.4581,1.4461,1.4188,1.5076,1.561,1.5221,1.744,1.9045,1.9096,1.9153,1.919,1.9297,1.9315,1.9121,1.8715,1.8637,1.8442,1.8088,1.803,1.7991,1.7991,1.7991,1.7991,1.7991,1.7991,1.7991,1.7991,1.7991,1.7991,0.7932,0.8013,0.8047,0.7995,0.781,0.7516,0.7046,0.6722,0.0,0.0,0.5273,0.5303,0.5187,0.6243,0.7522,0.8707,0.9916,1.0674,1.0525,1.0629,1.0352,0.0,1.0496,1.1333,1.1333,1.2671,0.0,0.0,0.0,1.4451,1.5584,1.5673,1.5673,1.5637,1.6278,1.6633,1.6633,1.6417,1.6152,1.5888,1.5835,1.5808,1.5808,1.5808,1.5808,1.5808,0.0,0.0,1.5808,1.5808,1.5808,1.5808,1.5808,1.5808,1.5808,1.5808,1.5808,1.5808,1.5808,1.5808,1.5741,1.5431,1.5324,1.5307,1.5053,1.5146,1.5337,1.5378,1.5565,1.5741,1.5795,1.5808,1.5808,1.5808,1.5808,1.5808,1.5808,1.5808,1.5795,1.5741,1.5565,1.5364,1.5257,1.5066,1.4812,1.4482,1.534,1.5917,1.5631,1.6803,1.7728,1.795,1.8281,1.8695,1.9243,1.9315,1.9276,1.918,1.881,1.8559,1.85,1.8186,1.7991,1.7991,1.7991,1.7991,1.7991,1.7991,1.7991,1.7991,1.7991,1.7991,0.7898,0.8013,0.814,0.8033,0.7736,0.7348,0.6715,0.0,0.0,0.5011,0.4896,0.497,0.5209,0.5994,0.684,0.7534,0.8234,0.8746,0.8844,0.8973,0.8922,0.8633,0.9408,0.9939,0.0,1.1292,0.0,0.0,0.0,1.3588,1.4261,1.4314,1.4233,1.4049,1.5327,1.5957,1.582,1.6466,1.6685,1.6513,1.6206,1.6059,1.6059,1.5875,1.5888,1.6046,1.5875,0.0,1.6046,1.5861,1.5808,1.5808,1.5808,1.5808,1.5808,1.5808,1.5808,1.5808,1.5808,1.5808,1.5781,1.5648,1.5618,1.5568,1.5458,1.5511,1.5618,1.5618,1.5701,1.5808,1.5808,1.5808,1.5808,1.5808,1.5808,1.5808,1.5808,1.5808,1.5808,1.5808,1.5688,1.5555,1.5418,1.5284,1.5106,1.4825,1.5199,1.548,1.5346,1.5639,1.6268,1.7363,1.7662,1.7913,1.8224,1.8801,1.9051,1.8807,1.9101,1.9181,1.8966,1.8537,1.8322,1.8322,1.8108,1.7991,1.7991,1.8205,1.8205,1.8008,1.8205,1.8205,0.7851,0.8038,0.8194,0.8047,0.7655,0.7158,0.6463,0.5924,0.0,0.4824,0.4809,0.5006,0.5337,0.5593,0.5901,0.0,0.6498,0.6784,0.7455,0.776,0.8052,0.0,0.8723,0.0,0.8912,0.9939,0.0,0.0,0.0,0.0,1.2805,1.2832,1.27,1.2428,1.4083,1.4976,1.4983,1.6149,1.6858,1.7099,1.6605,1.6391,1.6391,1.6102,1.6139,1.6377,1.6126,0.0,0.0,1.6046,1.5901,1.5888,1.5835,1.5808,1.5808,1.5808,1.5808,1.5808,1.5808,1.5808,1.5808,1.5808,1.5808,1.5808,1.5808,1.5808,1.5808,1.5808,1.5808,1.5808,1.5808,1.5808,1.5808,1.5808,1.5808,1.5808,1.5808,1.5808,1.5808,1.5808,1.5808,1.5728,1.5524,1.5484,1.5391,1.512,1.5079,1.5053,1.5022,1.4763,1.5181,1.6661,1.6901,1.705,1.7273,1.8121,1.8576,1.8448,1.9145,1.9522,1.9434,1.8986,1.8695,1.8598,1.8381,1.8242,1.8127,1.8557,1.8596,1.8301,1.8615,1.8576,0.7925,0.8013,0.8033,0.7995,0.755,0.6979,0.6416,0.0,0.5283,0.4804,0.4809,0.5006,0.5337,0.5511,0.5777,0.6245,0.6525,0.6844,0.7348,0.79,0.8315,0.8492,0.0,0.0,0.8912,0.0,0.0,0.0,0.0,0.0,1.1237,1.1292,1.1283,1.1275,1.2714,1.3992,1.4983,1.5139,1.5728,1.674,1.6687,1.666,1.666,1.6633,1.6633,1.666,0.0,0.0,0.0,1.6377,1.6257,1.623,1.5915,1.5808,1.5808,1.5808,1.5808,1.5808,1.5808,1.5808,1.5808,1.5808,1.5808,1.5808,1.5808,1.5808,1.5808,1.5808,1.5808,1.5808,1.5808,1.5808,1.5808,1.5808,1.5808,1.5808,1.5808,1.5808,1.5808,1.5808,1.5808,1.5795,1.5768,1.5768,1.5675,1.5404,1.5351,1.528,1.5013,1.4959,1.5022,1.5195,1.5582,1.6232,1.7212,1.7395,1.7862,1.8863,1.8638,1.8861,1.9826,1.9453,1.9043,1.8617,1.8984,1.8984,1.8539,1.9023,1.9217,1.918,1.9219,1.9217,0.7556,0.781,0.7988,0.7988,0.7537,0.6965,0.6416,0.0,0.5296,0.4904,0.4862,0.5006,0.5337,0.5505,0.5668,0.5845,0.5974,0.6254,0.6899,0.7251,0.7685,0.8308,0.8621,0.0,0.0,0.0,0.0,0.0,0.0,0.0,0.9761,0.9781,0.9781,0.9781,1.1219,1.2198,1.2651,1.4358,1.5474,1.5926,1.6664,1.6993,1.6993,1.678,1.6807,1.6993,0.0,0.0,0.0,1.6685,1.6526,1.65,1.6206,1.6099,1.6072,1.5875,1.5808,1.5808,1.5808,1.5808,1.5808,1.5808,1.5808,1.5808,1.5808,1.5808,1.5808,1.5808,1.5808,1.5808,1.5808,1.5808,1.5808,1.5808,1.5808,1.5808,1.5808,1.5808,1.5808,1.5808,1.5808,1.5808,1.5808,1.5808,1.5768,1.5648,1.5635,1.5595,1.5498,1.5337,1.524,1.524,1.5265,1.546,1.5878,1.6326,1.6849,1.7498,1.853,1.9225,1.9563,1.9908,1.9844,1.9396,1.9336,1.9199,1.9023,1.9453,1.9531,1.9315,1.9551,1.9531,0.7197,0.7563,0.7837,0.7925,0.7432,0.6789,0.0,0.0,0.5185,0.4943,0.4903,0.5006,0.5337,0.5481,0.5539,0.5539,0.5613,0.5867,0.6505,0.6851,0.7312,0.0,0.0,0.0,0.0,0.0,0.0,0.0,0.0,0.0,0.0,0.8912,0.8912,0.8912,0.9919,1.0644,1.1109,1.3102,1.4556,1.5411,1.6246,1.6899,1.7301,1.7061,1.7074,1.7313,0.0,0.0,0.0,1.6979,1.6859,1.6794,1.6444,1.6297,1.6257,1.5915,1.5808,1.5808,1.5808,1.5808,1.5808,1.5808,1.5808,1.5808,1.5808,1.5808,1.5808,1.5808,1.5808,1.5808,1.5808,1.5808,1.5808,1.5808,1.5808,1.5808,1.5808,1.5808,1.5808,1.5808,1.5808,1.5808,1.5808,1.5808,1.5808,1.5808,1.5808,1.5808,1.5808,1.5635,1.5524,1.5524,1.5337,1.5173,1.4999,1.5477,1.6009,1.658,1.7925,1.8804,1.9051,1.982,2.0021,1.9564,1.9636,1.9628,1.9473,1.9902,1.9961,1.9686,1.998,1.9941,0.6965,0.7258,0.7471,0.774,0.7143,0.6423,0.0,0.5437,0.4909,0.4903,0.4903,0.5006,0.5337,0.5399,0.5399,0.5399,0.5627,0.5908,0.6259,0.6941,0.745,0.0,0.0,0.0,0.0,0.0,0.0,0.0,0.0,0.0,0.0,0.8912,0.8912,0.8912,0.8912,0.9616,1.1082,1.1137,1.2588,1.5384,1.5411,1.6168,1.7608,1.7595,1.7595,0.0,0.0,0.0,0.0,1.7313,1.7192,1.7139,1.6524,1.6297,1.6257,1.5915,1.5808,1.5808,1.5808,1.5808,1.5808,1.5808,1.5808,1.5808,1.5808,1.5808,1.5808,1.5808,1.5808,1.5808,1.5808,1.5808,1.5808,1.5808,1.5808,1.5808,1.5808,1.5808,1.5808,1.5808,1.5808,1.5808,1.5808,1.5808,1.5808,1.5808,1.5808,1.5808,1.5808,1.5808,1.5808,1.5808,1.5795,1.5591,1.5062,1.5008,1.5473,1.6529,1.6602,1.7106,1.817,1.8984,1.9194,1.872,1.9943,2.0351,1.9883,2.0371,2.0586,2.0586,2.0586,2.0586,0.5949,0.6186,0.6349,0.6525,0.6152,0.5654,0.5322,0.499,0.4762,0.4762,0.4835,0.5006,0.5337,0.5392,0.5433,0.5518,0.5613,0.5818,0.0,0.0,0.0,0.7692,0.8506,0.0,0.0,0.0,0.0,0.0,0.0,0.0,0.0,0.8912,0.8912,0.8912,0.8912,0.9127,0.9588,1.059,1.2046,1.3992,1.4931,1.6168,1.7608,1.7608,0.0,0.0,0.0,0.0,0.0,1.7515,1.738,1.7166,1.6739,1.6471,1.6257,1.5915,1.5808,1.5808,1.5808,1.5808,1.5808,1.5808,1.5808,1.5808,1.5808,1.5808,1.5808,1.5808,1.5808,1.5808,1.5808,1.5808,1.5808,1.5808,1.5808,1.5808,1.5808,1.5808,1.5808,1.5808,1.5808,1.5808,1.5808,1.5808,1.5808,1.5808,1.5808,1.5808,1.5808,1.5808,1.5808,1.5808,1.5808,1.5728,1.5565,1.5378,1.5498,1.6012,1.6671,1.7123,1.7369,1.8939,1.9752,1.9606,2.0246,2.0664,2.0801,2.0664,2.0605,2.0605,2.0605,2.0605,0.5135,0.544,0.5579,0.5795,0.5481,0.0,0.4877,0.4626,0.4484,0.4668,0.4769,0.4938,0.533,0.5392,0.5446,0.5579,0.5607,0.0,0.0,0.0,0.0,0.7902,0.0,0.0,0.0,0.0,0.0,0.0,0.0,0.0,0.0,0.8912,0.8912,0.8912,0.8912,0.8912,0.8912,0.9809,1.1,1.248,1.3911,1.537,1.679,1.7345,0.0,0.0,0.0,0.0,0.0,1.7608,1.7434,1.7166,1.682,1.6526,1.6257,1.5915,1.5808,1.5808,1.5808,1.5808,1.5808,1.5808,1.5808,1.5808,1.5808,1.5808,1.5821,1.5941,1.5888,1.5835,1.5965,1.5888,1.5808,1.5808,1.5808,1.5808,1.5808,1.5808,1.5808,1.5808,1.5808,1.5808,1.5808,1.5808,1.5808,1.5808,1.5808,1.5808,1.5808,1.5808,1.5808,1.5808,1.5808,1.5808,1.5808,1.5635,1.5608,1.5795,1.6355,1.6621,1.6567,1.8052,1.9082,1.9536,2.0085,2.073,2.1464,2.1211,2.1094,2.1094,2.1094,2.1094,0.0,0.4867,0.5049,0.5386,0.5049,0.4627,0.4627,0.4307,0.0,0.4572,0.4687,0.4851,0.5296,0.5399,0.546,0.5586,0.5634,0.0,0.0,0.6681,0.0,0.0,0.0,0.0,0.0,0.0,0.0,0.0,0.0,0.0,0.0,0.8912,0.8912,0.8912,0.8912,0.8912,0.8912,0.8912,0.9644,1.1109,1.248,1.3884,1.5304,1.6658,0.0,0.0,0.0,0.0,0.0,1.7384,1.7278,1.7012,1.6795,1.6526,1.6257,1.5915,1.5808,1.5808,1.5808,1.5808,1.5808,1.5808,1.5808,1.5808,1.5808,1.5808,1.5861,1.6217,1.6059,1.5875,1.6217,1.6046,1.5808,1.5808,1.5808,1.5808,1.5808,1.5808,1.5808,1.5835,1.5821,1.5808,1.5835,1.5835,1.5835,1.5835,1.5835,1.5835,1.5835,1.5821,1.5808,1.5808,1.5808,1.5808,1.5808,1.5808,1.5808,1.5808,1.5808,1.5808,1.5808,1.6575,1.7544,1.8696,1.9596,2.065,2.1915,2.1915,2.1915,2.1915,2.1915,2.1915,0.3418,0.0,0.3804,0.4138,0.4042,0.3863,0.0,0.3934,0.4058,0.4281,0.4597,0.4916,0.5126,0.5379,0.5566,0.56,0.0,0.0,0.6286,0.0,0.0,0.0,0.0,0.0,0.0,0.0,0.0,0.0,0.0,0.0,0.0,0.8912,0.8912,0.8912,0.8912,0.8912,0.8912,0.8912,0.9644,1.1109,1.1456,1.2371,1.3804,1.4153,0.0,0.0,0.0,0.0,1.4395,1.5476,1.5771,1.5594,1.6378,1.6526,1.6257,1.5915,1.5808,1.5808,1.5808,1.5808,1.5808,1.5808,1.5808,1.5808,1.5808,1.5808,1.5861,1.6217,1.6059,1.5875,1.6217,1.6046,1.5808,1.5808,1.5808,1.5808,1.5808,1.5808,1.5875,1.6126,1.5979,1.5875,1.6126,1.6166,1.6166,1.6166,1.6166,1.6166,1.6166,1.5965,1.5808,1.5808,1.5808,1.5808,1.5808,1.5808,1.5808,1.5808,1.5808,1.5808,1.5808,1.6575,1.7303,1.7942,1.966,2.0988,2.1915,2.1915,2.1915,2.1915,2.1915,2.1915,0.2975,0.3216,0.3482,0.3667,0.3695,0.3688,0.3688,0.3751,0.3868,0.4072,0.4355,0.4685,0.5036,0.5247,0.5494,0.5858,0.6143,0.0,0.0,0.0,0.0,0.0,0.0,0.0,0.0,0.0,0.0,0.0,0.0,0.0,0.0,0.8912,0.8912,0.8912,0.8912,0.8912,0.8912,0.8912,0.9292,1.0104,1.0781,1.151,1.2326,1.2994,0.0,0.0,0.0,0.0,1.3372,1.4126,1.465,1.5038,1.5504,1.5943,1.6257,1.5915,1.5808,1.5808,1.5808,1.5808,1.5808,1.5808,1.5808,1.5808,1.5808,1.5901,1.6099,1.6417,1.6353,1.6248,1.6433,1.6246,1.6005,1.5835,1.5808,1.5808,1.5808,1.5915,1.6086,1.627,1.6139,1.6086,1.627,1.6297,1.6244,1.6086,1.6203,1.6244,1.6086,1.5901,1.5808,1.5808,1.5808,1.5808,1.5808,1.5808,1.5808,1.5808,1.5808,1.5808,1.5808,1.622,1.7098,1.8503,2.0152,2.1454,2.244,2.244,2.244,2.244,2.1869,2.1634,0.2896,0.3256,0.3597,0.3559,0.3701,0.3826,0.3826,0.3783,0.3797,0.4023,0.422,0.4496,0.5009,0.5191,0.0,0.0,0.0,0.0,0.755,0.7918,0.0,0.0,0.0,0.0,0.0,0.0,0.0,0.0,0.0,0.0,0.0,0.8912,0.8912,0.8912,0.8912,0.8899,0.8879,0.8899,0.8912,0.8912,1.0159,1.0754,1.0809,1.2055,1.2615,0.0,0.0,0.0,1.2642,1.2859,1.364,1.4648,1.4549,1.5233,1.6257,1.5915,1.5808,1.5808,1.5808,1.5808,1.5808,1.5808,1.5835,1.5875,1.5875,1.6139,1.6484,1.67,1.674,1.67,1.67,1.6526,1.6284,1.5941,1.5901,1.5941,1.5941,1.6126,1.6324,1.6417,1.6324,1.627,1.6404,1.6391,1.6297,1.6059,1.627,1.6337,1.6035,1.5968,1.5941,1.5941,1.5941,1.5941,1.5941,1.5901,1.5875,1.5875,1.5835,1.5808,1.5808,1.5808,1.6889,1.9177,2.0409,2.1614,2.284,2.2994,2.3101,2.3079,2.1876,2.1302,0.3002,0.3331,0.3559,0.3387,0.366,0.3969,0.3969,0.4178,0.4368,0.4409,0.4714,0.4988,0.5083,0.5657,0.6163,0.0,0.0,0.7403,0.0,0.0,0.0,0.0,0.0,0.0,0.0,0.0,0.0,0.0,0.0,0.0,0.0,0.0,0.8912,0.8912,0.8912,0.8852,0.8723,0.8845,0.8912,0.8912,0.9127,0.9237,0.9237,0.9478,0.9561,0.0,0.0,0.9561,0.9671,1.0918,1.2124,1.3226,1.4128,1.5233,1.6257,1.5915,1.5808,1.5808,1.5808,1.5808,1.5808,1.5808,1.6005,1.623,1.623,1.6605,1.7072,1.7125,1.6926,1.67,1.67,1.6673,1.6567,1.6297,1.6393,1.6567,1.6567,1.6406,1.6444,1.6965,1.6406,1.6139,1.6913,1.6832,1.6714,1.6939,1.7032,1.7045,1.7005,1.6752,1.6567,1.6567,1.6567,1.6567,1.6567,1.6353,1.623,1.623,1.5965,1.5808,1.5808,1.5808,1.6504,1.7963,1.9154,2.0364,2.1569,2.2602,2.3101,2.3079,2.1876,2.1302,0.2849,0.3151,0.3449,0.3462,0.3789,0.4106,0.4106,0.422,0.4395,0.4566,0.4877,0.517,0.543,0.0,0.6457,0.6927,0.0,0.0,0.0,0.0,0.0,0.0,0.0,0.0,0.0,0.0,0.0,0.0,0.0,0.0,0.0,0.0,0.8872,0.8791,0.8865,0.8838,0.871,0.8831,0.8872,0.8791,0.8791,0.8831,0.8906,0.8825,0.8831,0.8912,0.0,0.8912,0.8961,0.9548,1.0987,1.2822,1.3144,1.449,1.6257,1.5915,1.5808,1.5808,1.5808,1.5915,1.6072,1.6072,1.6273,1.6513,1.6513,1.6832,1.7206,1.7206,1.7193,1.7141,1.7006,1.6966,1.6899,1.6605,1.6607,1.67,1.67,1.6752,1.6884,1.7152,1.6846,1.6698,1.7125,1.706,1.6966,1.6939,1.7073,1.7139,1.6953,1.6794,1.67,1.67,1.67,1.6647,1.6511,1.6486,1.6366,1.6059,1.5875,1.5808,1.5808,1.5808,1.641,1.7684,1.8226,1.9108,2.0336,2.0877,2.1145,2.1123,1.9929,1.936,0.2824,0.3067,0.3363,0.3629,0.3983,0.4314,0.4496,0.4543,0.4678,0.504,0.5318,0.5586,0.5949,0.6341,0.0,0.7577,0.8052,0.0,0.0,0.0,0.0,0.0,0.0,0.0,0.0,0.0,0.0,0.0,0.0,0.0,0.0,0.0,0.8825,0.8662,0.8777,0.877,0.8608,0.873,0.8784,0.8737,0.873,0.8743,0.8852,0.8723,0.8723,0.8804,0.8845,0.8858,0.8852,0.877,1.0126,1.2245,1.2247,1.3851,1.6139,1.5888,1.5808,1.5821,1.5888,1.6086,1.631,1.6377,1.6605,1.6807,1.6807,1.7046,1.73,1.73,1.7434,1.7541,1.7273,1.7246,1.7207,1.6874,1.686,1.6914,1.6914,1.706,1.7219,1.7286,1.7192,1.7139,1.7286,1.7246,1.7113,1.6941,1.7127,1.7193,1.6941,1.6914,1.6914,1.6914,1.6914,1.6794,1.6524,1.6712,1.6553,1.5965,1.5915,1.5875,1.5808,1.5808,1.6244,1.7255,1.7544,1.8133,1.9085,1.936,1.9497,1.9474,1.8249,1.7684,0.3189,0.3283,0.341,0.3856,0.4232,0.4662,0.5348,0.5596,0.5813,0.6273,0.6491,0.66,0.6627,0.7109,0.7611,0.7925,0.8269,0.0,0.0,0.0,0.0,0.0,0.0,0.0,0.0,0.0,0.0,0.0,0.0,0.0,0.0,0.0,0.0,0.8532,0.8648,0.8587,0.8328,0.8471,0.8655,0.8892,0.875,0.8716,0.8723,0.8567,0.8532,0.8546,0.8662,0.8723,0.871,0.8838,0.9554,1.069,1.1904,1.3809,1.5835,1.5808,1.5808,1.5848,1.6163,1.6284,1.6337,1.658,1.6899,1.7166,1.7166,1.7354,1.7582,1.7582,1.7595,1.7541,1.7273,1.7367,1.7501,1.7233,1.7354,1.7541,1.7541,1.7354,1.7286,1.7528,1.7114,1.6914,1.7462,1.7354,1.7286,1.7501,1.7568,1.7568,1.7541,1.7541,1.7541,1.7541,1.7541,1.7421,1.7166,1.7152,1.6924,1.631,1.627,1.6112,1.5821,1.5808,1.5855,1.5913,1.71,1.7731,1.7824,1.8948,1.9497,1.9474,1.8249,1.7684,0.3027,0.3323,0.3719,0.4198,0.4689,0.5126,0.5419,0.5705,0.6079,0.6641,0.685,0.7039,0.7339,0.0,0.7918,0.8147,0.0,0.0,0.0,0.0,0.0,0.0,0.0,0.0,0.0,0.0,0.0,0.0,0.0,0.0,0.0,0.0,0.0,0.8383,0.8519,0.8498,0.8301,0.8437,0.854,0.8655,0.8506,0.8486,0.856,0.8444,0.8478,0.8628,0.8682,0.8737,0.8825,0.8784,0.9504,1.0791,1.2941,1.4236,1.4996,1.6006,1.6355,1.6393,1.65,1.6685,1.6884,1.6966,1.7207,1.7448,1.7448,1.7528,1.7608,1.7608,1.7608,1.7582,1.7474,1.7528,1.7582,1.7474,1.7528,1.7608,1.7608,1.7528,1.7474,1.7582,1.7434,1.7328,1.7568,1.7515,1.7488,1.7595,1.7608,1.7608,1.7608,1.7608,1.7608,1.7608,1.7448,1.7367,1.7434,1.73,1.7112,1.6884,1.6498,1.6139,1.5821,1.5808,1.5808,1.5808,1.6268,1.6527,1.6527,1.6983,1.7203,1.7179,1.6725,1.6527,0.2901,0.331,0.3844,0.4293,0.4933,0.5528,0.5749,0.6057,0.6478,0.7121,0.7371,0.7553,0.781,0.0,0.0,0.0,0.0,0.0,0.0,0.0,0.0,0.0,0.0,0.0,0.0,0.0,0.0,0.0,0.0,0.0,0.0,0.0,0.0,0.0,0.8362,0.8369,0.8201,0.8296,0.8343,0.8343,0.8241,0.8301,0.8437,0.8262,0.8309,0.8473,0.8547,0.8655,0.8757,0.8682,0.9428,1.0773,1.2526,1.3682,1.4501,1.5607,1.6299,1.6727,1.6807,1.7006,1.7219,1.7313,1.7448,1.7608,1.7608,1.7608,1.7608,1.7608,1.7608,1.7608,1.7608,1.7608,1.7608,1.7608,1.7608,1.7608,1.7608,1.7608,1.7608,1.7608,1.7608,1.7608,1.7608,1.7608,1.7608,1.7608,1.7608,1.7608,1.7608,1.7608,1.7608,1.7608,1.7434,1.7394,1.7595,1.7421,1.73,1.7206,1.6712,1.6273,1.5979,1.5848,1.5808,1.5808,1.5808,1.5808,1.5808,1.5808,1.5808,1.5808,1.5808,1.5808,0.2908,0.3252,0.3708,0.4106,0.4923,0.5793,0.6532,0.6803,0.7121,0.7833,0.816,0.8247,0.804,0.7988,0.0,0.0,0.0,0.0,0.0,0.0,0.0,0.0,0.0,0.0,0.0,0.0,0.0,0.0,0.0,0.0,0.0,0.0,0.0,0.0,0.8187,0.8194,0.7988,0.7988,0.7988,0.7988,0.7988,0.8094,0.8287,0.8081,0.7988,0.8027,0.8208,0.8376,0.8505,0.8505,0.9231,1.0371,1.0264,1.1966,1.4496,1.4521,1.5456,1.6754,1.7073,1.7206,1.7246,1.7515,1.7608,1.7608,1.7608,1.7608,1.7608,1.7608,1.7608,1.7608,1.7608,1.7608,1.7608,1.7608,1.7608,1.7608,1.7608,1.7608,1.7608,1.7608,1.7608,1.7608,1.7608,1.7608,1.7608,1.7608,1.7608,1.7608,1.7608,1.7608,1.7608,1.7608,1.7608,1.7608,1.7608,1.7608,1.7488,1.7219,1.6899,1.658,1.631,1.5992,1.5808,1.5808,1.5808,1.5808,1.5808,1.5808,1.5808,1.5808,1.5808,1.5808,0.3422,0.3808,0.4389,0.5026,0.5647,0.6246,0.6843,0.7004,0.7186,0.7743,0.8167,0.8343,0.806,0.8126,0.0,0.0,0.0,0.0,0.0,0.0,0.0,0.0,0.0,0.0,0.0,0.0,0.0,0.0,0.0,0.0,0.0,0.0,0.0,0.0,0.806,0.806,0.7988,0.7988,0.7988,0.7988,0.7988,0.804,0.8081,0.8033,0.8074,0.8208,0.8274,0.8376,0.8505,0.8505,0.8652,0.9135,1.1321,1.2626,1.3572,1.5851,1.6951,1.7354,1.7448,1.7474,1.7488,1.7582,1.7608,1.7608,1.7608,1.7608,1.7608,1.7608,1.7608,1.7608,1.7608,1.7742,1.7822,1.7635,1.7608,1.7608,1.7608,1.7608,1.7608,1.7608,1.7608,1.7649,1.7849,1.7729,1.7662,1.7849,1.7716,1.7608,1.7608,1.7608,1.7608,1.7608,1.7608,1.7608,1.7608,1.7608,1.7568,1.7488,1.7207,1.6819,1.6324,1.6217,1.6046,1.5808,1.6032,1.6046,1.5808,1.5808,1.5808,1.5808,1.5808,1.5808,0.3419,0.3974,0.4737,0.5355,0.5988,0.6614,0.7161,0.7391,0.7587,0.7997,0.8248,0.8383,0.8235,0.8194,0.0,0.0,0.0,0.0,0.0,0.0,0.0,0.0,0.0,0.0,0.0,0.0,0.0,0.0,0.0,0.0,0.0,0.0,0.0,0.0,0.7988,0.7988,0.7988,0.7988,0.7988,0.7988,0.7988,0.7988,0.7988,0.7988,0.8067,0.818,0.8267,0.8308,0.8309,0.8396,0.8376,0.8487,1.0388,1.1787,1.2982,1.5027,1.6493,1.7448,1.7568,1.7608,1.7608,1.7608,1.7608,1.7608,1.7608,1.7608,1.7608,1.7608,1.7608,1.7608,1.7608,1.7782,1.7942,1.7662,1.7769,1.7903,1.7662,1.7675,1.7729,1.7609,1.7608,1.7649,1.7796,1.7702,1.7649,1.7836,1.7702,1.7608,1.7608,1.7608,1.7608,1.7608,1.7608,1.7608,1.7608,1.7608,1.7608,1.7608,1.7367,1.7045,1.6658,1.6538,1.6313,1.6005,1.6299,1.6299,1.6005,1.6005,1.6005,1.6005,1.5861,1.5808,0.3195,0.3929,0.4831,0.5365,0.6158,0.6946,0.7509,0.7824,0.8088,0.837,0.0,0.8349,0.8451,0.8235,0.0,0.0,0.0,0.0,0.0,0.0,0.0,0.0,0.0,0.0,0.0,0.0,0.0,0.0,0.0,0.0,0.0,0.0,0.0,0.0,0.7988,0.7988,0.7988,0.7988,0.7988,0.0,0.7988,0.7988,0.7988,0.7988,0.7988,0.802,0.8187,0.8167,0.8027,0.8187,0.8274,0.8274,0.8441,1.0101,1.2469,1.2966,1.4714,1.6872,1.7239,1.7292,1.7199,1.7199,1.7305,1.7384,1.7384,1.7503,1.7608,1.7608,1.7608,1.7622,1.7622,1.7809,1.7942,1.7689,1.805,1.8303,1.7742,1.7796,1.7889,1.7662,1.7608,1.7622,1.7622,1.7622,1.7608,1.7608,1.7608,1.7608,1.7608,1.7608,1.7608,1.7608,1.7608,1.7608,1.7608,1.7608,1.7608,1.7608,1.7354,1.7246,1.7246,1.6926,1.6607,1.6351,1.6593,1.6593,1.6297,1.6297,1.6284,1.6244,1.5928,1.5808,0.3904,0.4328,0.4953,0.5994,0.6912,0.7614,0.7864,0.7966,0.8,0.7963,0.8214,0.8377,0.8148,0.0,0.0,0.0,0.0,0.0,0.0,0.0,0.0,0.0,0.0,0.0,0.0,0.0,0.0,0.0,0.0,0.0,0.0,0.0,0.0,0.7988,0.7988,0.7988,0.7988,0.7988,0.7988,0.0,0.7988,0.7988,0.7988,0.7988,0.7988,0.7988,0.8047,0.8047,0.7988,0.8047,0.8067,0.8199,0.9441,1.0323,1.1162,1.3532,1.4204,1.4059,1.5172,1.4956,1.4207,1.4207,1.4957,1.5876,1.5876,1.6684,1.7608,1.7608,1.7608,1.7635,1.7849,1.7969,1.7996,1.7929,1.8022,1.8076,1.7942,1.7782,1.7662,1.7622,1.7608,1.7662,1.7876,1.7742,1.7608,1.7608,1.7608,1.7608,1.7608,1.7608,1.7608,1.7608,1.7608,1.7608,1.7608,1.7608,1.7608,1.7608,1.7555,1.7515,1.7515,1.7234,1.6939,1.662,1.6926,1.6819,1.6297,1.6297,1.6152,1.5901,1.5835,1.5808,0.4031,0.4483,0.5203,0.6478,0.7305,0.7824,0.7979,0.7988,0.7993,0.7912,0.8081,0.8241,0.0,0.0,0.0,0.0,0.0,0.0,0.0,0.0,0.0,0.0,0.0,0.0,0.0,0.0,0.0,0.0,0.0,0.0,0.0,0.7988,0.7988,0.7988,0.7988,0.7988,0.7988,0.7988,0.7988,0.7988,0.7988,0.7988,0.7988,0.7988,0.7988,0.7988,0.7988,0.7988,0.7988,0.7988,0.7988,0.8095,0.8914,0.9646,1.0412,1.2078,1.2695,1.2854,1.3737,1.3636,1.3176,1.3278,1.3804,1.4529,1.5198,1.5929,1.6684,1.7384,1.7608,1.7622,1.7782,1.7902,1.7995,1.7995,1.8129,1.8156,1.7862,1.7782,1.7756,1.7609,1.7608,1.7635,1.7769,1.7689,1.7608,1.7608,1.7608,1.7608,1.7608,1.7608,1.7608,1.7608,1.7608,1.7608,1.7608,1.7608,1.7608,1.7608,1.7608,1.7608,1.7608,1.7461,1.7247,1.6953,1.7234,1.7167,1.6712,1.6578,1.6406,1.6222,1.6099,1.6046,0.3922,0.4605,0.5508,0.6748,0.7398,0.778,0.7939,0.7973,0.7986,0.7982,0.7988,0.8054,0.0,0.0,0.0,0.0,0.0,0.0,0.0,0.0,0.0,0.0,0.0,0.0,0.0,0.0,0.0,0.0,0.0,0.0,0.7988,0.7988,0.7988,0.7988,0.7988,0.7988,0.7988,0.7988,0.7988,0.7988,0.7988,0.7988,0.7988,0.7988,0.7988,0.7988,0.7988,0.7988,0.7988,0.7988,0.7988,0.7988,0.7988,0.8676,0.9698,1.0171,1.0927,1.1781,1.2326,1.2388,1.23,1.2446,1.2695,1.3183,1.4609,1.5198,1.5716,1.7173,1.7608,1.7622,1.7649,1.7782,1.7956,1.7982,1.8196,1.821,1.7756,1.7822,1.7862,1.7635,1.7608,1.7608,1.7608,1.7608,1.7608,1.7608,1.7608,1.7608,1.7608,1.7608,1.7608,1.7608,1.7608,1.7608,1.7608,1.7608,1.7608,1.7608,1.7608,1.7608,1.7608,1.7608,1.7501,1.7286,1.7488,1.7448,1.71,1.6899,1.6727,1.662,1.6404,1.6324,0.3876,0.4835,0.5915,0.6728,0.7197,0.7525,0.778,0.7817,0.7858,0.0,0.7988,0.0,0.0,0.0,0.0,0.0,0.0,0.0,0.0,0.0,0.0,0.0,0.0,0.0,0.0,0.0,0.0,0.0,0.0,0.0,0.7988,0.7988,0.7988,0.7988,0.7988,0.7988,0.7988,0.7988,0.7988,0.7988,0.7988,0.7988,0.7988,0.7988,0.7988,0.7988,0.7988,0.7988,0.7988,0.7988,0.7988,0.7988,0.7988,0.8113,0.8411,0.9607,0.9546,0.9002,1.0171,1.0006,0.9267,0.9316,1.0252,1.1674,1.3129,1.4422,1.5716,1.7173,1.7608,1.7649,1.7889,1.7782,1.7716,1.7929,1.7876,1.7756,1.7916,1.7782,1.7635,1.7622,1.7608,1.7608,1.7608,1.7608,1.7608,1.7608,1.7608,1.7608,1.7608,1.7608,1.7608,1.7608,1.7608,1.7608,1.7608,1.7608,1.7608,1.7608,1.7608,1.7608,1.7608,1.7608,1.7595,1.7555,1.7595,1.7341,1.6767,1.7006,1.6846,1.6351,1.631,1.6431,0.3876,0.4769,0.5709,0.6262,0.6715,0.7117,0.7475,0.7563,0.7611,0.7736,0.0,0.0,0.0,0.0,0.0,0.0,0.0,0.0,0.0,0.0,0.0,0.0,0.0,0.0,0.0,0.0,0.0,0.0,0.0,0.7851,0.777,0.777,0.777,0.777,0.777,0.777,0.777,0.777,0.777,0.777,0.7851,0.7885,0.7891,0.7973,0.7988,0.7988,0.7988,0.7988,0.7988,0.7988,0.7988,0.7988,0.7988,0.7988,0.8063,0.8651,0.8553,0.8229,0.8914,0.8891,0.8594,0.8682,0.924,1.0296,1.2588,1.3723,1.469,1.6962,1.7608,1.7635,1.7756,1.7689,1.7622,1.7756,1.7689,1.7622,1.7756,1.7675,1.7608,1.7608,1.7608,1.7635,1.7809,1.7702,1.7649,1.7782,1.7689,1.7608,1.7608,1.7608,1.7608,1.7608,1.7608,1.7608,1.7608,1.7608,1.7608,1.7608,1.7608,1.7608,1.7608,1.7608,1.7608,1.7608,1.7608,1.7474,1.7194,1.7193,1.7072,1.6817,1.6817,1.6884,0.393,0.4592,0.5289,0.5768,0.6181,0.66,0.711,0.0,0.7335,0.0,0.0,0.0,0.0,0.0,0.0,0.0,0.0,0.0,0.0,0.0,0.0,0.0,0.0,0.0,0.0,0.0,0.0,0.0,0.0,0.7712,0.7604,0.7597,0.7597,0.7597,0.7597,0.7597,0.7597,0.7597,0.7597,0.7604,0.7746,0.7794,0.7767,0.7925,0.7993,0.7959,0.8,0.7988,0.7988,0.7988,0.7988,0.7988,0.7988,0.7988,0.7988,0.7988,0.7988,0.8033,0.8174,0.8335,0.8471,0.856,0.8696,0.9338,1.1918,1.2982,1.3831,1.634,1.7305,1.7608,1.7608,1.7608,1.7608,1.7608,1.7608,1.7608,1.7608,1.7608,1.7608,1.7608,1.7608,1.7662,1.7862,1.7729,1.7689,1.7969,1.7822,1.7702,1.7702,1.7702,1.7689,1.7622,1.7608,1.7608,1.7608,1.7608,1.7608,1.7608,1.7608,1.7608,1.7608,1.7608,1.7608,1.7608,1.7608,1.7568,1.7501,1.738,1.7273,1.7206,1.7206,1.7246,0.4079,0.4368,0.4716,0.5443,0.5732,0.6003,0.66,0.0,0.7012,0.0,0.0,0.0,0.0,0.0,0.0,0.0,0.0,0.0,0.0,0.0,0.0,0.0,0.0,0.0,0.0,0.0,0.0,0.0,0.0,0.7604,0.7597,0.7597,0.7597,0.7597,0.7597,0.7597,0.7597,0.7597,0.7597,0.7604,0.7746,0.774,0.7617,0.7885,0.7939,0.7804,0.7952,0.7988,0.7988,0.7988,0.7988,0.7988,0.7988,0.7988,0.7988,0.7988,0.7988,0.7988,0.8027,0.8153,0.8308,0.8315,0.8486,0.8986,1.0545,1.2086,1.3615,1.5091,1.6525,1.7608,1.7608,1.7608,1.7608,1.7608,1.7608,1.7608,1.7608,1.7608,1.7608,1.7608,1.7608,1.7608,1.7635,1.7622,1.7689,1.7969,1.7982,1.7969,1.7969,1.7982,1.7889,1.7635,1.7608,1.7608,1.7608,1.7608,1.7608,1.7608,1.7608,1.7608,1.7608,1.7608,1.7608,1.7608,1.7608,1.7474,1.7219,1.7461,1.7448,1.7206,1.7206,1.7353,0.3887,0.4125,0.4395,0.479,0.5069,0.5302,0.5606,0.5937,0.6241,0.0,0.0,0.0,0.0,0.0,0.0,0.0,0.0,0.0,0.0,0.0,0.0,0.0,0.0,0.0,0.0,0.0,0.0,0.0,0.0,0.0,0.729,0.7283,0.7283,0.7283,0.7283,0.7283,0.7283,0.7283,0.7283,0.7283,0.7455,0.7556,0.7604,0.7776,0.7891,0.7939,0.7993,0.7988,0.7988,0.7988,0.7988,0.7988,0.7988,0.7988,0.7988,0.7988,0.7988,0.7988,0.7988,0.814,0.8294,0.8294,0.9112,1.0377,1.1822,1.3375,1.4957,1.6393,1.7199,1.7608,1.7608,1.7608,1.7608,1.7608,1.7608,1.7662,1.7809,1.7716,1.7608,1.7608,1.7608,1.7729,1.8103,1.8009,1.8022,1.8503,1.8423,1.833,1.833,1.8129,1.7969,1.7862,1.7702,1.7608,1.7608,1.7608,1.7608,1.7608,1.7608,1.7608,1.7608,1.7608,1.7608,1.7608,1.7608,1.7555,1.7448,1.7555,1.7555,1.7448,1.7448,1.7501,0.3895,0.4065,0.424,0.4457,0.4668,0.4848,0.4943,0.0,0.5772,0.0,0.0,0.0,0.0,0.0,0.0,0.0,0.0,0.0,0.0,0.0,0.0,0.0,0.0,0.0,0.0,0.0,0.0,0.0,0.0,0.0,0.7098,0.7098,0.7098,0.7098,0.7098,0.7098,0.7098,0.7098,0.7098,0.7098,0.7299,0.7444,0.7529,0.7726,0.7844,0.7939,0.7993,0.7988,0.7988,0.7988,0.7988,0.7988,0.7988,0.7988,0.7988,0.7988,0.7988,0.7988,0.7988,0.8081,0.8194,0.8194,0.9021,1.0207,1.1177,1.2945,1.4817,1.5852,1.6856,1.7608,1.7608,1.7608,1.7608,1.7608,1.7662,1.7796,1.7969,1.7782,1.7635,1.7716,1.7649,1.7769,1.825,1.8156,1.8195,1.881,1.8758,1.8637,1.8637,1.8436,1.8209,1.8009,1.7836,1.7702,1.7622,1.7608,1.7608,1.7608,1.7608,1.7608,1.7608,1.7608,1.7608,1.7608,1.7608,1.7608,1.7608,1.7608,1.7608,1.7608,1.7608,1.7608,0.0,0.0,0.0,0.0,0.0,0.0,0.4688,0.0,0.5613,0.0,0.0,0.0,0.0,0.0,0.0,0.0,0.0,0.0,0.0,0.0,0.0,0.0,0.0,0.0,0.0,0.0,0.0,0.0,0.0,0.7098,0.7098,0.7098,0.7098,0.7098,0.7098,0.7098,0.7098,0.7098,0.7098,0.7098,0.7292,0.7389,0.7403,0.7672,0.7807,0.7797,0.7946,0.7988,0.7988,0.7988,0.7988,0.7988,0.7988,0.7988,0.7988,0.7988,0.7988,0.7988,0.7988,0.7988,0.7988,0.7995,0.8172,0.8398,0.8523,1.0678,1.3103,1.3311,1.5423,1.7608,1.7608,1.7608,1.7608,1.7622,1.7796,1.7995,1.8009,1.7836,1.7702,1.7969,1.7809,1.7702,1.7982,1.8009,1.8236,1.8823,1.8903,1.8903,1.8903,1.8903,1.8676,1.8075,1.8009,1.7902,1.7662,1.7622,1.7608,1.7622,1.7608,1.7608,1.7608,1.7608,1.7608,1.7608,1.7608,1.7608,1.7608,1.7608,1.7608,1.7608,1.7608,1.7608,0.4348,0.0,0.0,0.0,0.0,0.0,0.0,0.0,0.0,0.0,0.0,0.0,0.0,0.0,0.0,0.0,0.0,0.0,0.0,0.0,0.0,0.0,0.0,0.0,0.0,0.0,0.0,0.0,0.7087,0.7098,0.7098,0.7098,0.7098,0.7098,0.7098,0.7098,0.7098,0.7098,0.7098,0.7098,0.7161,0.7265,0.7403,0.757,0.7712,0.7797,0.7946,0.7988,0.7988,0.7988,0.7988,0.7988,0.7988,0.7988,0.7988,0.7988,0.7988,0.7988,0.7988,0.7988,0.8033,0.8174,0.8932,0.9882,1.0154,1.2286,1.4623,1.4782,1.6154,1.7608,1.7608,1.7608,1.7635,1.7836,1.7956,1.8115,1.8556,1.845,1.8196,1.8022,1.8156,1.8263,1.8357,1.8516,1.8783,1.9185,1.9267,1.9267,1.9267,1.9052,1.8836,1.8663,1.8276,1.8076,1.8223,1.7862,1.7675,1.7876,1.7702,1.7608,1.7608,1.7608,1.7608,1.7608,1.7608,1.7608,1.7608,1.7608,1.7608,1.7608,1.7608,1.7608,0.0,0.0,0.0,0.0,0.0,0.0,0.3942,0.4158,0.0,0.0,0.0,0.0,0.0,0.0,0.0,0.0,0.0,0.0,0.0,0.0,0.0,0.0,0.0,0.0,0.0,0.0,0.0,0.6809,0.6945,0.7038,0.7092,0.7098,0.7098,0.7098,0.7038,0.7038,0.7098,0.7038,0.7038,0.7098,0.7098,0.7235,0.7491,0.7556,0.7712,0.7885,0.7973,0.7988,0.7988,0.7988,0.7988,0.7988,0.7988,0.7988,0.7988,0.7988,0.7988,0.7988,0.7988,0.7988,0.8027,0.8147,0.8791,0.9576,0.9815,1.1942,1.4324,1.4489,1.6009,1.7608,1.7608,1.7608,1.7622,1.7809,1.7929,1.8089,1.8463,1.8517,1.8477,1.8396,1.8423,1.8531,1.8651,1.8811,1.9025,1.9348,1.9401,1.9401,1.9401,1.9212,1.9065,1.8903,1.8583,1.8356,1.8317,1.7983,1.7796,1.7822,1.7689,1.7608,1.7608,1.7608,1.7608,1.7608,1.7608,1.7608,1.7608,1.7608,1.7608,1.7608,1.7608,1.7608,0.0,0.0,0.0,0.0,0.0,0.0,0.3934,0.4051,0.4294,0.0,0.0,0.0,0.0,0.0,0.0,0.0,0.0,0.0,0.0,0.0,0.0,0.0,0.0,0.0,0.0,0.6675,0.6675,0.6675,0.6809,0.6951,0.7045,0.7065,0.7071,0.7071,0.6972,0.6957,0.7092,0.697,0.697,0.7098,0.7098,0.7269,0.7577,0.759,0.7729,0.7993,0.7982,0.7988,0.7988,0.7988,0.7988,0.7988,0.7988,0.7988,0.7988,0.7988,0.7988,0.7988,0.7988,0.7988,0.7995,0.8033,0.8147,0.8301,0.8478,1.0617,1.3099,1.3623,1.561,1.7608,1.7608,1.7608,1.7622,1.7648,1.7822,1.7995,1.8063,1.8276,1.8571,1.8796,1.8691,1.8611,1.881,1.8903,1.9065,1.9361,1.9401,1.9401,1.9401,1.9401,1.9294,1.8998,1.8916,1.8703,1.8209,1.8049,1.7916,1.7702,1.7648,1.7608,1.7608,1.7608,1.7608,1.7608,1.7608,1.7595,1.7635,1.7595,1.7608,1.7608,1.7608,1.7608,0.0,0.0,0.0,0.0,0.0,0.0,0.4402,0.4274,0.4328,0.0,0.0,0.0,0.0,0.0,0.0,0.0,0.0,0.0,0.0,0.0,0.0,0.0,0.0,0.0,0.0,0.6539,0.6539,0.6539,0.677,0.6864,0.679,0.6884,0.6945,0.6945,0.6924,0.6957,0.7092,0.7065,0.7065,0.7098,0.7098,0.7215,0.7444,0.7543,0.7692,0.7837,0.7959,0.7988,0.7988,0.7988,0.7988,0.7988,0.7988,0.7988,0.7988,0.7988,0.7988,0.7988,0.7988,0.7988,0.8033,0.8187,0.816,0.8135,0.8547,1.0616,1.3396,1.6006,1.7173,1.7608,1.7608,1.7608,1.7649,1.7876,1.7955,1.8062,1.8357,1.845,1.8504,1.8557,1.8718,1.8784,1.8611,1.8971,1.9334,1.9388,1.9401,1.9401,1.9401,1.9401,1.9374,1.9321,1.9065,1.8943,1.9105,1.8423,1.8089,1.8303,1.7876,1.7608,1.7608,1.7608,1.7608,1.7608,1.7608,1.7702,1.7929,1.7702,1.7608,1.7608,1.7608,1.7608,0.0,0.0,0.0,0.4707,0.0,0.0,0.0,0.4226,0.4213,0.4613,0.0,0.0,0.0,0.0,0.0,0.0,0.0,0.0,0.0,0.0,0.0,0.0,0.0,0.0,0.0,0.6158,0.6219,0.6395,0.6593,0.6702,0.6702,0.6823,0.687,0.6796,0.687,0.6938,0.6991,0.6991,0.7024,0.7098,0.7098,0.7202,0.7396,0.7529,0.7678,0.7797,0.7946,0.7988,0.7988,0.7988,0.7988,0.7988,0.7988,0.7988,0.7988,0.7988,0.7988,0.7988,0.7988,0.7988,0.8027,0.8133,0.8153,0.8208,0.8506,1.0675,1.3693,1.674,1.7608,1.7608,1.7608,1.7608,1.7622,1.7782,1.7782,1.7849,1.8009,1.8036,1.8036,1.8036,1.8277,1.8503,1.8677,1.8958,1.9199,1.9374,1.9401,1.9401,1.9401,1.9401,1.9401,1.9401,1.9105,1.889,1.896,1.8517,1.8196,1.805,1.7889,1.7742,1.7622,1.7608,1.7649,1.7809,1.7956,1.8036,1.7995,1.7862,1.7729,1.7608,1.7608,1.7608,0.0,0.0,0.0,0.0,0.0,0.4442,0.0,0.0,0.0,0.4491,0.0,0.0,0.0,0.0,0.0,0.0,0.0,0.0,0.0,0.0,0.0,0.0,0.0,0.0,0.0,0.5786,0.5901,0.619,0.6375,0.6491,0.6566,0.6722,0.6762,0.6661,0.6782,0.6864,0.6864,0.6918,0.697,0.7058,0.7134,0.7265,0.7444,0.757,0.7719,0.7837,0.7959,0.7988,0.7988,0.7988,0.7988,0.7988,0.7988,0.7988,0.7988,0.7988,0.7988,0.7988,0.7988,0.7988,0.7988,0.7988,0.816,0.8465,0.9153,1.1203,1.3911,1.6803,1.7608,1.7608,1.7608,1.7608,1.7608,1.7608,1.7608,1.7608,1.7608,1.7608,1.7608,1.7608,1.7756,1.8103,1.8636,1.877,1.8918,1.9187,1.9227,1.9227,1.9227,1.9227,1.9227,1.9227,1.8985,1.8744,1.8517,1.8437,1.8196,1.7702,1.7822,1.7849,1.7675,1.7729,1.7876,1.8103,1.837,1.837,1.8103,1.8103,1.7943,1.7608,1.7649,1.7675,0.0,0.0,0.0,0.0,0.5254,0.0,0.0,0.0,0.4774,0.4702,0.0,0.0,0.0,0.0,0.0,0.0,0.0,0.0,0.0,0.0,0.0,0.0,0.0,0.0,0.0,0.0,0.5813,0.5854,0.6137,0.6253,0.6093,0.6369,0.6539,0.6518,0.6647,0.6729,0.6729,0.6965,0.7018,0.6931,0.7217,0.745,0.7577,0.7719,0.7844,0.7993,0.7982,0.7988,0.7988,0.7988,0.7988,0.7988,0.7988,0.7988,0.7988,0.7988,0.7988,0.7988,0.7988,0.7988,0.7988,0.7988,0.8202,0.8977,1.1668,1.2876,1.3911,1.6803,1.7608,1.7608,1.7608,1.7608,1.7608,1.7608,1.7608,1.7608,1.7608,1.7608,1.7608,1.7608,1.7609,1.7742,1.8063,1.8343,1.8557,1.8584,1.8584,1.8584,1.8584,1.8584,1.8584,1.8584,1.8557,1.8531,1.849,1.8223,1.8036,1.7969,1.7769,1.7742,1.7956,1.825,1.8397,1.8437,1.8477,1.8477,1.8437,1.8437,1.8143,1.7622,1.7836,1.7942,0.0,0.0,0.0,0.0,0.0,0.0,0.4963,0.0,0.4889,0.0,0.0,0.0,0.0,0.0,0.0,0.0,0.0,0.0,0.0,0.0,0.0,0.0,0.0,0.0,0.0,0.0,0.0,0.0,0.0,0.577,0.5772,0.6158,0.6388,0.6388,0.6661,0.6769,0.6702,0.6972,0.7065,0.7011,0.7154,0.7319,0.7491,0.7624,0.7767,0.7885,0.7973,0.7988,0.7988,0.7988,0.7988,0.7988,0.7988,0.7988,0.7988,0.7988,0.7988,0.7988,0.7988,0.7988,0.7988,0.7988,0.8241,0.9036,1.1983,1.3087,1.3911,1.6803,1.7608,1.7608,1.7608,1.7608,1.7608,1.7608,1.7608,1.7608,1.7608,1.7608,1.7608,1.7608,1.7608,1.7648,1.7756,1.8009,1.829,1.8464,1.8637,1.8677,1.8517,1.8637,1.8677,1.8504,1.833,1.8209,1.8209,1.8089,1.7995,1.7995,1.809,1.817,1.8303,1.8556,1.8744,1.8744,1.8905,1.8946,1.8744,1.8744,1.8517,1.8116,1.825,1.8276,0.6064,0.0,0.0,0.0,0.0,0.0,0.0,0.0,0.0,0.0,0.0,0.0,0.0,0.0,0.0,0.0,0.0,0.0,0.0,0.0,0.0,0.0,0.0,0.0,0.0,0.0,0.0,0.4977,0.513,0.528,0.5454,0.5872,0.613,0.6212,0.6634,0.6776,0.6641,0.6951,0.7078,0.7038,0.7141,0.7265,0.7403,0.757,0.7712,0.7797,0.7946,0.7988,0.7988,0.7988,0.7988,0.7988,0.7988,0.7988,0.7988,0.7988,0.7988,0.7988,0.7988,0.7988,0.7995,0.8067,0.8557,0.9578,1.2084,1.333,1.4395,1.6909,1.7608,1.7608,1.7608,1.7608,1.7608,1.7608,1.7608,1.7608,1.7608,1.7608,1.7608,1.7608,1.7649,1.7716,1.7716,1.7796,1.7969,1.821,1.8424,1.8477,1.8263,1.8424,1.8477,1.8263,1.805,1.7889,1.7889,1.7889,1.7929,1.8009,1.8369,1.8611,1.8611,1.8891,1.8983,1.889,1.9212,1.9254,1.889,1.897,1.8931,1.8731,1.8651,1.8611,0.0,0.0,0.0,0.6039,0.0,0.0,0.0,0.0,0.5321,0.0,0.0,0.0,0.0,0.0,0.0,0.0,0.0,0.0,0.0,0.0,0.0,0.0,0.0,0.0,0.0,0.0,0.0,0.4708,0.4722,0.4836,0.5096,0.544,0.5745,0.6012,0.6471,0.6634,0.6498,0.6897,0.7024,0.6918,0.7224,0.7389,0.7403,0.7672,0.7807,0.7797,0.7946,0.7988,0.7988,0.7988,0.7988,0.7988,0.7988,0.7988,0.7988,0.7988,0.7988,0.7988,0.7988,0.7988,0.804,0.824,0.9363,1.0924,1.251,1.4081,1.5663,1.7173,1.7608,1.7608,1.7608,1.7608,1.7608,1.7608,1.7608,1.7608,1.7608,1.7608,1.7608,1.7608,1.7796,1.7982,1.7982,1.7796,1.7622,1.7635,1.7648,1.7648,1.7635,1.7648,1.7648,1.7635,1.7635,1.7622,1.7622,1.7622,1.7729,1.7969,1.8569,1.8876,1.8876,1.9227,1.9225,1.8903,1.9212,1.9254,1.889,1.9241,1.9374,1.9361,1.9038,1.8876,0.0,0.0,0.6539,0.6485,0.0,0.0,0.0,0.0,0.0,0.0,0.0,0.0,0.0,0.0,0.0,0.0,0.0,0.0,0.0,0.0,0.0,0.0,0.0,0.0,0.0,0.0,0.0,0.4096,0.4192,0.4409,0.0,0.5239,0.5641,0.5979,0.6444,0.6675,0.662,0.6945,0.7071,0.7024,0.7148,0.7326,0.7529,0.7624,0.7756,0.7939,0.7993,0.7988,0.7988,0.7988,0.7988,0.7988,0.7988,0.7988,0.7988,0.7988,0.7988,0.7988,0.7988,0.7988,0.819,0.9314,1.0143,1.1174,1.368,1.4895,1.5716,1.7173,1.7608,1.7608,1.7608,1.7608,1.7608,1.7608,1.7608,1.7608,1.7608,1.7608,1.7608,1.7608,1.7836,1.7995,1.7995,1.8103,1.821,1.821,1.821,1.821,1.821,1.821,1.8103,1.7889,1.7862,1.7782,1.7622,1.7983,1.8317,1.8583,1.8998,1.9212,1.9212,1.9348,1.9348,1.9225,1.9348,1.9348,1.9212,1.9348,1.9401,1.9388,1.9294,1.9212,0.6897,0.6837,0.0,0.6715,0.6444,0.0,0.591,0.0,0.0,0.0,0.0,0.0,0.0,0.0,0.0,0.0,0.0,0.0,0.0,0.3778,0.0,0.0,0.0,0.0,0.0,0.0,0.3638,0.3722,0.3805,0.4104,0.0,0.0,0.546,0.5991,0.6444,0.6702,0.6702,0.6972,0.7098,0.7098,0.7175,0.7326,0.7522,0.7624,0.7756,0.7939,0.7968,0.7988,0.7988,0.7988,0.7988,0.7988,0.7988,0.7988,0.7988,0.7988,0.7988,0.7988,0.7988,0.7988,0.8258,0.9886,1.0876,1.1916,1.4446,1.5644,1.6368,1.7213,1.7528,1.7582,1.7488,1.7528,1.7608,1.7608,1.7608,1.7635,1.7729,1.7662,1.7649,1.7889,1.8063,1.8209,1.8316,1.8611,1.8759,1.8517,1.849,1.849,1.849,1.8397,1.8303,1.8183,1.8076,1.7982,1.7916,1.8357,1.8731,1.889,1.9199,1.9401,1.9401,1.9401,1.9441,1.9548,1.9455,1.9441,1.9548,1.9441,1.9401,1.9401,1.9401,1.9401]},{"header":{"parameterUnit":"m.s-1","parameterCategory":1,"la1":30.6,"la2":29.2853,"lo1":-89.7004,"lo2":-87.6739,"dy":0.0162,"dx":0.0183,"nx":112,"ny":82,"refTime":"2023-03-28T06:00:00:Z","depth":0,"parameterNumber":3,"parameterNumberName":"V-component_of_WINDS"},"data":[0.0,0.0,0.0,0.0,0.0,0.0,0.0,0.0,0.0,0.0,0.0,0.0,0.0,0.0,0.0,0.0,0.0,0.0,0.0,0.0,0.0,0.0,0.0,0.0,0.0,0.0,0.0,0.0,0.0,0.0,0.0,0.0,0.0,0.0,0.0,0.0,0.0,0.0,0.0,0.0,0.0,0.0,0.0,0.0,0.0,0.0,0.0,0.0,0.0,0.0,0.0,0.0,0.0,0.0,0.0,0.0,0.0,0.0,0.0,0.0,0.0,0.0,0.0,0.0,0.0,0.0,0.0,0.0,0.0,0.0,0.0,0.0,0.0,0.0,0.0,0.0,0.0,0.0,0.0,0.0,0.0,0.0,0.0,0.0,0.0,0.0,0.0,0.0,0.0,0.0,1.3495,1.5552,1.8689,2.0397,1.9893,1.9275,1.725,1.341,0.0,0.0,0.0,0.0,0.0,0.0,0.0,0.0,0.0,0.0,0.0,0.0,0.0,0.0,0.0,0.0,0.0,0.0,0.0,0.0,0.0,0.0,0.0,0.0,0.0,0.0,0.0,0.0,0.0,0.0,0.0,0.0,0.0,0.0,0.0,0.0,0.0,0.0,0.0,0.0,0.0,0.0,0.0,0.0,0.0,0.0,0.0,0.0,0.0,0.0,0.0,0.0,0.0,0.0,0.0,0.0,0.0,0.0,0.0,0.0,0.0,0.0,0.0,0.0,0.0,0.0,0.0,0.0,0.0,0.0,0.0,0.0,0.0,0.0,0.0,0.0,0.0,0.0,0.0,0.0,0.0,0.0,0.0,0.0,0.0,0.0,0.0,0.0,0.0,0.0,0.0,0.0,0.0,0.0,0.0,0.0,0.0,0.0,0.0,0.0,0.0,0.0,0.0,0.0,1.4187,1.9643,2.1283,2.1962,2.1869,2.0597,1.8354,1.4962,0.0,0.0,0.0,0.0,0.0,0.0,0.0,0.0,0.0,0.0,0.0,0.0,0.0,0.0,0.0,0.0,0.0,0.0,0.0,0.0,0.0,0.0,0.0,0.0,0.0,0.0,0.0,0.0,0.0,0.0,0.0,0.0,0.0,0.0,0.0,0.0,0.0,0.0,0.0,0.0,0.0,0.0,0.0,0.0,0.0,0.0,0.0,0.0,0.0,0.0,0.0,0.0,0.0,0.0,0.0,0.0,0.0,0.0,0.0,0.0,0.0,0.0,0.0,0.0,0.0,0.0,0.0,0.0,0.0,0.0,0.0,0.0,0.0,0.0,0.0,0.0,0.0,0.0,0.0,0.0,0.0,0.0,0.0,0.0,0.0,0.0,0.0,0.0,0.0,0.0,0.0,0.0,0.0,0.0,0.0,0.0,0.0,0.0,0.0,0.0,0.0,0.0,0.0,1.2959,1.6198,2.0904,2.1704,2.1937,2.1937,2.0364,1.8072,1.493,1.3337,0.0,0.0,0.0,0.0,0.0,0.0,0.0,0.0,0.0,0.0,0.0,0.0,0.0,0.0,0.0,0.0,0.0,0.0,0.0,0.0,0.0,0.0,0.0,0.0,0.0,0.0,0.0,0.0,0.0,0.0,0.0,0.0,0.0,0.0,0.0,0.0,0.0,0.0,0.0,0.0,0.0,0.0,0.0,0.0,0.0,0.0,0.0,0.0,0.0,0.0,0.0,0.0,0.0,0.0,0.0,0.0,0.0,0.0,0.0,0.0,0.0,0.0,0.0,0.0,0.0,0.0,0.0,0.0,0.0,0.0,0.0,0.0,0.0,0.0,0.0,0.0,0.0,0.0,0.0,0.0,0.0,0.0,0.0,0.0,0.0,0.0,0.0,0.0,0.0,0.0,0.0,0.0,0.0,0.0,0.0,0.0,0.0,0.0,0.0,0.0,0.0,0.0,1.5839,1.8161,2.1414,2.1772,2.1705,2.1507,1.9556,1.7204,1.4494,1.2601,0.0,0.0,0.0,0.0,0.0,0.0,0.0,0.0,0.0,0.0,0.0,0.0,0.0,0.0,0.0,0.0,0.0,0.0,0.0,0.0,0.0,0.0,0.0,0.0,0.0,0.0,0.0,0.0,0.0,0.0,0.0,0.0,0.0,0.0,0.0,0.0,0.0,0.0,0.0,0.0,0.0,0.0,0.0,0.0,0.0,0.0,0.0,0.0,0.0,0.0,0.0,0.0,0.0,0.0,0.0,0.0,0.0,0.0,0.0,0.0,0.0,0.0,0.0,0.0,0.0,0.0,0.0,0.0,0.0,0.0,0.0,0.0,0.0,0.0,0.0,0.0,0.0,0.0,0.0,0.0,0.0,0.0,0.0,0.0,0.0,0.0,0.0,0.0,0.0,0.0,0.0,0.0,0.0,0.0,0.0,0.0,0.0,0.0,0.0,0.0,0.0,0.0,1.6613,1.9343,2.1987,2.2244,2.1974,2.1285,1.8494,1.5982,1.4155,1.1227,0.0,0.0,0.0,0.0,0.0,0.0,0.0,0.0,0.0,0.0,0.0,0.0,0.0,0.0,0.0,0.0,0.0,0.0,0.0,0.0,0.0,0.0,0.0,0.0,0.0,0.0,0.0,0.0,0.0,0.0,0.0,0.0,0.0,0.0,0.0,0.0,0.0,0.0,0.0,0.0,0.0,0.0,0.0,0.0,0.0,0.0,0.0,0.0,0.0,0.0,0.0,0.0,0.0,0.0,0.0,0.0,0.0,0.0,0.0,0.0,0.0,0.0,0.0,0.0,0.0,0.0,0.0,0.0,0.0,0.0,0.0,0.0,0.0,0.0,0.0,0.0,0.0,0.0,0.0,0.0,0.0,0.0,0.0,0.0,0.0,0.0,0.0,0.0,0.0,0.0,0.0,0.0,0.0,0.0,0.0,0.0,0.0,0.0,0.0,0.0,0.0,0.0,1.6664,1.9067,0.0,2.1887,2.1488,2.1224,1.9231,1.6864,1.4173,0.0,0.0,0.0,0.0,0.0,0.0,0.0,0.0,0.0,0.0,0.0,0.0,0.0,0.0,0.0,0.0,0.0,0.0,0.0,0.0,0.0,0.0,0.0,0.0,0.0,0.0,0.0,0.0,0.0,0.0,0.0,0.0,0.0,0.0,0.0,0.0,0.0,0.0,0.0,0.0,0.0,0.0,0.0,0.0,0.0,0.0,0.0,0.0,0.0,0.0,0.0,0.0,0.0,0.0,0.0,0.0,0.0,0.0,0.0,0.0,0.0,0.0,0.0,0.0,0.0,0.0,0.0,0.0,0.0,0.0,0.0,0.0,0.0,0.0,0.0,0.0,0.0,0.0,0.0,0.0,0.0,0.0,0.0,0.0,0.0,0.0,0.0,0.0,0.0,0.0,0.0,0.0,0.0,0.0,0.0,0.0,0.0,0.0,0.0,0.0,0.0,0.0,1.4823,1.6848,1.8925,0.0,2.1109,2.071,2.0479,1.8831,1.6719,1.4095,0.0,0.0,0.0,0.0,0.0,0.0,0.0,0.0,0.0,0.0,0.0,0.0,0.0,0.0,0.0,0.0,0.0,0.0,0.0,0.0,0.0,0.0,0.0,0.0,0.0,0.0,0.0,0.0,0.0,0.0,0.0,0.0,0.0,0.0,0.0,0.0,0.0,0.0,0.0,0.0,0.0,0.0,0.0,0.0,0.0,0.0,0.0,0.0,0.0,0.0,0.0,0.0,0.0,0.0,0.0,0.0,0.0,0.0,0.0,0.0,0.0,0.0,0.0,0.0,0.0,0.0,0.0,0.0,0.0,0.0,0.0,0.0,0.0,0.0,0.0,0.0,0.0,0.0,0.0,0.0,0.0,0.0,0.0,0.0,0.0,0.0,0.0,0.0,0.0,0.0,0.0,0.0,0.0,0.0,0.0,0.0,0.0,0.0,0.0,0.0,0.0,0.0,1.4842,1.7226,1.9181,1.9934,2.0002,1.9704,1.8978,1.6817,1.5044,0.0,0.0,0.0,0.0,0.0,0.0,0.0,0.0,0.0,0.0,0.0,0.0,0.0,0.0,0.0,0.0,0.0,0.0,0.0,0.0,0.0,0.0,0.0,0.0,0.0,0.0,0.0,0.0,0.0,0.0,0.0,0.0,0.0,0.0,0.0,0.0,0.0,0.0,0.0,0.0,0.0,0.0,0.0,0.0,0.0,0.0,0.0,0.0,0.0,0.0,0.0,0.0,0.0,0.0,0.0,0.0,0.0,0.0,0.0,0.0,0.0,0.0,0.0,0.0,0.0,0.0,0.0,0.0,0.0,0.0,0.0,0.0,0.0,0.0,0.0,0.0,0.0,0.0,0.0,0.0,0.0,0.0,0.0,0.0,0.0,0.0,0.0,0.0,0.0,0.0,0.0,0.0,0.0,0.0,0.0,0.0,0.0,0.0,0.0,0.0,0.0,0.0,0.0,1.5267,1.7462,1.939,2.071,1.9858,1.9344,1.9642,1.8104,1.6253,1.4225,0.0,0.0,0.0,0.0,0.0,0.0,0.0,0.0,0.0,0.0,0.0,0.0,0.0,0.0,0.0,0.0,0.0,0.0,0.0,0.0,0.0,0.0,0.0,0.0,0.0,0.0,0.0,0.0,0.0,0.0,0.0,0.0,0.0,0.0,0.0,0.0,0.0,0.0,0.0,0.0,0.0,0.0,0.0,0.0,0.0,0.0,0.0,0.0,0.0,0.0,0.0,0.0,0.0,0.0,0.0,0.0,0.0,0.0,0.0,0.0,0.0,0.0,0.0,0.0,0.0,0.0,0.0,0.0,0.0,0.0,0.0,0.0,0.0,0.0,0.0,0.0,0.0,0.0,0.0,0.0,0.0,0.0,0.0,0.0,0.0,0.0,0.0,0.0,0.0,0.0,0.0,0.0,0.0,0.0,0.0,0.0,0.0,0.0,0.0,0.0,0.0,0.0,1.5369,1.7193,1.8916,2.0141,1.9187,1.8634,1.9095,1.8324,1.7002,1.5162,0.0,0.0,0.0,0.0,0.0,0.0,0.0,0.0,0.0,0.0,0.0,0.0,0.0,0.0,0.0,0.0,0.0,0.0,0.0,0.0,0.0,0.0,0.0,0.0,0.0,0.0,0.0,0.0,0.0,0.0,0.0,0.0,0.0,0.0,0.0,0.0,0.0,0.0,0.0,0.0,0.0,0.0,0.0,0.0,0.0,0.0,0.0,0.0,0.0,0.0,0.0,0.0,0.0,0.0,0.0,0.0,0.0,0.0,0.0,0.0,0.0,0.0,0.0,0.0,0.0,0.0,0.0,0.0,0.0,0.0,0.0,0.0,0.0,0.0,0.0,0.0,0.0,0.0,0.0,0.0,0.0,0.0,0.0,0.0,0.0,0.0,0.0,0.0,0.0,0.0,0.0,0.0,0.0,0.0,0.0,0.0,0.0,0.0,0.0,0.0,0.0,0.0,1.5254,1.6808,1.8194,1.891,1.8296,1.7817,1.789,1.7884,1.7457,1.6409,0.0,0.0,0.0,0.0,0.0,0.0,0.0,0.0,0.0,0.0,0.0,0.0,0.0,0.0,0.0,0.0,0.0,0.0,0.0,0.0,0.0,0.0,0.0,0.0,0.0,0.0,0.0,0.0,0.0,0.0,0.0,0.0,0.0,0.0,0.0,0.0,0.0,0.0,0.0,0.0,0.0,0.0,0.0,0.0,0.0,0.0,0.0,0.0,0.0,0.0,0.0,0.0,0.0,0.0,0.0,0.0,0.0,0.0,0.0,0.0,1.2642,0.0,0.0,0.0,0.0,0.0,0.0,0.0,0.0,0.0,0.0,0.0,0.0,0.0,0.0,0.0,0.0,0.0,0.0,0.0,0.0,0.0,0.0,0.0,0.0,0.0,0.0,0.0,0.0,0.0,0.0,0.0,0.0,0.0,0.0,0.0,0.0,0.0,0.0,0.0,0.0,0.0,1.5501,1.7361,1.8938,1.9676,1.8594,1.802,1.8606,1.868,1.8087,1.6687,1.6879,0.0,0.0,0.0,0.0,0.0,0.0,0.0,0.0,0.0,0.0,0.0,0.0,0.0,0.0,0.0,0.0,0.0,0.0,0.0,0.0,0.0,0.0,0.0,0.0,0.0,0.0,0.0,0.0,0.0,0.0,0.0,0.0,0.0,0.0,0.0,0.0,0.0,0.0,0.0,0.0,0.0,0.0,0.0,0.0,0.0,0.0,0.0,0.0,0.0,0.0,0.0,0.0,0.0,0.0,0.0,0.0,0.0,0.0,0.0,0.0,1.3088,0.0,0.0,0.0,0.0,0.0,0.0,0.0,0.0,0.0,0.0,0.0,0.0,0.0,0.0,0.0,0.0,0.0,0.0,0.0,0.0,0.0,0.0,0.0,0.0,0.0,0.0,0.0,0.0,0.0,0.0,0.0,0.0,0.0,0.0,0.0,0.0,0.0,0.0,0.0,0.0,1.7039,1.8499,1.9716,2.0494,1.9243,1.864,1.9378,1.8769,1.8369,1.8302,1.7659,0.0,0.0,0.0,0.0,0.0,0.0,0.0,0.0,0.0,0.0,0.0,0.0,0.0,0.0,0.0,0.0,0.0,0.0,0.0,0.0,0.0,0.0,0.0,0.0,0.0,0.0,0.0,0.0,0.0,0.0,0.0,0.0,0.0,0.0,0.0,0.0,0.0,0.0,0.0,0.0,0.0,0.0,0.0,0.0,0.0,0.0,0.0,0.0,0.0,0.0,0.0,0.0,0.0,1.6819,1.6926,1.7791,1.7791,1.742,1.6683,1.5448,1.5657,1.6668,0.0,0.0,0.0,0.0,0.0,0.0,0.0,0.0,0.0,0.0,0.0,0.0,0.0,0.0,0.0,0.0,0.0,0.0,0.0,0.0,0.0,0.0,0.0,0.0,0.0,1.957,1.9258,0.0,0.0,0.0,0.0,0.0,0.0,0.0,0.0,0.0,0.0,0.0,0.0,1.8646,1.9682,2.046,2.1129,1.9938,1.9344,1.9934,1.9,1.8803,1.9737,1.8341,1.7371,0.0,0.0,0.0,0.0,0.0,0.0,0.0,0.0,0.0,0.0,0.0,0.0,0.0,0.0,0.0,0.0,0.0,0.0,0.0,0.0,0.0,0.0,0.0,0.0,0.0,0.0,0.0,0.0,0.0,0.0,0.0,0.0,1.3982,1.608,0.0,0.0,0.0,0.0,0.0,0.0,0.0,0.0,0.0,0.0,0.0,0.0,0.0,0.0,1.8533,1.9107,2.042,2.2399,2.2829,2.3109,2.3258,2.3258,2.2846,2.2073,2.0232,0.0,1.7314,1.7571,0.0,0.0,0.0,0.0,0.0,0.0,0.0,0.0,0.0,0.0,0.0,0.0,0.0,0.0,0.0,0.0,0.0,0.0,0.0,0.0,0.0,0.0,2.1586,2.1823,2.1863,2.1837,0.0,1.9167,1.6923,1.6601,0.0,0.0,0.0,0.0,0.0,0.0,0.0,0.0,1.8849,2.0141,2.1089,2.1197,2.0392,1.9906,2.0008,2.0467,2.027,1.9119,2.0039,2.0006,1.868,1.7966,0.0,0.0,0.0,0.0,0.0,0.0,0.0,0.0,0.0,0.0,0.0,0.0,0.0,0.0,0.0,0.0,0.0,0.0,0.0,0.0,0.0,0.0,0.0,0.0,0.0,0.0,0.0,0.0,0.0,1.4165,1.5641,1.7543,1.6946,1.6296,0.0,0.0,0.0,0.0,0.0,0.0,0.0,0.0,0.0,1.9315,1.9783,2.0669,2.1997,2.2731,2.3693,2.4874,2.4908,2.507,2.5297,2.5297,2.4895,2.4176,2.3561,2.2426,2.0929,1.9415,1.8638,1.8342,0.0,0.0,0.0,0.0,0.0,1.6946,1.6889,0.0,0.0,0.0,0.0,0.0,0.0,0.0,0.0,0.0,0.0,0.0,0.0,0.0,0.0,2.2184,2.2624,2.2794,2.2388,2.1075,1.9591,0.0,1.7852,1.7143,1.5119,0.0,0.0,0.0,0.0,0.0,2.0663,2.1414,2.182,2.182,2.1143,2.0832,2.1265,2.0832,2.0595,2.0798,2.1055,2.0886,2.0209,2.0227,1.9404,0.0,0.0,0.0,0.0,0.0,0.0,0.0,0.0,0.0,0.0,0.0,0.0,0.0,0.0,0.0,0.0,0.0,0.0,0.0,0.0,0.0,0.0,0.0,0.0,0.0,0.0,0.0,0.0,1.616,1.7484,1.9058,1.8594,1.8171,0.0,0.0,0.0,0.0,0.0,0.0,1.9728,1.9719,2.0563,2.2554,2.3194,2.4047,2.5172,2.5737,2.6394,2.7126,2.6756,2.6775,2.7126,2.7126,2.6736,2.6021,2.6337,2.5883,2.4647,2.1604,2.0237,2.0071,1.9885,1.9251,1.8415,1.8415,1.8965,1.9612,1.91,2.0038,2.1385,2.0701,0.0,2.0887,2.0887,0.0,0.0,0.0,0.0,1.9656,2.0888,0.0,2.1845,2.221,2.3004,2.3485,2.2726,2.2733,2.2224,0.0,1.9715,1.9077,1.6881,0.0,0.0,0.0,0.0,2.0365,2.2083,2.2313,2.2313,2.2313,2.182,2.1691,2.2252,2.1258,2.0995,2.1948,2.1684,2.1393,2.1197,2.1921,2.1184,1.8836,0.0,0.0,0.0,0.0,0.0,0.0,0.0,0.0,0.0,0.0,0.0,0.0,0.0,0.0,0.0,0.0,0.0,0.0,0.0,0.0,0.0,0.0,0.0,0.0,0.0,0.0,0.0,0.0,0.0,2.0237,2.126,0.0,0.0,0.0,0.0,1.9458,1.9203,2.0507,2.4014,2.3885,2.4521,2.6379,2.6446,2.6843,2.7627,2.7661,2.8421,2.9901,2.9882,2.9882,2.9901,2.9901,2.9505,2.8813,2.8831,2.8374,2.7391,2.4763,2.339,2.2936,2.2294,2.2012,2.1956,2.1956,2.2696,2.3702,2.3596,2.4354,2.5181,2.4469,2.3786,2.323,2.323,2.2717,0.0,0.0,2.2103,2.284,2.1529,2.274,2.3985,2.2624,2.3417,2.4237,2.3511,2.3891,2.3925,0.0,2.211,2.1637,2.0029,0.0,2.1502,2.0143,2.1197,2.2185,2.2286,2.2313,2.2313,2.2313,2.2286,2.2252,2.2313,2.2212,2.1921,2.1292,2.1887,2.1921,2.1224,2.1921,2.2245,2.2069,1.984,0.0,0.0,0.0,0.0,0.0,0.0,0.0,0.0,0.0,0.0,0.0,0.0,0.0,0.0,0.0,0.0,0.0,0.0,0.0,0.0,0.0,0.0,0.0,0.0,0.0,0.0,0.0,0.0,2.1389,2.2827,0.0,2.3286,2.2827,2.2988,2.4132,2.45,2.5698,2.7968,2.7971,2.8434,2.9567,3.0059,3.0422,3.0683,3.1181,3.1688,3.2229,3.1732,3.1505,3.1505,3.1021,3.0412,2.9702,2.9702,2.9262,2.8509,2.7565,2.6519,2.5446,2.5196,2.5105,2.5105,2.5105,2.5665,2.6446,2.6411,2.6665,2.681,2.5601,2.5033,2.4823,2.4823,2.462,2.4383,2.412,2.406,2.4,2.3466,2.4271,2.4974,2.3958,2.4466,2.5008,2.4271,2.4305,2.4338,2.3823,2.3349,2.2827,2.2286,2.2252,2.211,2.1569,2.1941,2.2313,2.2313,2.2313,2.2313,2.2313,2.2313,2.2313,2.2313,2.2313,2.2185,2.1921,2.2151,2.2185,2.1921,2.2151,2.2313,2.2313,2.1461,1.9688,0.0,0.0,0.0,0.0,0.0,0.0,0.0,0.0,0.0,0.0,0.0,0.0,0.0,0.0,0.0,0.0,0.0,0.0,0.0,0.0,0.0,0.0,0.0,0.0,0.0,0.0,2.1874,2.359,2.5346,2.659,2.7055,2.6691,2.6903,2.8121,2.8678,2.9625,3.1113,3.1214,3.1553,3.2283,3.2791,3.2936,3.2655,3.3152,3.3413,3.3379,3.2892,3.2655,3.2655,3.2182,3.1664,3.1214,3.1214,3.0784,3.0127,3.0388,2.9745,2.8527,2.7782,2.7478,2.7478,2.7478,2.7943,2.8568,2.8568,2.8407,2.8035,2.7063,2.6547,2.6378,2.6657,2.6547,2.6336,2.6336,2.5981,2.5515,2.5008,2.5406,2.575,2.4902,2.5355,2.5818,2.5194,2.5151,2.5252,2.5252,2.4432,2.3519,2.2774,2.226,2.1678,2.0893,2.0798,2.0798,2.0798,2.1231,2.1536,2.1536,2.1975,2.2313,2.2313,2.1806,2.1738,2.2286,2.1806,2.1772,2.2279,2.1806,2.1536,2.1536,2.0962,1.9484,1.7084,0.0,0.0,0.0,0.0,0.0,0.0,0.0,0.0,0.0,0.0,0.0,0.0,0.0,0.0,0.0,0.0,0.0,0.0,0.0,0.0,0.0,0.0,0.0,2.1123,2.4474,2.6801,2.6869,2.889,3.0267,3.0267,3.0267,3.0572,3.1336,3.1369,3.2002,3.3446,3.3548,3.3863,3.4584,3.4618,3.4269,3.3558,3.3514,3.3514,3.3514,3.3457,3.3413,3.3413,3.3413,3.3413,3.3413,3.3413,3.2983,3.2395,3.3119,3.296,3.209,2.9958,2.9111,2.9111,2.9111,2.9542,3.0132,3.0132,2.9634,2.9044,2.9044,2.8518,2.8027,2.8798,2.8484,2.7858,2.7858,2.7858,2.7486,2.6057,2.62,2.6459,2.5445,2.5998,2.6629,2.6369,2.6499,2.67,2.675,2.5565,2.3872,2.1698,2.1332,2.0547,1.833,1.802,0.0,1.7991,1.9231,2.0075,2.0008,2.14,2.232,2.2212,2.092,2.0718,2.2212,2.0887,2.0751,2.2245,2.0853,2.0069,2.0069,1.8346,1.7983,1.9011,0.0,0.0,0.0,0.0,0.0,0.0,0.0,0.0,0.0,0.0,0.0,0.0,0.0,0.0,0.0,0.0,0.0,0.0,0.0,0.0,0.0,0.0,2.5127,2.4492,2.67,2.8967,3.0567,3.2747,3.4078,3.4078,3.4078,3.4393,3.5193,3.5261,3.5667,3.6603,3.6659,3.6761,3.6975,3.6975,3.6874,3.6659,3.6129,3.587,3.5836,3.4709,3.4201,3.4167,3.366,3.3413,3.3413,3.3413,3.3277,3.3119,3.3311,3.296,3.2293,3.2215,3.1877,3.1379,3.1379,3.1166,3.0886,3.0886,3.0412,2.9803,2.9803,2.9659,2.9523,2.9736,2.9625,2.9456,2.9456,2.8669,2.7758,2.767,2.7398,2.7291,2.7858,2.7549,2.7412,2.8455,2.7611,2.6953,2.7772,2.6941,2.5718,2.4594,2.3966,2.3391,2.274,0.0,0.0,2.1921,2.2226,2.1847,2.0177,2.1847,2.2422,2.0785,2.1745,2.2422,2.232,2.1907,2.1874,2.2279,2.1874,2.1671,2.1671,1.9943,1.9207,0.0,0.0,0.0,0.0,0.0,0.0,0.0,0.0,0.0,0.0,0.0,0.0,0.0,0.0,0.0,0.0,0.0,0.0,0.0,0.0,0.0,0.0,2.8113,2.9963,3.015,3.1103,3.2385,3.3986,3.5588,3.6693,3.6997,3.7031,3.7212,3.7697,3.7731,3.79,3.8328,3.8579,3.8603,3.8362,3.8591,3.8433,3.7922,3.7483,3.7257,3.7257,3.6039,3.5464,3.543,3.4664,3.4326,0.0,3.4326,3.4157,3.3897,3.419,3.3897,0.0,0.0,0.0,0.0,0.0,3.1572,3.12,3.12,3.092,3.0548,3.0548,3.0548,3.0548,3.0548,3.0345,3.0069,2.989,2.9211,2.8587,2.8676,2.8635,2.8772,2.9633,2.9179,2.8852,2.9894,2.912,2.841,2.9077,0.0,0.0,2.6928,2.5284,2.3722,2.2774,2.2598,2.2462,0.0,2.226,2.1962,2.0629,2.1948,2.2388,2.1089,2.1603,0.0,0.0,0.0,2.1326,2.1326,2.1326,0.0,0.0,0.0,1.9052,0.0,0.0,0.0,0.0,1.8039,1.7236,0.0,0.0,0.0,0.0,0.0,0.0,0.0,0.0,0.0,0.0,0.0,0.0,0.0,0.0,0.0,0.0,3.1859,3.426,3.6631,3.658,3.6491,3.6976,3.7757,3.8504,3.9161,3.929,3.9304,3.9304,3.9304,3.9304,3.9304,0.0,0.0,0.0,0.0,3.9457,3.8245,3.8202,3.8215,3.8204,3.7295,3.6899,3.6865,3.6051,3.5667,3.5611,3.5678,3.5271,3.4675,3.534,3.5171,3.4381,3.3072,3.208,3.1437,3.136,3.1268,0.0,0.0,0.0,0.0,3.12,3.123,3.1278,3.1278,3.0842,3.0283,2.9929,2.9804,2.9744,2.9505,2.9873,3.0475,3.0978,3.0722,3.0511,3.1037,3.0721,3.0333,3.0477,3.0018,2.9406,2.8802,2.604,2.3173,2.1056,2.0751,0.0,2.0643,2.1245,2.1597,2.136,0.0,0.0,2.2185,2.1062,2.0927,2.2219,2.1028,2.0272,2.0272,2.0272,1.9515,1.7973,1.804,1.8751,2.0117,2.0184,2.1371,2.3436,1.9578,1.8686,0.0,0.0,0.0,0.0,0.0,0.0,0.0,0.0,0.0,0.0,0.0,0.0,0.0,0.0,0.0,3.2593,3.5491,3.7986,3.9636,4.0292,4.0094,3.8732,3.9612,4.04,4.0538,4.0986,4.1275,4.1275,4.1275,4.1275,4.1275,4.1373,0.0,4.0549,4.1097,4.1049,4.0331,4.0226,4.0158,4.0137,0.0,0.0,3.7418,3.6605,3.6017,3.5633,3.6071,3.5904,3.5408,3.5532,3.5171,3.4483,3.4178,3.3626,3.2916,3.2317,3.1708,3.12,3.12,3.12,3.12,3.12,3.1437,3.1687,3.1687,3.1855,0.0,3.1945,3.1509,3.1107,3.1374,3.1096,3.1028,3.2016,3.152,3.1131,3.2451,3.1473,3.0586,3.149,3.0545,2.967,2.9859,2.8264,2.6607,2.5575,2.5406,2.5203,2.4586,2.4654,2.4086,2.2293,2.3282,2.3357,2.1563,2.2226,2.2624,2.232,2.2009,2.1874,2.1874,2.1874,2.1684,2.1373,2.1926,2.2406,2.2676,2.3298,2.3827,2.4237,2.2856,2.2666,0.0,0.0,0.0,0.0,0.0,0.0,0.0,0.0,0.0,0.0,0.0,2.8414,0.0,0.0,3.4641,3.6604,3.8872,4.0726,4.159,4.2021,4.1774,4.0561,4.0951,4.134,4.134,4.1603,4.181,4.181,4.181,4.181,4.181,4.2072,4.1969,4.1351,4.1937,4.1958,4.134,4.1294,4.123,4.1219,3.9824,3.9147,3.9147,3.8354,3.763,3.6991,3.6991,3.6615,3.5985,3.5723,3.5374,3.5036,3.5036,3.4167,3.2791,3.2429,3.1843,3.12,3.12,3.12,3.1239,3.1422,3.1632,3.1835,3.2074,3.2077,3.199,3.218,3.2023,3.1821,3.2196,3.2336,3.2506,3.307,3.277,3.2575,3.3319,3.2733,3.2227,3.2774,3.2072,3.1343,3.1185,3.0282,2.9204,2.803,2.785,2.7571,2.6818,2.6378,2.5609,2.4113,2.4263,2.3898,2.2443,2.2632,2.2692,2.232,2.2313,2.2455,2.2835,2.2868,2.3004,2.3376,2.3755,2.3966,2.3966,2.4305,2.4677,2.5033,2.4661,2.45,0.0,0.0,0.0,0.0,0.0,0.0,0.0,0.0,2.6738,2.7394,3.0222,3.2822,3.3653,3.6193,3.8696,4.0128,4.1589,4.2598,4.282,4.2882,4.2693,4.2185,4.2041,4.1969,4.1969,4.2072,4.2134,4.2134,4.2134,4.2134,4.2134,4.258,4.257,4.1989,4.2531,4.255,4.1979,4.2083,4.2134,4.2134,4.1253,4.0867,4.0831,4.0068,3.9333,3.8583,3.8012,3.7377,3.6748,3.6148,3.592,3.592,3.592,3.4746,3.3013,3.2815,3.2182,3.1413,3.1521,3.1448,3.1389,3.1815,3.1995,3.2144,3.2508,3.2276,3.1931,3.2256,3.24,3.2492,3.2744,3.3323,3.3807,3.3807,3.3807,3.3807,3.3807,3.3917,3.399,3.3844,3.3589,3.3232,3.264,3.2015,3.1042,2.9356,2.912,2.8838,2.8121,2.7393,2.6691,2.6108,2.5244,2.4406,2.3688,2.3071,2.2658,2.2523,2.2523,2.2767,2.3376,2.3417,2.3755,2.4481,2.4643,2.4703,2.4703,2.4846,2.5244,2.5803,2.5803,2.5515,2.1208,2.1212,2.262,2.5364,2.5516,2.6292,0.0,0.0,3.1574,3.4474,3.6024,3.7044,3.7881,3.9489,4.0993,4.1882,4.2763,4.3379,4.34,4.3391,4.3374,4.3321,4.2884,4.2606,4.2606,4.3023,4.3312,4.3312,4.3312,4.3312,4.3312,4.3365,4.3169,4.2616,4.3142,4.316,4.2606,4.306,4.3312,4.3276,4.2004,4.1411,4.1375,4.0599,3.9944,3.9422,3.866,3.8257,3.8106,3.7331,3.702,3.702,3.702,3.643,3.5491,3.4593,3.3366,3.2228,3.2636,3.2339,3.1824,3.2264,3.2687,3.3052,3.3098,3.3321,3.3552,3.3593,3.3606,3.362,3.3653,3.3733,3.3807,3.3807,3.3807,3.3807,3.3807,3.4351,3.4637,3.3954,3.4055,3.4228,3.4163,3.3156,3.1742,2.9805,2.9522,2.9369,2.8929,2.8171,2.7655,2.7553,2.6311,2.5169,2.444,2.4305,2.3966,2.3308,2.3282,2.3308,2.3417,2.3417,2.3755,2.4481,2.5135,2.5473,2.5473,2.6116,2.6496,2.6598,2.6598,2.653,2.376,2.4017,2.5364,2.8594,2.9475,3.0577,3.4394,3.5459,3.6046,3.7404,3.9093,4.0385,4.0744,4.1735,4.2763,0.0,4.3579,4.3653,4.4121,4.38,4.3506,4.3506,4.3294,4.3169,4.3169,4.3356,4.3506,4.3506,4.3506,4.3506,4.3506,4.3506,4.3383,4.3178,4.3365,4.3374,4.3169,4.341,4.3506,4.3506,4.2929,4.2658,4.2658,4.232,4.1642,4.0618,3.937,3.8916,3.9022,3.7707,3.7484,3.7839,3.7369,3.6979,3.6578,3.5692,3.472,3.3845,3.4038,3.3899,3.3688,3.4167,3.4427,3.4542,3.4317,3.4716,3.5055,3.4064,3.4504,3.5018,3.4064,3.4137,3.4491,3.4491,3.4491,3.4644,3.5165,3.5532,3.5679,3.5312,3.5374,3.552,3.552,3.5057,3.4169,3.2628,3.1529,3.0575,2.9733,2.9354,2.8804,2.7891,2.7249,2.6412,2.5236,2.5135,2.4838,2.4101,2.4034,2.4229,2.4654,2.4687,2.5033,2.576,2.6082,2.6251,2.6251,2.6556,2.67,2.67,2.67,2.67,2.574,2.6622,2.8163,3.155,3.336,3.4864,3.711,3.8689,3.9753,3.9974,4.1405,4.2616,4.2616,4.3102,4.369,4.4268,4.4085,4.3975,4.4305,4.4048,4.3763,4.3543,4.3506,4.3506,4.3506,4.3506,4.3506,4.3506,4.3506,4.3506,4.3506,4.3506,4.3506,4.3506,4.3506,4.3506,4.3506,4.3506,4.3506,4.3506,4.3506,4.3506,4.3506,4.3506,4.2864,4.1642,4.0471,3.9995,3.9935,3.876,3.8608,3.9047,3.8249,3.7927,3.7855,3.7032,3.6078,3.5217,3.5339,3.5248,3.5191,3.5635,3.5797,3.5734,3.5439,3.5782,3.6046,3.4835,3.5349,3.6009,3.4798,3.4938,3.5371,3.5371,3.5371,3.5525,3.6156,3.6457,3.6567,3.6347,3.6494,3.6641,3.6641,3.6457,3.6032,3.5201,3.3667,3.2147,3.0754,3.0285,2.9591,2.8272,2.8137,2.7697,2.6623,2.6522,2.6116,2.5185,2.5312,2.5473,2.5601,2.5803,2.615,2.67,2.67,2.67,2.67,2.67,2.67,2.67,2.67,2.67,0.0,0.0,3.0133,3.3927,3.6729,3.8938,4.0581,4.158,4.2396,4.3176,4.3396,4.3469,4.3469,4.3469,4.3506,4.3543,4.4158,4.4415,4.3653,4.4195,4.4378,4.3579,4.3506,4.3506,0.0,4.3506,4.3506,4.3506,4.3506,4.3506,4.3506,4.3506,4.3506,4.3506,4.3506,4.3506,4.3506,4.3506,4.3506,4.3506,4.3506,4.3506,4.3506,4.3506,4.3057,4.2269,4.2233,4.1776,4.1062,4.0989,4.0989,4.0952,4.0117,3.9832,3.9722,3.8907,3.7489,3.6033,3.6482,3.6189,3.5643,3.6135,3.6288,3.6288,3.6266,3.6273,3.6303,3.6229,3.6266,3.6303,3.6229,3.6229,3.6266,3.6266,3.6266,3.6273,3.6303,3.6898,3.7235,3.6457,3.6934,3.7456,3.7456,3.6824,3.6398,3.6665,3.5586,3.3988,3.2008,3.0773,2.9803,2.9044,2.8976,2.8942,2.8908,2.8908,2.8256,2.6733,2.7291,2.708,2.5668,2.6285,2.6666,2.67,2.67,2.67,2.67,2.67,2.67,2.67,2.67,2.67,0.0,0.0,3.4535,3.7761,3.9597,4.1,4.2398,4.2919,4.3029,4.2772,4.1543,4.0471,4.0336,4.0141,4.0397,4.1691,4.3201,4.4243,4.4303,4.4516,4.4406,4.3616,4.3506,0.0,0.0,0.0,0.0,4.3506,4.3975,4.4048,4.3543,4.4011,4.4048,4.3506,4.3506,4.3506,4.3506,4.3506,4.3506,4.3506,4.3506,4.3506,4.3506,4.3506,4.3359,4.3065,4.2543,4.2433,4.2616,4.1544,4.1397,4.1801,4.0993,4.07,4.0663,4.0406,3.9906,3.9252,3.8356,3.7865,3.7677,3.7844,3.7881,3.7808,3.7265,3.7485,3.7661,3.6604,3.7074,3.7661,3.6567,3.7074,3.7881,3.7881,3.8285,3.8843,3.9378,3.9276,3.899,3.8733,3.8476,3.8285,3.8285,3.8065,3.7642,3.6926,3.5021,3.329,3.2247,3.1375,3.0548,2.9803,3.0185,3.005,2.9077,2.9441,2.9296,2.8299,2.8459,2.8146,2.7114,2.7291,2.719,2.67,2.67,2.6928,2.7427,2.7427,2.7427,2.7427,2.7427,2.7156,0.0,3.565,3.8066,4.0778,4.2074,4.2904,4.3712,4.3783,4.3324,4.2037,4.0281,3.8829,3.8201,3.7654,3.8072,4.0391,4.2066,4.3357,4.4174,4.4516,4.4406,4.3616,4.3506,4.3506,0.0,0.0,0.0,4.3506,4.4268,4.4342,4.3543,4.4268,4.4333,4.3543,4.3506,4.3506,4.3506,4.3506,4.3506,4.3506,4.3506,4.3506,4.3506,4.3506,4.3322,4.3065,4.2837,4.2873,4.3029,4.2286,4.2249,4.2653,4.1837,4.1544,4.1507,4.1205,4.1095,4.0912,3.9606,3.9129,3.9093,3.8799,3.8681,3.8615,3.8072,3.8285,3.8534,3.7808,3.8322,3.8946,3.8212,3.8791,3.9562,3.9562,3.9937,4.0487,4.0993,4.07,4.0341,4.0341,3.968,3.9129,3.9129,3.8909,3.8366,3.7344,3.5448,3.377,3.2716,3.1769,3.1021,3.0548,3.092,3.0828,2.989,3.0209,3.0176,2.9441,2.9644,2.9305,2.8272,2.8466,2.8272,2.7554,2.7512,2.7749,2.8238,2.8238,2.8238,2.8238,2.8238,2.7977,3.5586,3.8385,4.072,4.2866,4.4002,4.4593,4.4536,4.4184,4.3236,4.1048,3.9535,3.8201,0.0,0.0,3.6537,3.9535,4.0815,4.1969,4.3399,4.4267,4.4532,0.0,0.0,0.0,0.0,0.0,0.0,4.3616,0.0,4.4415,4.3653,4.4378,4.4443,4.3579,4.3616,4.3579,4.3506,4.3506,4.3506,4.3506,4.3506,4.3506,4.3506,4.3506,4.3065,4.2396,4.3176,4.3065,4.2433,4.3176,4.3506,4.3433,4.2653,4.2359,4.2286,4.1507,4.1213,4.1103,4.0304,4.0018,3.9835,3.9019,3.8755,3.8755,3.8726,3.8718,3.8909,3.9688,3.9945,4.012,4.092,4.1132,4.1168,4.1168,4.1177,4.1213,4.1213,4.1177,4.1168,4.1168,4.0487,3.9908,3.9908,3.9239,3.8512,3.8032,3.6818,3.532,3.3413,3.207,3.1292,3.12,3.1224,3.1234,3.12,3.12,3.0886,3.02,3.0818,3.0557,2.9111,2.9736,2.9736,2.901,2.901,2.901,2.9077,2.9077,2.9077,2.9077,2.9077,2.9044,4.0209,4.227,4.3435,4.4391,4.4819,4.475,4.3851,4.2598,4.0935,3.8472,3.5372,3.2986,0.0,0.0,0.0,3.7073,4.0278,0.0,4.4596,4.5509,0.0,4.6179,0.0,4.574,4.574,4.5451,0.0,0.0,4.548,4.5516,4.5296,4.6058,4.5828,4.4443,4.4966,4.4718,4.3506,4.3506,4.3506,4.3506,4.3506,4.3506,4.3506,4.3506,4.3396,4.3212,4.3396,4.3396,4.3212,4.3433,4.3506,4.3469,4.3286,4.3176,4.3176,4.2955,4.2873,4.2763,4.1956,4.1295,4.0663,3.9863,3.957,3.946,3.8872,3.9129,3.9651,3.9835,4.0341,4.0846,4.1058,4.1544,4.1984,4.1984,4.2433,4.2873,4.2873,4.2433,4.1984,4.1984,4.0855,3.9908,3.9908,3.9239,3.865,3.8504,3.7063,3.5513,3.4115,3.3272,3.2408,3.1336,3.1674,3.1809,3.1268,3.12,3.1123,3.092,3.1099,3.0784,2.9871,2.9997,2.9736,2.901,2.901,2.9271,2.9837,2.9837,2.9837,2.9837,2.9837,2.9542,4.2893,4.4509,4.5439,4.5338,4.503,4.4296,4.2486,4.0913,3.8883,3.5386,3.2779,3.0994,3.0722,3.1169,0.0,0.0,0.0,0.0,4.4634,4.567,4.6282,0.0,4.6685,0.0,4.678,4.6413,4.6313,0.0,4.6516,4.6278,4.592,4.6645,4.6526,4.5259,4.5324,4.4929,4.4048,4.4011,4.4011,4.4011,4.3653,4.3506,4.3506,4.3506,4.3506,4.3506,0.0,4.3506,4.3506,4.3506,4.3506,4.3506,4.3506,4.3506,4.3506,4.3506,4.3506,4.3433,4.2992,4.2543,4.1956,4.0818,4.0414,4.0341,3.9892,4.0076,4.0487,4.0855,4.1295,4.169,4.2066,4.2506,4.2837,4.2837,4.3176,4.3506,4.3506,4.3139,4.2727,4.2359,4.1552,4.0716,4.0018,3.9533,3.9129,3.8755,3.7625,3.6471,3.5473,3.419,3.3085,3.2239,3.2554,3.2621,3.2205,3.2171,3.2046,3.1708,3.1674,3.1336,3.0615,3.0581,3.0378,2.9982,2.9958,3.0185,3.0581,3.0581,3.0581,3.0581,3.0581,3.0345,4.4244,4.5586,4.6547,4.5782,4.4859,4.3474,4.0939,3.9189,3.6807,3.2308,3.0988,3.0585,3.0272,3.0479,3.2426,3.7837,0.0,4.0355,4.4285,4.552,4.6107,4.6266,4.7003,4.7513,4.7513,4.7109,4.7194,4.7895,4.763,4.7104,4.636,4.6967,4.7004,4.6314,4.5369,4.4847,4.4847,4.4737,4.4663,4.4516,4.3828,4.3506,4.3506,4.3506,4.3506,4.3506,0.0,0.0,4.3506,4.3506,4.3506,4.3506,4.3506,4.3506,4.3506,4.3506,4.3506,4.3506,4.3506,4.3506,4.3249,4.1764,4.125,4.1242,4.1132,4.1177,4.1397,4.2103,4.2396,4.2616,4.3322,4.3506,4.3506,4.3506,4.3506,4.3506,4.3506,4.3506,4.3286,4.258,4.2359,4.1846,4.0459,4.0128,3.9798,3.8982,3.8396,3.7802,3.7033,3.5171,3.3791,3.3538,3.3596,3.3575,3.3423,3.3413,3.3119,3.2496,3.2361,3.2022,3.1369,3.1268,3.12,3.12,3.12,3.12,3.12,3.12,3.12,3.12,3.12,3.12,4.5128,4.559,4.5782,4.5633,4.4436,4.2624,4.0089,3.7171,0.0,0.0,2.8977,2.8614,2.9231,3.0859,3.3582,3.7999,3.9678,4.1743,4.5477,4.6736,4.7678,0.0,4.9245,4.9581,4.9581,4.9215,0.0,0.0,0.0,4.8885,4.8413,4.8507,4.8507,4.8396,4.6614,4.57,4.57,4.503,4.4378,4.3726,4.3579,4.3506,4.3506,4.3506,4.3506,4.3506,0.0,0.0,4.3506,4.3506,4.3506,4.3506,4.3506,4.3506,4.3506,4.3506,4.3506,4.3506,4.3506,4.3506,4.3322,4.2396,4.2103,4.1984,4.1287,4.1544,4.2139,4.2249,4.2763,4.3322,4.3469,4.3506,4.3506,4.3506,4.3506,4.3506,4.3506,4.3506,4.3469,4.3322,4.2763,4.2213,4.1919,4.1323,4.0626,3.979,3.9258,3.8605,3.7794,3.703,3.59,3.4253,3.4609,3.4521,3.3499,3.3413,3.3345,3.322,3.2621,3.2226,3.2124,3.1539,3.12,3.12,3.12,3.12,3.12,3.12,3.12,3.12,3.12,3.12,4.4936,4.559,4.6163,4.5706,4.4013,4.1542,3.8084,0.0,0.0,2.8508,2.7854,2.8277,2.9544,3.1386,3.3807,3.7134,3.8225,4.0072,4.4083,4.5371,4.6575,4.8495,4.9703,5.0396,0.0,5.003,0.0,0.0,0.0,4.9416,4.9226,4.921,4.903,4.8596,4.788,4.7262,4.6854,4.6258,4.5764,4.5369,4.4525,4.4121,4.4121,4.369,4.3726,4.4085,4.369,0.0,4.4085,4.3653,4.3506,4.3506,4.3506,4.3506,4.3506,4.3506,4.3506,4.3506,4.3506,4.3506,4.3433,4.3065,4.291,4.2845,4.247,4.2616,4.291,4.291,4.3212,4.3506,4.3506,4.3506,4.3506,4.3506,4.3506,4.3506,4.3506,4.3506,4.3506,4.3506,4.3176,4.2808,4.2359,4.1992,4.1434,4.0663,4.0316,4.0,3.9591,3.9013,3.7864,3.5948,3.6063,3.6027,3.5432,3.5129,3.4816,3.4415,3.3805,3.3264,3.2892,3.2148,3.1775,3.1775,3.1403,3.12,3.12,3.1572,3.1572,3.119,3.1572,3.1572,4.4667,4.5586,4.6471,4.5782,4.3551,4.0465,3.6423,3.3385,0.0,2.7272,2.7274,2.839,3.0077,3.1618,3.3468,0.0,3.6734,3.835,4.2277,4.4008,4.5663,0.0,4.963,0.0,5.0707,5.0396,0.0,0.0,0.0,0.0,4.9624,4.9617,4.9329,4.8713,4.8911,4.8604,4.7702,4.7403,4.7114,4.6819,4.5544,4.4957,4.4957,4.4314,4.4342,4.492,4.4305,0.0,0.0,4.4085,4.3763,4.3726,4.3579,4.3506,4.3506,4.3506,4.3506,4.3506,4.3506,4.3506,4.3506,4.3506,4.3506,4.3506,4.3506,4.3506,4.3506,4.3506,4.3506,4.3506,4.3506,4.3506,4.3506,4.3506,4.3506,4.3506,4.3506,4.3506,4.3506,4.3506,4.3506,4.3286,4.2653,4.2543,4.2286,4.147,4.136,4.1287,4.1132,4.0561,3.9612,3.8205,3.7629,3.7304,3.7201,3.6796,3.6261,3.558,3.4987,3.4374,3.366,3.2926,3.2462,3.2293,3.1877,3.1596,3.1437,3.2182,3.2249,3.1698,3.2283,3.2215,4.509,4.559,4.5706,4.5633,4.3094,3.9704,3.6273,0.0,2.9769,2.7156,2.7274,2.839,3.0077,3.1157,3.2657,3.5192,3.6888,3.8815,4.1542,4.4658,4.7005,4.8005,0.0,0.0,5.0707,0.0,0.0,0.0,0.0,0.0,5.0043,5.003,4.9992,4.9954,4.9607,4.8897,4.7702,4.7653,4.7091,4.5993,4.5847,4.5773,4.5773,4.57,4.57,4.5773,0.0,0.0,0.0,4.492,4.459,4.4516,4.38,4.3506,4.3506,4.3506,4.3506,4.3506,4.3506,4.3506,4.3506,4.3506,4.3506,4.3506,4.3506,4.3506,4.3506,4.3506,4.3506,4.3506,4.3506,4.3506,4.3506,4.3506,4.3506,4.3506,4.3506,4.3506,4.3506,4.3506,4.3506,4.3469,4.3396,4.3396,4.3139,4.2323,4.2176,4.1911,4.1177,4.103,4.0924,4.0776,3.8994,3.7667,3.7229,3.7144,3.6878,3.6333,3.5613,3.4964,3.4426,3.3694,3.2983,3.2327,3.2882,3.2882,3.2192,3.2949,3.3243,3.322,3.3288,3.3243,4.2854,4.4436,4.5594,4.5594,4.3017,3.9627,3.6273,0.0,2.9846,2.7813,2.7662,2.839,3.0077,3.1118,3.2042,3.3042,3.3772,3.5468,3.9004,4.1123,4.3585,4.6966,4.8894,0.0,0.0,0.0,0.0,0.0,0.0,0.0,5.0511,5.0467,5.0467,5.0467,5.0087,4.9616,4.914,4.8668,4.8161,4.7684,4.6976,4.6608,4.6608,4.6104,4.6177,4.6608,0.0,0.0,0.0,4.5764,4.5406,4.5333,4.4525,4.4232,4.4158,4.369,4.3506,4.3506,4.3506,4.3506,4.3506,4.3506,4.3506,4.3506,4.3506,4.3506,4.3506,4.3506,4.3506,4.3506,4.3506,4.3506,4.3506,4.3506,4.3506,4.3506,4.3506,4.3506,4.3506,4.3506,4.3506,4.3506,4.3506,4.3506,4.3396,4.3065,4.3029,4.2919,4.258,4.2139,4.1801,4.1801,4.0625,3.9756,3.9549,3.8815,3.8463,3.8731,3.7421,3.654,3.636,3.5323,3.437,3.3637,3.3491,3.3254,3.2949,3.3694,3.3829,3.3413,3.3863,3.3829,4.0816,4.2893,4.459,4.509,4.2281,3.8627,0.0,0.0,2.9311,2.8124,2.7893,2.839,3.0077,3.0885,3.1311,3.1311,3.1734,3.3276,3.6773,3.8854,4.147,0.0,0.0,0.0,0.0,0.0,0.0,0.0,0.0,0.0,0.0,5.0707,5.0707,5.0707,5.044,5.0212,5.0111,4.9547,4.9139,4.8878,4.803,4.7555,4.7452,4.6874,4.6911,4.7406,0.0,0.0,0.0,4.6571,4.6241,4.614,4.5104,4.47,4.459,4.38,4.3506,4.3506,4.3506,4.3506,4.3506,4.3506,4.3506,4.3506,4.3506,4.3506,4.3506,4.3506,4.3506,4.3506,4.3506,4.3506,4.3506,4.3506,4.3506,4.3506,4.3506,4.3506,4.3506,4.3506,4.3506,4.3506,4.3506,4.3506,4.3506,4.3506,4.3506,4.3506,4.3506,4.3029,4.2653,4.2653,4.2139,4.1617,4.114,4.0252,3.9875,4.0275,3.9051,3.8288,3.8209,3.6887,3.5842,3.5113,3.4399,3.3954,3.3728,3.4472,3.4573,3.4055,3.4562,3.4539,3.9627,4.1162,4.2235,4.3893,4.0508,3.6311,0.0,3.0932,2.7931,2.7893,2.7893,2.839,3.0077,3.0423,3.0423,3.0423,3.1811,3.3506,3.5269,3.9115,4.2119,0.0,0.0,0.0,0.0,0.0,0.0,0.0,0.0,0.0,0.0,5.0707,5.0707,5.0707,5.0707,5.0499,5.0117,5.0105,4.968,4.8886,4.8878,4.8674,4.8296,4.826,4.826,0.0,0.0,0.0,0.0,4.7406,4.7076,4.6929,4.5324,4.47,4.459,4.38,4.3506,4.3506,4.3506,4.3506,4.3506,4.3506,4.3506,4.3506,4.3506,4.3506,4.3506,4.3506,4.3506,4.3506,4.3506,4.3506,4.3506,4.3506,4.3506,4.3506,4.3506,4.3506,4.3506,4.3506,4.3506,4.3506,4.3506,4.3506,4.3506,4.3506,4.3506,4.3506,4.3506,4.3506,4.3506,4.3506,4.3469,4.2837,4.1242,4.1095,4.0839,4.0339,4.0266,4.0055,3.9584,3.8286,3.7217,3.6494,3.5885,3.5205,3.4483,3.5239,3.5566,3.5566,3.5566,3.5566,3.3737,3.5084,3.6007,3.7126,3.4891,3.1965,3.0278,2.8393,2.7005,2.7005,2.7508,2.839,3.0077,3.0385,3.0615,3.1195,3.1734,3.2888,0.0,0.0,0.0,4.3624,4.824,0.0,0.0,0.0,0.0,0.0,0.0,0.0,0.0,5.0707,5.0707,5.0707,5.0707,5.0629,5.0504,5.0224,4.9814,4.9303,4.9027,4.8674,4.8296,4.8296,0.0,0.0,0.0,0.0,0.0,4.8039,4.759,4.7003,4.5911,4.5177,4.459,4.38,4.3506,4.3506,4.3506,4.3506,4.3506,4.3506,4.3506,4.3506,4.3506,4.3506,4.3506,4.3506,4.3506,4.3506,4.3506,4.3506,4.3506,4.3506,4.3506,4.3506,4.3506,4.3506,4.3506,4.3506,4.3506,4.3506,4.3506,4.3506,4.3506,4.3506,4.3506,4.3506,4.3506,4.3506,4.3506,4.3506,4.3506,4.3286,4.2763,4.2249,4.208,4.2473,4.1588,4.1023,4.0919,3.9265,3.8248,3.8016,3.6432,3.5746,3.6073,3.5746,3.56,3.56,3.56,3.56,2.9121,3.0852,3.174,3.2971,3.1083,0.0,2.7659,2.6236,2.5428,2.6387,2.7044,2.8005,3.0038,3.0385,3.0692,3.1542,3.1695,0.0,0.0,0.0,0.0,4.4816,0.0,0.0,0.0,0.0,0.0,0.0,0.0,0.0,0.0,5.0707,5.0707,5.0707,5.0707,5.0707,5.0707,5.0462,5.0135,4.9707,4.9326,4.8932,4.8504,4.8392,0.0,0.0,0.0,0.0,0.0,4.8296,4.7819,4.7003,4.6214,4.5406,4.459,4.38,4.3506,4.3506,4.3506,4.3506,4.3506,4.3506,4.3506,4.3506,4.3506,4.3506,4.3543,4.3873,4.3726,4.3579,4.3864,4.3726,4.3506,4.3506,4.3506,4.3506,4.3506,4.3506,4.3506,4.3506,4.3506,4.3506,4.3506,4.3506,4.3506,4.3506,4.3506,4.3506,4.3506,4.3506,4.3506,4.3506,4.3506,4.3506,4.3506,4.3029,4.2955,4.3469,4.2676,4.2196,4.2259,4.0665,3.9673,3.9451,3.7676,3.6922,3.7224,3.6693,3.649,3.649,3.649,3.649,0.0,2.778,2.8819,3.0544,2.8541,2.6156,2.6156,2.4428,0.0,2.5928,2.6582,2.7426,2.9846,3.0423,3.0769,3.158,3.1849,0.0,0.0,3.7892,0.0,0.0,0.0,0.0,0.0,0.0,0.0,0.0,0.0,0.0,0.0,5.0707,5.0707,5.0707,5.0707,5.0707,5.0707,5.0707,5.0493,5.0111,4.9707,4.9333,4.8911,4.855,0.0,0.0,0.0,0.0,0.0,4.8336,4.7876,4.7058,4.6223,4.5406,4.459,4.38,4.3506,4.3506,4.3506,4.3506,4.3506,4.3506,4.3506,4.3506,4.3506,4.3506,4.3653,4.448,4.4121,4.369,4.448,4.4085,4.3506,4.3506,4.3506,4.3506,4.3506,4.3506,4.3506,4.3579,4.3543,4.3506,4.3579,4.3579,4.3579,4.3579,4.3579,4.3579,4.3579,4.3543,4.3506,4.3506,4.3506,4.3506,4.3506,4.3506,4.3506,4.3506,4.3506,4.3506,4.3506,4.2214,4.1269,4.0847,3.9465,3.8481,3.791,3.791,3.791,3.791,3.791,3.791,1.9508,0.0,2.178,2.3466,2.2848,2.1769,0.0,2.2312,2.3163,2.4432,2.6241,2.797,2.9162,3.0506,3.1465,3.1657,0.0,0.0,3.5423,0.0,0.0,0.0,0.0,0.0,0.0,0.0,0.0,0.0,0.0,0.0,0.0,5.0707,5.0707,5.0707,5.0707,5.0707,5.0707,5.0707,5.0493,5.0111,4.9993,4.9734,4.9356,4.9257,0.0,0.0,0.0,0.0,4.9187,4.8898,4.827,4.7465,4.6331,4.5406,4.459,4.38,4.3506,4.3506,4.3506,4.3506,4.3506,4.3506,4.3506,4.3506,4.3506,4.3506,4.3653,4.448,4.4121,4.369,4.448,4.4085,4.3506,4.3506,4.3506,4.3506,4.3506,4.3506,4.369,4.4305,4.3901,4.369,4.4305,4.4415,4.4415,4.4415,4.4415,4.4415,4.4415,4.3864,4.3506,4.3506,4.3506,4.3506,4.3506,4.3506,4.3506,4.3506,4.3506,4.3506,4.3506,4.2214,4.1709,4.2204,4.0478,3.9009,3.791,3.791,3.791,3.791,3.791,3.791,1.6928,1.8353,1.9813,2.0733,2.0887,2.0848,2.0848,2.1273,2.2006,2.324,2.4935,2.6741,2.8742,2.9855,3.116,3.3119,3.4615,0.0,0.0,0.0,0.0,0.0,0.0,0.0,0.0,0.0,0.0,0.0,0.0,0.0,0.0,5.0707,5.0707,5.0707,5.0707,5.0707,5.0707,5.0707,5.0599,5.0364,5.0183,4.9981,4.9786,4.9575,0.0,0.0,0.0,0.0,4.9475,4.9265,4.8581,4.7603,4.6589,4.5573,4.459,4.38,4.3506,4.3506,4.3506,4.3506,4.3506,4.3506,4.3506,4.3506,4.3506,4.3763,4.4232,4.503,4.4929,4.4718,4.5149,4.4635,4.3975,4.3579,4.3506,4.3506,4.3506,4.38,4.4195,4.4626,4.4342,4.4195,4.4626,4.47,4.4553,4.4195,4.4443,4.4553,4.4195,4.3763,4.3506,4.3506,4.3506,4.3506,4.3506,4.3506,4.3506,4.3506,4.3506,4.3506,4.3506,4.2812,4.2384,4.2302,4.0977,3.9823,3.8916,3.8916,3.8916,3.8916,3.915,3.928,1.6426,1.8465,2.0269,2.0117,2.0925,2.1696,2.1696,2.1387,2.1464,2.2891,2.4086,2.5743,2.8588,2.9627,0.0,0.0,0.0,0.0,4.2816,4.5051,0.0,0.0,0.0,0.0,0.0,0.0,0.0,0.0,0.0,0.0,0.0,5.0707,5.0707,5.0707,5.0707,5.063,5.0515,5.063,5.0707,5.0707,5.0353,5.0189,5.0177,4.9852,4.9673,0.0,0.0,0.0,4.9666,4.961,4.8874,4.7724,4.6856,4.5774,4.459,4.38,4.3506,4.3506,4.3506,4.3506,4.3506,4.3506,4.3579,4.369,4.369,4.4342,4.5214,4.5883,4.5993,4.5883,4.5883,4.5406,4.4663,4.3873,4.3763,4.3873,4.3873,4.4305,4.4773,4.503,4.4773,4.4626,4.4993,4.4957,4.47,4.4121,4.4626,4.481,4.413,4.3947,4.3873,4.3873,4.3873,4.3873,4.3873,4.3763,4.369,4.369,4.3579,4.3506,4.3506,4.3506,4.3014,4.1958,4.1329,4.0756,4.0217,4.0129,4.0113,4.0125,4.066,4.092,1.7082,1.8888,2.0117,1.9394,2.0893,2.2583,2.2583,2.3618,2.4615,2.4846,2.6736,2.8472,2.9011,3.2083,3.4731,0.0,0.0,4.185,0.0,0.0,0.0,0.0,0.0,0.0,0.0,0.0,0.0,0.0,0.0,0.0,0.0,0.0,5.0707,5.0707,5.0707,5.0361,4.963,5.0322,5.0707,5.0707,5.0629,5.0609,5.0609,5.0525,5.0509,0.0,0.0,5.0509,5.0488,5.0153,4.9313,4.8097,4.6943,4.5774,4.459,4.38,4.3506,4.3506,4.3506,4.3506,4.3506,4.3506,4.3975,4.4516,4.4516,4.5544,4.6746,4.6892,4.6425,4.5883,4.5883,4.581,4.5516,4.47,4.5039,4.5516,4.5516,4.5076,4.5104,4.6452,4.5076,4.4342,4.6388,4.6168,4.592,4.6461,4.6636,4.6672,4.6562,4.5948,4.5516,4.5516,4.5516,4.5516,4.5516,4.4929,4.4516,4.4516,4.3864,4.3506,4.3506,4.3506,4.3205,4.2577,4.1969,4.1351,4.078,4.0306,4.0113,4.0125,4.066,4.092,1.6157,1.7928,1.9621,1.9698,2.1624,2.3511,2.3511,2.4086,2.4928,2.581,2.7659,2.9511,3.0894,0.0,3.6385,3.9158,0.0,0.0,0.0,0.0,0.0,0.0,0.0,0.0,0.0,0.0,0.0,0.0,0.0,0.0,0.0,0.0,5.0476,5.0014,5.0438,5.0284,4.9394,5.0245,5.0476,5.0014,5.0014,5.0245,5.0668,5.0207,5.0245,5.0707,0.0,5.0707,5.0659,4.9995,4.9178,4.8166,4.6701,4.5523,4.459,4.38,4.3506,4.3506,4.3506,4.38,4.4158,4.4158,4.4709,4.5369,4.5369,4.6168,4.7113,4.7113,4.7159,4.7095,4.6645,4.6535,4.6351,4.5544,4.5626,4.5883,4.5883,4.5948,4.6232,4.6966,4.6205,4.5801,4.6892,4.6792,4.6535,4.6461,4.6828,4.6929,4.6498,4.614,4.5883,4.5883,4.5883,4.5736,4.5287,4.5296,4.4966,4.4121,4.369,4.3506,4.3506,4.3506,4.3241,4.2693,4.2422,4.1989,4.1408,4.1139,4.1001,4.1013,4.1606,4.1874,1.5963,1.7507,1.9319,2.0581,2.266,2.4625,2.5664,2.6012,2.6703,2.8582,3.016,3.1778,3.3737,3.585,0.0,4.297,4.5663,0.0,0.0,0.0,0.0,0.0,0.0,0.0,0.0,0.0,0.0,0.0,0.0,0.0,0.0,0.0,5.0207,4.9125,4.9938,4.9899,4.8817,4.9668,4.9976,4.9707,4.951,4.9745,5.0361,4.9471,4.9471,5.0091,5.0322,5.0399,5.0361,4.9899,4.9084,4.7994,4.6621,4.5395,4.4342,4.3726,4.3506,4.3543,4.3726,4.4195,4.4737,4.492,4.5544,4.6177,4.6177,4.6755,4.7369,4.7369,4.7819,4.8113,4.7296,4.7223,4.7195,4.6361,4.6324,4.6471,4.6471,4.6792,4.7149,4.7333,4.7076,4.6929,4.7333,4.7223,4.6938,4.6544,4.6975,4.7159,4.6544,4.6471,4.6471,4.6471,4.6471,4.614,4.5324,4.5838,4.548,4.3864,4.38,4.369,4.3506,4.3506,4.3303,4.291,4.2751,4.2462,4.2,4.1874,4.181,4.1821,4.2412,4.2693,1.8318,1.8857,1.9588,2.2008,2.3925,2.6269,3.0234,3.1737,3.2968,3.5465,3.6696,3.743,3.7584,4.0315,4.3162,4.509,4.6894,0.0,0.0,0.0,0.0,0.0,0.0,0.0,0.0,0.0,0.0,0.0,0.0,0.0,0.0,0.0,0.0,4.8235,4.9048,4.8702,4.7081,4.7889,4.9086,5.0592,4.9784,4.9433,4.9471,4.8586,4.8235,4.8312,4.9125,4.9471,4.9553,5.0284,4.9437,4.7603,4.7194,4.5612,4.3579,4.3506,4.3506,4.3616,4.4333,4.4663,4.481,4.5553,4.6351,4.7003,4.7003,4.7599,4.8223,4.8223,4.826,4.8113,4.7296,4.7636,4.8003,4.7186,4.7599,4.8113,4.8113,4.7599,4.7333,4.8076,4.7021,4.6471,4.7976,4.7599,4.7333,4.8003,4.8186,4.8186,4.8113,4.8113,4.8113,4.8113,4.8113,4.7783,4.7003,4.6966,4.6342,4.4737,4.4626,4.4268,4.3543,4.3506,4.3489,4.3426,4.293,4.2674,4.2635,4.2062,4.181,4.1821,4.2412,4.2693,1.7276,1.8969,2.116,2.3733,2.6423,2.8885,3.0538,3.2352,3.4587,3.7661,3.8973,4.005,4.1623,0.0,4.5051,4.6201,0.0,0.0,0.0,0.0,0.0,0.0,0.0,0.0,0.0,0.0,0.0,0.0,0.0,0.0,0.0,0.0,0.0,4.7389,4.8159,4.8043,4.6928,4.7697,4.8432,4.9086,4.824,4.8125,4.8548,4.7735,4.7928,4.8933,4.924,4.9707,5.0207,4.9976,4.9327,4.8301,4.7163,4.5848,4.4576,4.4888,4.5011,4.5039,4.5333,4.5764,4.6232,4.6535,4.7195,4.7856,4.7856,4.8076,4.8296,4.8296,4.8296,4.8223,4.7929,4.8076,4.8223,4.7929,4.8076,4.8296,4.8296,4.8076,4.7929,4.8223,4.7819,4.7609,4.8186,4.8039,4.7966,4.826,4.8296,4.8296,4.8296,4.8296,4.8296,4.8296,4.7856,4.7636,4.7819,4.7369,4.6856,4.6232,4.525,4.4342,4.3543,4.3506,4.3506,4.3506,4.3294,4.3196,4.3196,4.2977,4.2847,4.2857,4.3078,4.3196,1.6505,1.8773,2.1733,2.4272,2.7887,3.1154,3.2503,3.4353,3.6857,4.0512,4.1935,4.2974,4.4436,0.0,0.0,0.0,0.0,0.0,0.0,0.0,0.0,0.0,0.0,0.0,0.0,0.0,0.0,0.0,0.0,0.0,0.0,0.0,0.0,0.0,4.7274,4.7312,4.6509,4.7048,4.7317,4.7317,4.674,4.6928,4.7697,4.6855,4.7124,4.8206,4.8471,4.9086,4.9822,4.924,4.8785,4.8345,4.6952,4.6098,4.5642,4.5978,4.6027,4.5957,4.6177,4.6645,4.7149,4.7406,4.7856,4.8296,4.8296,4.8296,4.8296,4.8296,4.8296,4.8296,4.8296,4.8296,4.8296,4.8296,4.8296,4.8296,4.8296,4.8296,4.8296,4.8296,4.8296,4.8296,4.8296,4.8296,4.8296,4.8296,4.8296,4.8296,4.8296,4.8296,4.8296,4.8296,4.7819,4.7709,4.826,4.7783,4.7369,4.7113,4.5838,4.4709,4.3901,4.3616,4.3506,4.3506,4.3506,4.3506,4.3506,4.3506,4.3506,4.3506,4.3506,4.3506,1.6543,1.8386,2.0964,2.3511,2.8008,3.2852,3.7046,3.8703,4.0512,4.471,4.6278,4.662,4.5744,4.5594,0.0,0.0,0.0,0.0,0.0,0.0,0.0,0.0,0.0,0.0,0.0,0.0,0.0,0.0,0.0,0.0,0.0,0.0,0.0,0.0,4.6432,4.6471,4.5594,4.5594,4.5594,4.5594,4.5594,4.6052,4.6851,4.5975,4.5594,4.5667,4.6547,4.7351,4.8082,4.8082,4.7908,4.7514,4.6658,4.6372,4.6504,4.6496,4.6276,4.603,4.6828,4.7113,4.7223,4.8039,4.8296,4.8296,4.8296,4.8296,4.8296,4.8296,4.8296,4.8296,4.8296,4.8296,4.8296,4.8296,4.8296,4.8296,4.8296,4.8296,4.8296,4.8296,4.8296,4.8296,4.8296,4.8296,4.8296,4.8296,4.8296,4.8296,4.8296,4.8296,4.8296,4.8296,4.8296,4.8296,4.8296,4.8296,4.7966,4.7149,4.6351,4.5553,4.4737,4.3938,4.3506,4.3506,4.3506,4.3506,4.3506,4.3506,4.3506,4.3506,4.3506,4.3506,1.9348,2.1462,2.4731,2.8506,3.1926,3.5311,3.8934,3.9977,4.1016,4.4051,4.6317,4.7317,4.5859,4.6086,0.0,0.0,0.0,0.0,0.0,0.0,0.0,0.0,0.0,0.0,0.0,0.0,0.0,0.0,0.0,0.0,0.0,0.0,0.0,0.0,4.5859,4.5859,4.5594,4.5594,4.5594,4.5594,4.5594,4.5744,4.5975,4.5706,4.5936,4.6547,4.6774,4.7351,4.8082,4.8082,4.7698,4.7131,4.7497,4.7329,4.6945,4.7545,4.7703,4.7599,4.7856,4.7929,4.7966,4.8223,4.8296,4.8296,4.8296,4.8296,4.8296,4.8296,4.8296,4.8296,4.8296,4.8746,4.905,4.8453,4.8296,4.8296,4.8296,4.8296,4.8296,4.8296,4.8296,4.8489,4.9123,4.871,4.8526,4.9123,4.8673,4.8296,4.8296,4.8296,4.8296,4.8296,4.8296,4.8296,4.8296,4.8296,4.8186,4.7966,4.7195,4.6131,4.4773,4.448,4.4085,4.3506,4.4048,4.4085,4.3506,4.3506,4.3506,4.3506,4.3506,4.3506,1.9388,2.2464,2.6692,3.0272,3.3849,3.7388,4.0743,4.2051,4.3166,4.5355,4.6778,4.7389,4.6701,4.6471,0.0,0.0,0.0,0.0,0.0,0.0,0.0,0.0,0.0,0.0,0.0,0.0,0.0,0.0,0.0,0.0,0.0,0.0,0.0,0.0,4.5594,4.5594,4.5594,4.5594,4.5594,4.5594,4.5594,4.5594,4.5594,4.5594,4.5898,4.6394,4.6735,4.6966,4.7124,4.7466,4.7351,4.6934,4.747,4.7384,4.7111,4.7934,4.8069,4.7856,4.8186,4.8296,4.8296,4.8296,4.8296,4.8296,4.8296,4.8296,4.8296,4.8296,4.8296,4.8296,4.8296,4.894,4.938,4.8526,4.882,4.9104,4.8443,4.8563,4.871,4.8379,4.8296,4.8489,4.8976,4.8636,4.8489,4.9003,4.8636,4.8296,4.8296,4.8296,4.8296,4.8296,4.8296,4.8296,4.8296,4.8296,4.8296,4.8296,4.7553,4.6672,4.5691,4.536,4.4819,4.3975,4.4782,4.4782,4.3975,4.3975,4.3975,4.3975,4.3653,4.3506,1.8238,2.2353,2.731,3.0231,3.4811,3.9392,4.2585,4.4513,4.6013,4.7471,0.0,4.7197,4.7774,4.6701,0.0,0.0,0.0,0.0,0.0,0.0,0.0,0.0,0.0,0.0,0.0,0.0,0.0,0.0,0.0,0.0,0.0,0.0,0.0,0.0,4.5594,4.5594,4.5594,4.5594,4.5594,0.0,4.5594,4.5594,4.5594,4.5594,4.5594,4.5629,4.6432,4.6317,4.5667,4.6432,4.6774,4.6774,4.6823,4.6893,4.7047,4.7763,4.7663,4.7316,4.8015,4.8328,4.8402,4.8402,4.8364,4.8336,4.8336,4.8335,4.8296,4.8296,4.8296,4.8333,4.8416,4.9013,4.938,4.86,4.9591,5.0288,4.8746,4.8976,4.9233,4.8443,4.8296,4.8333,4.8416,4.8333,4.8296,4.8296,4.8296,4.8296,4.8296,4.8296,4.8296,4.8296,4.8296,4.8296,4.8296,4.8296,4.8296,4.8296,4.7599,4.7223,4.7223,4.6425,4.5626,4.4847,4.559,4.559,4.47,4.47,4.4663,4.4553,4.3836,4.3506,2.2357,2.4623,2.8003,3.3888,3.92,4.332,4.4744,4.5321,4.5513,4.5163,4.6586,4.7509,4.636,0.0,0.0,0.0,0.0,0.0,0.0,0.0,0.0,0.0,0.0,0.0,0.0,0.0,0.0,0.0,0.0,0.0,0.0,0.0,0.0,4.5594,4.5594,4.5594,4.5594,4.5594,4.5594,0.0,4.5594,4.5594,4.5594,4.5594,4.5594,4.5594,4.5782,4.5782,4.5594,4.5782,4.5898,4.5914,4.6273,4.6445,4.6491,4.6712,4.7288,4.7942,4.7847,4.8447,4.9241,4.9241,4.9019,4.877,4.877,4.8541,4.8296,4.8296,4.8296,4.8453,4.9123,4.9454,4.9527,4.9344,4.9601,4.9747,4.938,4.894,4.8526,4.8333,4.8296,4.8526,4.9197,4.8746,4.8296,4.8296,4.8296,4.8296,4.8296,4.8296,4.8296,4.8296,4.8296,4.8296,4.8296,4.8296,4.8296,4.8296,4.815,4.8039,4.8039,4.7269,4.6461,4.5663,4.6425,4.6131,4.47,4.47,4.4378,4.3763,4.3579,4.3506,2.3009,2.5587,2.9506,3.6738,4.1431,4.4513,4.5398,4.5594,4.5475,4.5013,4.5975,4.674,0.0,0.0,0.0,0.0,0.0,0.0,0.0,0.0,0.0,0.0,0.0,0.0,0.0,0.0,0.0,0.0,0.0,0.0,0.0,4.5594,4.5594,4.5594,4.5594,4.5594,4.5594,4.5594,4.5594,4.5594,4.5594,4.5594,4.5594,4.5594,4.5594,4.5594,4.5594,4.5594,4.5594,4.5594,4.5594,4.5615,4.586,4.5872,4.5784,4.6181,4.6663,4.7146,4.771,4.8348,4.8961,4.9338,4.9356,4.9147,4.8945,4.8753,4.8541,4.8336,4.8296,4.8416,4.8857,4.927,4.961,4.961,4.9894,4.9968,4.916,4.894,4.8783,4.8379,4.8296,4.8453,4.8903,4.86,4.8296,4.8296,4.8296,4.8296,4.8296,4.8296,4.8296,4.8296,4.8296,4.8296,4.8296,4.8296,4.8296,4.8296,4.8296,4.8296,4.8296,4.7893,4.7305,4.6498,4.7269,4.7085,4.5838,4.5471,4.5076,4.4644,4.4232,4.4085,2.2314,2.62,3.1435,3.8515,4.2089,4.4124,4.5167,4.5359,4.5436,4.5556,4.5594,4.5821,0.0,0.0,0.0,0.0,0.0,0.0,0.0,0.0,0.0,0.0,0.0,0.0,0.0,0.0,0.0,0.0,0.0,0.0,4.5594,4.5594,4.5594,4.5594,4.5594,4.5594,4.5594,4.5594,4.5594,4.5594,4.5594,4.5594,4.5594,4.5594,4.5594,4.5594,4.5594,4.5594,4.5594,4.5594,4.5594,4.5594,4.5594,4.5429,4.5262,4.5878,4.6066,4.6177,4.7448,4.8118,4.8544,4.9232,4.9532,4.9525,4.9123,4.8945,4.8822,4.8411,4.8296,4.8333,4.8489,4.894,4.9417,4.9574,4.9994,5.0031,4.8783,4.8967,4.916,4.8453,4.8296,4.8296,4.8296,4.8296,4.8296,4.8296,4.8296,4.8296,4.8296,4.8296,4.8296,4.8296,4.8296,4.8296,4.8296,4.8296,4.8296,4.8296,4.8296,4.8296,4.8296,4.8296,4.8003,4.7333,4.7966,4.7856,4.6902,4.6351,4.5957,4.5663,4.4993,4.4773,2.2124,2.7508,3.3545,3.828,4.0816,4.2543,4.4124,4.4474,4.4705,0.0,4.5594,0.0,0.0,0.0,0.0,0.0,0.0,0.0,0.0,0.0,0.0,0.0,0.0,0.0,0.0,0.0,0.0,0.0,0.0,0.0,4.5594,4.5594,4.5594,4.5594,4.5594,4.5594,4.5594,4.5594,4.5594,4.5594,4.5594,4.5594,4.5594,4.5594,4.5594,4.5594,4.5594,4.5594,4.5594,4.5594,4.5594,4.5594,4.5594,4.5573,4.5518,4.5321,4.5893,4.6719,4.6598,4.7712,4.9253,4.9363,4.9696,4.9943,4.954,4.9179,4.8822,4.8411,4.8296,4.8489,4.9233,4.894,4.8673,4.9427,4.9114,4.8783,4.9307,4.894,4.8453,4.8333,4.8296,4.8296,4.8296,4.8296,4.8296,4.8296,4.8296,4.8296,4.8296,4.8296,4.8296,4.8296,4.8296,4.8296,4.8296,4.8296,4.8296,4.8296,4.8296,4.8296,4.8296,4.8296,4.826,4.815,4.826,4.7562,4.6067,4.6645,4.6205,4.4847,4.4737,4.5067,2.2124,2.7044,3.2272,3.5626,3.8084,4.0235,4.2393,4.2893,4.3162,4.4013,0.0,0.0,0.0,0.0,0.0,0.0,0.0,0.0,0.0,0.0,0.0,0.0,0.0,0.0,0.0,0.0,0.0,0.0,0.0,4.4667,4.4205,4.4205,4.4205,4.4205,4.4205,4.4205,4.4205,4.4205,4.4205,4.4205,4.4667,4.4859,4.4898,4.5359,4.5594,4.5594,4.5594,4.5594,4.5594,4.5594,4.5594,4.5594,4.5594,4.5594,4.5581,4.5434,4.573,4.6226,4.6537,4.7535,4.874,4.924,4.9854,5.0325,4.968,4.9378,4.91,4.8486,4.8296,4.837,4.8783,4.86,4.8416,4.8783,4.86,4.8416,4.8783,4.8563,4.8296,4.8296,4.8296,4.8453,4.893,4.8636,4.8489,4.894,4.86,4.8296,4.8296,4.8296,4.8296,4.8296,4.8296,4.8296,4.8296,4.8296,4.8296,4.8296,4.8296,4.8296,4.8296,4.8296,4.8296,4.8296,4.8296,4.7929,4.7241,4.7159,4.6746,4.6049,4.6049,4.6232,2.2432,2.6043,2.9808,3.2817,3.5164,3.743,4.0196,0.0,4.1466,0.0,0.0,0.0,0.0,0.0,0.0,0.0,0.0,0.0,0.0,0.0,0.0,0.0,0.0,0.0,0.0,0.0,0.0,0.0,0.0,4.3739,4.3124,4.3085,4.3085,4.3085,4.3085,4.3085,4.3085,4.3085,4.3085,4.3124,4.3932,4.4201,4.4047,4.509,4.5475,4.5282,4.5513,4.5594,4.5594,4.5594,4.5594,4.5594,4.5594,4.5594,4.5594,4.5594,4.5594,4.5706,4.6355,4.712,4.7889,4.8548,4.9476,5.0233,4.9523,4.9417,4.9348,4.8658,4.8364,4.8296,4.8296,4.8296,4.8296,4.8296,4.8296,4.8296,4.8296,4.8296,4.8296,4.8296,4.8296,4.8526,4.916,4.871,4.86,4.9454,4.905,4.8636,4.8636,4.8636,4.8517,4.8333,4.8296,4.8296,4.8296,4.8296,4.8296,4.8296,4.8296,4.8296,4.8296,4.8296,4.8296,4.8296,4.8296,4.8186,4.8003,4.759,4.7296,4.7113,4.7113,4.7223,2.3357,2.4774,2.6577,3.0772,3.2506,3.4045,3.743,0.0,3.9896,0.0,0.0,0.0,0.0,0.0,0.0,0.0,0.0,0.0,0.0,0.0,0.0,0.0,0.0,0.0,0.0,0.0,0.0,0.0,0.0,4.3124,4.3085,4.3085,4.3085,4.3085,4.3085,4.3085,4.3085,4.3085,4.3085,4.3124,4.3932,4.3893,4.3201,4.4859,4.5167,4.4397,4.5244,4.5594,4.5594,4.5594,4.5594,4.5594,4.5594,4.5594,4.5594,4.5594,4.5594,4.5594,4.5667,4.624,4.6966,4.7005,4.8125,4.9384,4.8955,4.9161,4.9408,4.8978,4.8595,4.8296,4.8296,4.8296,4.8296,4.8296,4.8296,4.8296,4.8296,4.8296,4.8296,4.8296,4.8296,4.8296,4.837,4.8333,4.86,4.9454,4.9574,4.9537,4.9537,4.949,4.915,4.837,4.8296,4.8296,4.8296,4.8296,4.8296,4.8296,4.8296,4.8296,4.8296,4.8296,4.8296,4.8296,4.8296,4.7929,4.7149,4.7893,4.7856,4.7113,4.7113,4.7516,2.2043,2.3468,2.5007,2.708,2.8657,3.0163,3.1894,3.3779,3.551,0.0,0.0,0.0,0.0,0.0,0.0,0.0,0.0,0.0,0.0,0.0,0.0,0.0,0.0,0.0,0.0,0.0,0.0,0.0,0.0,0.0,4.1474,4.1435,4.1435,4.1435,4.1435,4.1435,4.1435,4.1435,4.1435,4.1435,4.2277,4.2854,4.3124,4.4244,4.4898,4.5167,4.5475,4.5594,4.5594,4.5594,4.5594,4.5594,4.5594,4.5594,4.5594,4.5594,4.5594,4.5594,4.5594,4.6163,4.6889,4.6889,4.7851,4.8951,4.8542,4.8745,4.9019,4.864,4.8402,4.8296,4.8296,4.8296,4.8296,4.8296,4.8296,4.8443,4.9013,4.8673,4.8296,4.8296,4.8296,4.8627,4.9738,4.9481,4.9601,5.0922,5.0702,5.0362,5.0362,4.9894,4.9454,4.916,4.8636,4.8296,4.8296,4.8296,4.8296,4.8296,4.8296,4.8296,4.8296,4.8296,4.8296,4.8296,4.8296,4.815,4.7856,4.815,4.815,4.7856,4.7856,4.8003,2.216,2.3201,2.4281,2.5115,2.6387,2.7585,2.8124,0.0,3.2737,0.0,0.0,0.0,0.0,0.0,0.0,0.0,0.0,0.0,0.0,0.0,0.0,0.0,0.0,0.0,0.0,0.0,0.0,0.0,0.0,0.0,4.0516,4.0516,4.0516,4.0516,4.0516,4.0516,4.0516,4.0516,4.0516,4.0516,4.1393,4.2081,4.2701,4.3816,4.4628,4.5167,4.5475,4.5594,4.5594,4.5594,4.5594,4.5594,4.5594,4.5594,4.5594,4.5594,4.5594,4.5594,4.5594,4.5975,4.6471,4.6471,4.7232,4.8149,4.8173,4.8416,4.8653,4.8696,4.8523,4.8296,4.8296,4.8296,4.8296,4.8296,4.8526,4.8893,4.9454,4.894,4.837,4.8673,4.8489,4.8737,5.0141,4.9968,5.0161,5.1767,5.1536,5.1206,5.1206,5.0739,5.0198,4.9647,4.9087,4.8636,4.8333,4.8296,4.8296,4.8296,4.8296,4.8296,4.8296,4.8296,4.8296,4.8296,4.8296,4.8296,4.8296,4.8296,4.8296,4.8296,4.8296,4.8296,0.0,0.0,0.0,0.0,0.0,0.0,2.6503,0.0,3.1734,0.0,0.0,0.0,0.0,0.0,0.0,0.0,0.0,0.0,0.0,0.0,0.0,0.0,0.0,0.0,0.0,0.0,0.0,0.0,0.0,4.0516,4.0516,4.0516,4.0516,4.0516,4.0516,4.0516,4.0516,4.0516,4.0516,4.0516,4.1354,4.1773,4.185,4.3508,4.4278,4.4359,4.5205,4.5594,4.5594,4.5594,4.5594,4.5594,4.5594,4.5594,4.5594,4.5594,4.5594,4.5594,4.5594,4.5594,4.5594,4.5633,4.6197,4.7029,4.788,4.8166,4.8374,4.9248,4.8915,4.8296,4.8296,4.8296,4.8296,4.8333,4.8976,4.961,4.9647,4.9003,4.8636,4.9454,4.893,4.8636,4.949,4.9647,5.0188,5.1803,5.2024,5.2024,5.2024,5.2024,5.14,4.9831,4.9647,4.927,4.8443,4.8333,4.8296,4.8333,4.8296,4.8296,4.8296,4.8296,4.8296,4.8296,4.8296,4.8296,4.8296,4.8296,4.8296,4.8296,4.8296,4.8296,2.4579,0.0,0.0,0.0,0.0,0.0,0.0,0.0,0.0,0.0,0.0,0.0,0.0,0.0,0.0,0.0,0.0,0.0,0.0,0.0,0.0,0.0,0.0,0.0,0.0,0.0,0.0,0.0,4.0319,4.0516,4.0516,4.0516,4.0516,4.0516,4.0516,4.0516,4.0516,4.0516,4.0516,4.0516,4.0743,4.12,4.185,4.2931,4.3739,4.4359,4.5205,4.5594,4.5594,4.5594,4.5594,4.5594,4.5594,4.5594,4.5594,4.5594,4.5594,4.5594,4.5594,4.5594,4.5706,4.6355,4.6493,4.674,4.816,4.8265,4.8018,4.8827,4.872,4.8296,4.8296,4.8296,4.8453,4.9087,4.9417,4.9941,5.1069,5.0692,4.9994,4.9684,4.9884,5.0178,5.0435,5.0959,5.1693,5.2711,5.2847,5.2847,5.2847,5.2344,5.184,5.1363,5.0298,4.9747,5.0068,4.8994,4.8563,4.9197,4.8636,4.8296,4.8296,4.8296,4.8296,4.8296,4.8296,4.8296,4.8296,4.8296,4.8296,4.8296,4.8296,4.8296,0.0,0.0,0.0,0.0,0.0,0.0,2.243,2.3581,0.0,0.0,0.0,0.0,0.0,0.0,0.0,0.0,0.0,0.0,0.0,0.0,0.0,0.0,0.0,0.0,0.0,0.0,0.0,3.8742,3.9511,4.0169,4.0477,4.0516,4.0516,4.0516,4.0169,4.0169,4.0516,4.0169,4.0169,4.0516,4.0516,4.1166,4.235,4.2854,4.3739,4.4859,4.5359,4.5594,4.5594,4.5594,4.5594,4.5594,4.5594,4.5594,4.5594,4.5594,4.5594,4.5594,4.5594,4.5594,4.5667,4.6201,4.6441,4.6804,4.811,4.8231,4.8067,4.8915,4.8727,4.8296,4.8296,4.8296,4.8416,4.893,4.9344,4.9867,5.0812,5.0875,5.0765,5.0629,5.0702,5.0912,5.1242,5.1683,5.227,5.3067,5.3214,5.3214,5.3214,5.2784,5.238,5.2024,5.1143,5.0518,5.0325,4.9407,4.8893,4.905,4.86,4.8296,4.8296,4.8296,4.8296,4.8296,4.8296,4.8296,4.8296,4.8296,4.8296,4.8296,4.8296,4.8296,0.0,0.0,0.0,0.0,0.0,0.0,2.2312,2.3045,2.4589,0.0,0.0,0.0,0.0,0.0,0.0,0.0,0.0,0.0,0.0,0.0,0.0,0.0,0.0,0.0,0.0,3.7853,3.7853,3.7853,3.8742,3.955,4.0208,4.0323,4.0362,4.0362,3.9665,3.9708,4.0477,3.9785,3.9785,4.0516,4.0516,4.1358,4.297,4.3047,4.3974,4.5475,4.5556,4.5594,4.5594,4.5594,4.5594,4.5594,4.5594,4.5594,4.5594,4.5594,4.5594,4.5594,4.5594,4.5594,4.5633,4.5706,4.6201,4.6928,4.7928,4.814,4.8254,4.9122,4.8856,4.8296,4.8296,4.8296,4.8333,4.8406,4.905,4.961,4.9711,5.0298,5.1022,5.173,5.1353,5.1132,5.1767,5.2024,5.238,5.3104,5.3214,5.3214,5.3214,5.3214,5.292,5.2197,5.206,5.1473,5.0115,4.9757,4.9307,4.8636,4.8406,4.8296,4.8296,4.8296,4.8296,4.8296,4.8296,4.8343,4.8453,4.8343,4.8296,4.8296,4.8296,4.8296,0.0,0.0,0.0,0.0,0.0,0.0,2.4808,2.4315,2.4781,0.0,0.0,0.0,0.0,0.0,0.0,0.0,0.0,0.0,0.0,0.0,0.0,0.0,0.0,0.0,0.0,3.6965,3.6965,3.6965,3.8392,3.905,3.8507,3.9165,3.9511,3.9511,3.9396,3.9708,4.0477,4.0323,4.0323,4.0516,4.0516,4.105,4.2081,4.2777,4.3624,4.459,4.5282,4.5594,4.5594,4.5594,4.5594,4.5594,4.5594,4.5594,4.5594,4.5594,4.5594,4.5594,4.5594,4.5594,4.5706,4.6432,4.6278,4.6283,4.8471,4.826,4.7401,4.8275,4.8411,4.8296,4.8296,4.8296,4.8489,4.9197,4.95,4.9794,5.0435,5.0692,5.0839,5.0986,5.1426,5.161,5.1132,5.2123,5.3031,5.3177,5.3214,5.3214,5.3214,5.3214,5.3141,5.2994,5.238,5.2134,5.2491,5.0702,4.9784,5.0288,4.903,4.8296,4.8296,4.8296,4.8296,4.8296,4.8296,4.8636,4.9344,4.8636,4.8296,4.8296,4.8296,4.8296,0.0,0.0,0.0,2.6697,0.0,0.0,0.0,2.4045,2.4048,2.6159,0.0,0.0,0.0,0.0,0.0,0.0,0.0,0.0,0.0,0.0,0.0,0.0,0.0,0.0,0.0,3.4811,3.5157,3.6038,3.7273,3.8007,3.8007,3.8819,3.9088,3.8665,3.9088,3.9473,3.99,3.99,4.0092,4.0516,4.0516,4.0973,4.1812,4.2701,4.3547,4.4359,4.5205,4.5594,4.5594,4.5594,4.5594,4.5594,4.5594,4.5594,4.5594,4.5594,4.5594,4.5594,4.5594,4.5594,4.5667,4.6124,4.624,4.6547,4.824,4.8527,4.8251,4.8274,4.8296,4.8296,4.8296,4.8296,4.8416,4.8857,4.894,4.904,4.9481,4.9554,4.9554,4.9554,5.0215,5.0922,5.1316,5.2087,5.2747,5.3141,5.3214,5.3214,5.3214,5.3214,5.3214,5.3214,5.2491,5.1987,5.2003,5.0875,4.9994,4.9591,4.915,4.8746,4.8333,4.8296,4.8489,4.893,4.9334,4.9554,4.961,4.916,4.871,4.8296,4.8296,4.8296,0.0,0.0,0.0,0.0,0.0,2.5435,0.0,0.0,0.0,2.5308,0.0,0.0,0.0,0.0,0.0,0.0,0.0,0.0,0.0,0.0,0.0,0.0,0.0,0.0,0.0,3.2814,3.3468,3.4885,3.5923,3.6696,3.7238,3.8242,3.8473,3.7777,3.8588,3.905,3.905,3.9358,3.9785,4.0285,4.0589,4.12,4.2081,4.2931,4.3778,4.459,4.5282,4.5594,4.5594,4.5594,4.5594,4.5594,4.5594,4.5594,4.5594,4.5594,4.5594,4.5594,4.5594,4.5594,4.5594,4.5594,4.6278,4.7255,4.7923,4.8769,4.9326,4.8541,4.8296,4.8296,4.8296,4.8296,4.8296,4.8296,4.8296,4.8296,4.8296,4.8296,4.8296,4.8296,4.8866,4.9821,5.1289,5.1657,5.1977,5.2627,5.2737,5.2737,5.2737,5.2737,5.2737,5.2737,5.216,5.1499,5.0875,5.0655,4.9994,4.8636,4.905,4.9123,4.8563,4.871,4.9114,4.9821,5.0472,5.0472,4.9821,4.9821,4.9297,4.8296,4.8489,4.8563,0.0,0.0,0.0,0.0,2.9893,0.0,0.0,0.0,2.7162,2.6579,0.0,0.0,0.0,0.0,0.0,0.0,0.0,0.0,0.0,0.0,0.0,0.0,0.0,0.0,0.0,0.0,3.2968,3.3199,3.4696,3.535,3.4664,3.6122,3.6965,3.685,3.77,3.8161,3.8161,3.9627,4.0054,3.9434,4.0931,4.2119,4.297,4.3778,4.4628,4.5475,4.5556,4.5594,4.5594,4.5594,4.5594,4.5594,4.5594,4.5594,4.5594,4.5594,4.5594,4.5594,4.5594,4.5594,4.5594,4.5594,4.6667,4.7996,4.8137,4.8798,4.9326,4.8541,4.8296,4.8296,4.8296,4.8296,4.8296,4.8296,4.8296,4.8296,4.8296,4.8296,4.8296,4.8296,4.8379,4.8746,4.9711,5.0482,5.0986,5.1059,5.1059,5.1059,5.1059,5.1059,5.1059,5.1059,5.0986,5.0912,5.0802,5.0151,4.9637,4.9454,4.882,4.8746,4.9417,5.0141,5.0545,5.0655,5.0765,5.0765,5.0655,5.0655,4.9848,4.8333,4.9087,4.9463,0.0,0.0,0.0,0.0,0.0,0.0,2.8239,0.0,2.7816,0.0,0.0,0.0,0.0,0.0,0.0,0.0,0.0,0.0,0.0,0.0,0.0,0.0,0.0,0.0,0.0,0.0,0.0,0.0,0.0,3.2619,3.2737,3.4811,3.6,3.6,3.7777,3.8511,3.8007,3.9665,4.0323,4.0015,4.0704,4.1508,4.235,4.3239,4.4047,4.4859,4.5359,4.5594,4.5594,4.5594,4.5594,4.5594,4.5594,4.5594,4.5594,4.5594,4.5594,4.5594,4.5594,4.5594,4.5594,4.5594,4.674,4.8024,4.7617,4.8419,4.9326,4.8541,4.8296,4.8296,4.8296,4.8296,4.8296,4.8296,4.8296,4.8296,4.8296,4.8296,4.8296,4.8296,4.8296,4.8406,4.8783,4.9564,5.0251,5.0729,5.1206,5.1316,5.0875,5.1206,5.1316,5.0839,5.0362,5.0115,5.0115,4.9784,4.961,4.961,4.9701,4.9921,5.0288,5.1069,5.1499,5.1499,5.194,5.1966,5.1499,5.1499,5.0875,4.9774,5.0141,5.0298,3.4391,0.0,0.0,0.0,0.0,0.0,0.0,0.0,0.0,0.0,0.0,0.0,0.0,0.0,0.0,0.0,0.0,0.0,0.0,0.0,0.0,0.0,0.0,0.0,0.0,0.0,0.0,2.8316,2.9003,2.9849,3.0929,3.3196,3.4657,3.5119,3.7623,3.855,3.7661,3.955,4.04,4.0169,4.0627,4.12,4.185,4.2931,4.3739,4.4359,4.5205,4.5594,4.5594,4.5594,4.5594,4.5594,4.5594,4.5594,4.5594,4.5594,4.5594,4.5594,4.5594,4.5594,4.5633,4.5898,4.6882,4.7879,4.747,4.8271,4.9187,4.8504,4.8296,4.8296,4.8296,4.8296,4.8296,4.8296,4.8296,4.8296,4.8296,4.8296,4.8296,4.8296,4.8489,4.8673,4.8673,4.8976,4.9454,5.0031,5.0618,5.0765,5.0178,5.0618,5.0765,5.0178,4.9591,4.9233,4.9233,4.9233,4.9344,4.9564,5.0555,5.1132,5.1132,5.1903,5.2244,5.1987,5.2784,5.281,5.1987,5.2207,5.2013,5.1463,5.1242,5.1132,0.0,0.0,0.0,3.4356,0.0,0.0,0.0,0.0,3.008,0.0,0.0,0.0,0.0,0.0,0.0,0.0,0.0,0.0,0.0,0.0,0.0,0.0,0.0,0.0,0.0,0.0,0.0,2.6618,2.6695,2.7428,2.9088,3.0852,3.2583,3.4202,3.6699,3.7623,3.6734,3.9242,4.0092,3.9358,4.0969,4.1773,4.185,4.3508,4.4278,4.4359,4.5205,4.5594,4.5594,4.5594,4.5594,4.5594,4.5594,4.5594,4.5594,4.5594,4.5594,4.5594,4.5594,4.5594,4.5744,4.6581,4.7205,4.7671,4.8047,4.8505,4.8839,4.8411,4.8296,4.8296,4.8296,4.8296,4.8296,4.8296,4.8296,4.8296,4.8296,4.8296,4.8296,4.8296,4.8976,4.9574,4.9574,4.8893,4.8333,4.837,4.8406,4.8406,4.837,4.8406,4.8406,4.837,4.837,4.8333,4.8333,4.8333,4.871,4.9537,5.1106,5.195,5.195,5.2737,5.2821,5.2024,5.2784,5.281,5.1987,5.2774,5.3141,5.3104,5.2307,5.195,0.0,0.0,3.7084,3.6776,0.0,0.0,0.0,0.0,0.0,0.0,0.0,0.0,0.0,0.0,0.0,0.0,0.0,0.0,0.0,0.0,0.0,0.0,0.0,0.0,0.0,0.0,0.0,2.3156,2.3774,2.5084,0.0,2.9618,3.1888,3.4129,3.6664,3.7853,3.7546,3.9511,4.0362,4.0092,4.0666,4.1546,4.2701,4.3239,4.4128,4.5167,4.5475,4.5594,4.5594,4.5594,4.5594,4.5594,4.5594,4.5594,4.5594,4.5594,4.5594,4.5594,4.5594,4.5594,4.5717,4.6299,4.6964,4.7572,4.7808,4.8343,4.8822,4.8411,4.8296,4.8296,4.8296,4.8296,4.8296,4.8296,4.8296,4.8296,4.8296,4.8296,4.8296,4.8296,4.9003,4.961,4.961,4.9821,4.9948,4.9948,4.9948,4.9948,4.9948,4.9948,4.9738,4.9233,4.916,4.894,4.8333,4.9324,5.0325,5.1143,5.2197,5.2784,5.2784,5.3067,5.3067,5.2821,5.3067,5.3067,5.2784,5.3067,5.3214,5.3177,5.292,5.2784,3.9242,3.8896,0.0,3.8084,3.6546,0.0,3.3625,0.0,0.0,0.0,0.0,0.0,0.0,0.0,0.0,0.0,0.0,0.0,0.0,2.1427,0.0,0.0,0.0,0.0,0.0,0.0,2.05,2.104,2.1581,2.3274,0.0,0.0,3.0968,3.4087,3.6664,3.8007,3.8007,3.9665,4.0516,4.0516,4.0819,4.1546,4.2662,4.3239,4.4128,4.5167,4.5479,4.5594,4.5594,4.5594,4.5594,4.5594,4.5594,4.5594,4.5594,4.5594,4.5594,4.5594,4.5594,4.5594,4.5666,4.614,4.676,4.7352,4.7623,4.8147,4.8566,4.8024,4.8076,4.8223,4.7966,4.8076,4.8296,4.8296,4.8296,4.837,4.871,4.8526,4.8489,4.9067,4.9627,5.0115,5.0408,5.1132,5.1453,5.0875,5.0802,5.0802,5.0802,5.0545,5.0288,5.0041,4.9747,4.949,4.9224,5.0435,5.1463,5.1987,5.2747,5.3214,5.3214,5.3214,5.3324,5.3618,5.3361,5.3324,5.3618,5.3324,5.3214,5.3214,5.3214,5.3214]}]]